[[{"header":{"parameterUnit":"m.s-1","parameterCategory":1,"la1":31.0,"la2":29.5877,"lo1":-88.7671,"lo2":-86.6584,"dx":0.0162,"dy":0.0185,"nx":115,"ny":88,"refTime":"2022-11-26T06:00:00:Z","depth":0,"parameterNumber":2,"parameterNumberName":"U-component_of_WINDS"},"data":[0.0,0.0,0.0,0.0,0.0,0.0,0.0,0.0,0.0,0.0,0.0,0.0,0.0,0.0,0.0,0.0,0.0,0.0,0.0,0.0,0.0,0.0,0.0,0.0,0.0,0.0,0.0,0.0,0.0,0.0,0.0,0.0,0.0,0.0,0.0,0.0,0.0,0.0,0.0,0.0,0.0,0.0,0.0,0.0,0.0,0.0,0.0,0.0,0.0,0.0,0.0,0.0,0.0,0.0,0.0,0.0,0.0,0.0,0.0,0.0,0.0,0.0,0.0,0.0,0.0,0.0,0.0,0.0,0.0,0.0,0.0,0.0,0.0,0.0,0.0,0.0,0.0,0.0,0.0,0.0,0.0,0.0,0.0,0.0,0.0,0.0,0.0,0.0,0.0,0.0,0.0,0.0,0.0,0.0,0.0,0.0,0.0,0.0,0.0,0.0,0.0,0.0,0.0,0.0,0.0,0.0,0.0,0.0,0.0,0.0,0.0,0.0,0.0,0.0,0.0,0.0,0.0,0.0,0.0,0.0,0.0,0.0,0.0,0.0,0.0,0.0,0.0,0.0,0.0,0.0,0.0,0.0,0.0,0.0,0.0,0.0,0.0,0.0,0.0,0.0,0.0,0.0,0.0,0.0,0.0,0.0,0.0,0.0,0.0,0.0,0.0,0.0,0.0,0.0,0.0,0.0,0.0,0.0,0.0,0.0,0.0,0.0,0.0,0.0,0.0,0.0,0.0,0.0,0.0,0.0,0.0,0.0,0.0,0.0,0.0,0.0,0.0,0.0,0.0,0.0,0.0,0.0,0.0,0.0,0.0,0.0,0.0,0.0,0.0,0.0,0.0,0.0,0.0,0.0,0.0,0.0,0.0,0.0,0.0,0.0,0.0,0.0,0.0,0.0,0.0,0.0,0.0,0.0,0.0,0.0,0.0,0.0,0.0,0.0,0.0,0.0,0.0,0.0,0.0,0.0,0.0,0.0,0.0,0.0,0.0,0.0,0.0,0.0,0.0,0.0,0.0,0.0,0.0,0.0,0.0,0.0,0.0,0.0,0.0,0.0,0.0,0.0,0.0,0.0,0.0,0.0,0.0,0.0,0.0,0.0,0.0,0.0,0.0,0.0,0.0,0.0,0.0,0.0,0.0,0.0,0.0,0.0,0.0,0.0,0.0,0.0,0.0,0.0,0.0,0.0,0.0,0.0,0.0,0.0,0.0,0.0,0.0,0.0,0.0,0.0,0.0,0.0,0.0,0.0,0.0,0.0,0.0,0.0,0.0,0.0,0.0,0.0,0.0,0.0,0.0,0.0,0.0,0.0,0.0,0.0,0.0,0.0,0.0,0.0,0.0,0.0,0.0,0.0,0.0,0.0,0.0,0.0,0.0,0.0,0.0,0.0,0.0,0.0,0.0,0.0,0.0,0.0,0.0,0.0,0.0,0.0,0.0,0.0,0.0,0.0,0.0,0.0,0.0,0.0,0.0,0.0,0.0,0.0,0.0,0.0,0.0,0.0,0.0,0.0,0.0,0.0,0.0,0.0,0.0,0.0,0.0,0.0,0.0,0.0,0.0,0.0,0.0,0.0,0.0,0.0,0.0,0.0,0.0,0.0,0.0,0.0,0.0,0.0,0.0,0.0,0.0,0.0,0.0,0.0,0.0,0.0,0.0,0.0,0.0,0.0,0.0,0.0,0.0,0.0,0.0,0.0,0.0,0.0,0.0,0.0,0.0,0.0,0.0,0.0,0.0,0.0,0.0,0.0,0.0,0.0,0.0,0.0,0.0,0.0,0.0,0.0,0.0,0.0,0.0,0.0,0.0,0.0,0.0,0.0,0.0,0.0,0.0,0.0,0.0,0.0,0.0,0.0,0.0,0.0,0.0,0.0,0.0,0.0,0.0,0.0,0.0,0.0,0.0,0.0,0.0,0.0,0.0,0.0,0.0,0.0,0.0,0.0,0.0,0.0,0.0,0.0,0.0,0.0,0.0,0.0,0.0,0.0,0.0,0.0,0.0,0.0,0.0,0.0,0.0,0.0,0.0,0.0,0.0,0.0,0.0,0.0,0.0,0.0,0.0,0.0,0.0,0.0,0.0,0.0,0.0,0.0,0.0,0.0,0.0,0.0,0.0,0.0,0.0,0.0,0.0,0.0,0.0,0.0,0.0,0.0,0.0,0.0,0.0,0.0,0.0,0.0,0.0,0.0,0.0,0.0,0.0,0.0,0.0,0.0,0.0,0.0,0.0,0.0,0.0,0.0,0.0,0.0,0.0,0.0,0.0,0.0,0.0,0.0,0.0,0.0,0.0,0.0,0.0,0.0,0.0,0.0,0.0,0.0,0.0,0.0,0.0,0.0,0.0,0.0,0.0,0.0,0.0,0.0,0.0,0.0,0.0,0.0,0.0,0.0,0.0,0.0,0.0,0.0,0.0,0.0,0.0,0.0,0.0,0.0,0.0,0.0,0.0,0.0,0.0,0.0,0.0,0.0,0.0,0.0,0.0,0.0,0.0,0.0,0.0,0.0,0.0,0.0,0.0,0.0,0.0,0.0,0.0,0.0,0.0,0.0,0.0,0.0,0.0,0.0,0.0,0.0,0.0,0.0,0.0,0.0,0.0,0.0,0.0,0.0,0.0,0.0,0.0,0.0,0.0,0.0,0.0,0.0,0.0,0.0,0.0,0.0,0.0,0.0,0.0,0.0,0.0,0.0,0.0,0.0,0.0,0.0,0.0,0.0,0.0,0.0,0.0,0.0,0.0,0.0,0.0,0.0,0.0,0.0,0.0,0.0,0.0,0.0,0.0,0.0,0.0,0.0,0.0,0.0,0.0,0.0,0.0,0.0,0.0,0.0,0.0,0.0,0.0,0.0,0.0,0.0,0.0,0.0,0.0,0.0,0.0,0.0,0.0,0.0,0.0,0.0,0.0,0.0,0.0,0.0,0.0,0.0,0.0,0.0,0.0,0.0,0.0,0.0,0.0,0.0,0.0,0.0,0.0,0.0,0.0,0.0,0.0,0.0,0.0,0.0,0.0,0.0,0.0,0.0,0.0,0.0,0.0,0.0,0.0,0.0,0.0,0.0,0.0,0.0,0.0,0.0,0.0,0.0,0.0,0.0,0.0,0.0,0.0,0.0,0.0,0.0,0.0,0.0,0.0,0.0,0.0,0.0,0.0,0.0,0.0,0.0,0.0,0.0,0.0,0.0,0.0,0.0,0.0,0.0,0.0,0.0,0.0,0.0,0.0,0.0,0.0,0.0,0.0,0.0,0.0,0.0,0.0,0.0,0.0,0.0,0.0,0.0,0.0,0.0,0.0,0.0,0.0,0.0,0.0,0.0,0.0,0.0,0.0,0.0,0.0,0.0,0.0,0.0,0.0,0.0,0.0,0.0,0.0,0.0,0.0,0.0,0.0,0.0,0.0,0.0,0.0,0.0,0.0,0.0,0.0,0.0,0.0,0.0,0.0,0.0,0.0,0.0,0.0,0.0,0.0,0.0,0.0,0.0,0.0,0.0,0.0,0.0,0.0,0.0,0.0,0.0,0.0,0.0,0.0,0.0,0.0,0.0,0.0,0.0,0.0,0.0,0.0,0.0,0.0,0.0,0.0,0.0,0.0,0.0,0.0,0.0,0.0,0.0,0.0,0.0,0.0,0.0,0.0,0.0,0.0,0.0,0.0,0.0,0.0,0.0,0.0,0.0,0.0,0.0,0.0,0.0,0.0,0.0,0.0,0.0,0.0,0.0,0.0,0.0,0.0,0.0,0.0,0.0,0.0,0.0,0.0,0.0,0.0,0.0,0.0,0.0,0.0,0.0,0.0,0.0,0.0,0.0,0.0,0.0,0.0,0.0,0.0,0.0,0.0,0.0,0.0,0.0,0.0,0.0,0.0,0.0,0.0,0.0,0.0,0.0,0.0,0.0,0.0,0.0,0.0,0.0,0.0,0.0,0.0,0.0,0.0,0.0,0.0,0.0,0.0,0.0,0.0,0.0,0.0,0.0,0.0,0.0,0.0,0.0,0.0,0.0,0.0,0.0,0.0,0.0,0.0,0.0,0.0,0.0,0.0,0.0,0.0,0.0,0.0,0.0,0.0,0.0,0.0,0.0,0.0,0.0,0.0,0.0,0.0,0.0,0.0,0.0,0.0,0.0,0.0,0.0,0.0,0.0,0.0,0.0,0.0,0.0,0.0,0.0,0.0,0.0,0.0,0.0,0.0,0.0,0.0,0.0,0.0,0.0,0.0,0.0,0.0,0.0,-4.0772,0.0,0.0,0.0,-3.978,0.0,0.0,0.0,0.0,0.0,0.0,0.0,0.0,0.0,0.0,0.0,0.0,0.0,0.0,0.0,0.0,0.0,0.0,0.0,0.0,0.0,0.0,0.0,0.0,0.0,0.0,0.0,0.0,0.0,0.0,0.0,0.0,0.0,0.0,0.0,0.0,0.0,0.0,0.0,0.0,0.0,0.0,0.0,0.0,0.0,0.0,0.0,0.0,0.0,0.0,0.0,0.0,0.0,0.0,0.0,0.0,0.0,0.0,0.0,0.0,0.0,0.0,0.0,0.0,0.0,0.0,0.0,0.0,0.0,0.0,0.0,0.0,0.0,0.0,0.0,0.0,0.0,0.0,0.0,0.0,0.0,0.0,0.0,0.0,0.0,0.0,0.0,0.0,0.0,0.0,0.0,0.0,0.0,0.0,0.0,0.0,0.0,0.0,0.0,0.0,0.0,0.0,0.0,0.0,0.0,0.0,0.0,0.0,0.0,0.0,-4.0772,-3.9976,-4.1914,-4.1906,-3.9712,0.0,0.0,0.0,0.0,0.0,0.0,0.0,0.0,0.0,0.0,0.0,0.0,0.0,0.0,0.0,0.0,0.0,0.0,0.0,0.0,0.0,0.0,0.0,0.0,0.0,0.0,0.0,0.0,0.0,0.0,0.0,0.0,0.0,0.0,0.0,0.0,0.0,0.0,0.0,0.0,0.0,0.0,0.0,0.0,0.0,0.0,0.0,0.0,0.0,0.0,0.0,0.0,0.0,0.0,0.0,0.0,0.0,0.0,0.0,0.0,0.0,0.0,0.0,0.0,0.0,0.0,0.0,0.0,0.0,0.0,0.0,0.0,0.0,0.0,0.0,0.0,0.0,0.0,0.0,0.0,0.0,0.0,0.0,0.0,0.0,0.0,0.0,0.0,0.0,0.0,0.0,0.0,0.0,0.0,0.0,0.0,0.0,0.0,0.0,0.0,0.0,0.0,0.0,0.0,0.0,0.0,0.0,0.0,0.0,0.0,0.0,0.0,-4.2409,-4.241,-4.014,0.0,0.0,0.0,0.0,0.0,0.0,0.0,0.0,0.0,0.0,0.0,0.0,0.0,0.0,0.0,0.0,0.0,0.0,0.0,0.0,0.0,0.0,0.0,0.0,0.0,0.0,0.0,0.0,0.0,0.0,0.0,0.0,0.0,0.0,0.0,0.0,0.0,0.0,0.0,0.0,0.0,0.0,0.0,0.0,0.0,0.0,0.0,0.0,0.0,0.0,0.0,0.0,0.0,0.0,0.0,0.0,0.0,0.0,0.0,0.0,0.0,0.0,0.0,0.0,0.0,0.0,0.0,0.0,0.0,0.0,0.0,0.0,0.0,0.0,0.0,0.0,0.0,0.0,0.0,0.0,0.0,0.0,0.0,0.0,0.0,0.0,0.0,0.0,0.0,0.0,0.0,0.0,0.0,0.0,0.0,0.0,0.0,0.0,0.0,0.0,0.0,0.0,0.0,0.0,0.0,0.0,0.0,0.0,0.0,0.0,-4.1434,-4.1995,-4.2963,0.0,-4.1669,0.0,0.0,0.0,0.0,0.0,0.0,0.0,0.0,0.0,0.0,0.0,0.0,0.0,0.0,0.0,0.0,0.0,0.0,0.0,0.0,0.0,0.0,0.0,0.0,0.0,0.0,0.0,0.0,0.0,0.0,0.0,0.0,0.0,0.0,0.0,0.0,0.0,0.0,0.0,0.0,0.0,0.0,0.0,0.0,0.0,0.0,0.0,0.0,0.0,0.0,0.0,0.0,0.0,0.0,0.0,0.0,0.0,0.0,0.0,0.0,0.0,0.0,0.0,0.0,0.0,0.0,0.0,0.0,0.0,0.0,0.0,0.0,0.0,0.0,0.0,0.0,0.0,0.0,0.0,0.0,0.0,0.0,0.0,0.0,0.0,0.0,0.0,0.0,0.0,0.0,0.0,0.0,0.0,0.0,0.0,0.0,0.0,0.0,0.0,0.0,0.0,0.0,0.0,0.0,0.0,0.0,0.0,0.0,0.0,0.0,-4.181,-4.3049,-4.3277,-4.2881,0.0,0.0,0.0,0.0,0.0,0.0,0.0,0.0,0.0,0.0,0.0,0.0,0.0,0.0,0.0,0.0,0.0,0.0,0.0,0.0,0.0,0.0,0.0,0.0,0.0,0.0,0.0,0.0,0.0,0.0,0.0,0.0,0.0,0.0,0.0,0.0,0.0,0.0,0.0,0.0,0.0,0.0,0.0,0.0,0.0,0.0,0.0,0.0,0.0,0.0,0.0,0.0,0.0,0.0,0.0,0.0,0.0,0.0,0.0,0.0,0.0,0.0,0.0,0.0,0.0,0.0,0.0,0.0,0.0,0.0,0.0,0.0,0.0,0.0,0.0,0.0,0.0,0.0,0.0,0.0,0.0,0.0,0.0,0.0,0.0,0.0,0.0,0.0,0.0,0.0,0.0,0.0,0.0,0.0,0.0,0.0,0.0,0.0,0.0,0.0,0.0,0.0,0.0,0.0,0.0,0.0,0.0,0.0,0.0,0.0,-4.245,-4.3147,-4.4209,-4.4065,-4.3236,-4.1866,0.0,0.0,0.0,0.0,0.0,0.0,0.0,0.0,0.0,0.0,0.0,0.0,0.0,0.0,0.0,0.0,0.0,0.0,0.0,0.0,0.0,0.0,0.0,0.0,0.0,0.0,0.0,0.0,0.0,0.0,0.0,0.0,0.0,0.0,0.0,0.0,0.0,0.0,0.0,0.0,0.0,0.0,0.0,0.0,0.0,0.0,0.0,0.0,0.0,0.0,0.0,0.0,0.0,0.0,0.0,0.0,0.0,0.0,0.0,0.0,0.0,0.0,0.0,0.0,0.0,0.0,0.0,0.0,0.0,0.0,0.0,0.0,0.0,0.0,0.0,0.0,0.0,0.0,0.0,0.0,0.0,0.0,0.0,0.0,0.0,0.0,0.0,0.0,0.0,0.0,0.0,0.0,0.0,0.0,0.0,0.0,0.0,0.0,0.0,0.0,0.0,0.0,0.0,0.0,0.0,0.0,0.0,0.0,-4.4687,-4.552,-4.5912,-4.5782,-4.5542,-4.4258,0.0,0.0,0.0,0.0,0.0,0.0,0.0,0.0,0.0,0.0,0.0,0.0,0.0,0.0,0.0,0.0,0.0,0.0,0.0,0.0,0.0,0.0,0.0,0.0,0.0,0.0,0.0,0.0,0.0,0.0,0.0,0.0,0.0,0.0,0.0,0.0,0.0,0.0,0.0,0.0,0.0,0.0,0.0,0.0,0.0,0.0,0.0,0.0,0.0,0.0,0.0,0.0,0.0,0.0,0.0,0.0,0.0,0.0,0.0,0.0,0.0,0.0,0.0,0.0,0.0,0.0,0.0,0.0,0.0,0.0,0.0,0.0,0.0,0.0,0.0,0.0,0.0,0.0,0.0,0.0,0.0,0.0,0.0,0.0,0.0,0.0,0.0,0.0,0.0,0.0,0.0,0.0,0.0,0.0,0.0,0.0,0.0,0.0,0.0,0.0,0.0,0.0,0.0,0.0,0.0,0.0,0.0,0.0,0.0,-4.571,-4.7074,-4.7464,-4.6787,-4.6567,-4.5521,0.0,0.0,0.0,0.0,0.0,0.0,0.0,0.0,0.0,0.0,0.0,0.0,0.0,0.0,0.0,0.0,0.0,0.0,0.0,0.0,0.0,0.0,0.0,0.0,0.0,0.0,0.0,0.0,0.0,0.0,0.0,0.0,0.0,0.0,0.0,0.0,0.0,0.0,0.0,0.0,0.0,0.0,0.0,0.0,0.0,0.0,0.0,0.0,0.0,0.0,0.0,0.0,0.0,0.0,0.0,0.0,0.0,0.0,0.0,0.0,0.0,0.0,0.0,0.0,0.0,0.0,0.0,0.0,0.0,0.0,0.0,0.0,0.0,0.0,0.0,0.0,0.0,0.0,0.0,0.0,0.0,0.0,0.0,0.0,0.0,0.0,0.0,0.0,0.0,0.0,0.0,0.0,0.0,0.0,0.0,0.0,0.0,0.0,0.0,0.0,0.0,0.0,0.0,0.0,0.0,0.0,0.0,0.0,0.0,-4.7275,-4.862,-4.8725,-4.7608,-4.7665,-4.663,0.0,0.0,0.0,0.0,0.0,0.0,0.0,0.0,0.0,0.0,0.0,0.0,0.0,0.0,0.0,0.0,0.0,0.0,0.0,0.0,0.0,0.0,0.0,0.0,0.0,0.0,0.0,0.0,0.0,0.0,0.0,0.0,0.0,0.0,0.0,0.0,0.0,0.0,0.0,0.0,0.0,0.0,0.0,0.0,0.0,0.0,0.0,0.0,0.0,0.0,0.0,0.0,0.0,0.0,0.0,0.0,0.0,0.0,0.0,0.0,0.0,0.0,0.0,0.0,0.0,0.0,0.0,0.0,0.0,0.0,0.0,0.0,0.0,0.0,0.0,0.0,0.0,0.0,0.0,0.0,0.0,0.0,0.0,0.0,0.0,0.0,0.0,0.0,0.0,0.0,0.0,0.0,0.0,0.0,0.0,0.0,0.0,0.0,0.0,0.0,0.0,0.0,0.0,0.0,0.0,0.0,0.0,0.0,-4.7337,-4.9556,-5.0243,-4.979,-4.8295,-4.8808,-4.7644,0.0,0.0,0.0,0.0,0.0,0.0,0.0,0.0,0.0,0.0,0.0,0.0,0.0,0.0,0.0,0.0,0.0,0.0,0.0,0.0,0.0,0.0,0.0,0.0,0.0,0.0,0.0,0.0,0.0,0.0,0.0,0.0,0.0,0.0,0.0,0.0,0.0,0.0,0.0,0.0,0.0,0.0,0.0,0.0,0.0,0.0,0.0,0.0,0.0,0.0,0.0,0.0,0.0,0.0,0.0,0.0,0.0,0.0,0.0,0.0,0.0,0.0,0.0,0.0,0.0,0.0,0.0,0.0,0.0,0.0,0.0,0.0,0.0,0.0,0.0,0.0,0.0,0.0,0.0,0.0,0.0,0.0,0.0,0.0,0.0,0.0,0.0,0.0,0.0,0.0,0.0,0.0,0.0,0.0,0.0,0.0,0.0,0.0,0.0,0.0,0.0,0.0,0.0,0.0,0.0,0.0,0.0,0.0,0.0,-4.9848,-5.0327,-5.0112,-4.9099,-4.9145,-4.814,0.0,0.0,0.0,0.0,0.0,0.0,0.0,0.0,0.0,0.0,0.0,0.0,0.0,0.0,0.0,0.0,0.0,0.0,0.0,0.0,0.0,0.0,0.0,0.0,0.0,0.0,0.0,0.0,0.0,0.0,0.0,0.0,0.0,0.0,0.0,0.0,0.0,0.0,0.0,0.0,0.0,0.0,0.0,0.0,0.0,0.0,0.0,0.0,0.0,0.0,0.0,0.0,0.0,0.0,0.0,0.0,0.0,0.0,0.0,0.0,0.0,0.0,0.0,0.0,0.0,0.0,0.0,0.0,0.0,0.0,0.0,0.0,0.0,0.0,0.0,0.0,0.0,0.0,0.0,0.0,0.0,0.0,0.0,0.0,0.0,0.0,0.0,0.0,0.0,0.0,0.0,0.0,0.0,0.0,0.0,0.0,0.0,0.0,0.0,0.0,0.0,0.0,0.0,0.0,0.0,0.0,0.0,0.0,0.0,-5.2484,-5.2632,-5.2295,-5.1527,-5.1387,-5.0127,-4.7495,0.0,0.0,0.0,0.0,0.0,0.0,0.0,0.0,0.0,0.0,0.0,0.0,0.0,0.0,0.0,0.0,0.0,0.0,0.0,0.0,0.0,0.0,0.0,0.0,0.0,0.0,0.0,0.0,0.0,0.0,0.0,0.0,0.0,0.0,0.0,0.0,0.0,0.0,0.0,0.0,0.0,0.0,0.0,0.0,0.0,0.0,0.0,0.0,0.0,0.0,0.0,0.0,0.0,0.0,0.0,0.0,0.0,0.0,0.0,0.0,0.0,0.0,0.0,0.0,0.0,0.0,0.0,0.0,0.0,0.0,0.0,0.0,0.0,0.0,0.0,0.0,0.0,0.0,0.0,0.0,0.0,0.0,0.0,0.0,0.0,0.0,0.0,0.0,0.0,0.0,0.0,0.0,0.0,0.0,0.0,0.0,0.0,0.0,0.0,0.0,0.0,0.0,0.0,0.0,0.0,0.0,0.0,0.0,-5.721,-5.7093,-5.6563,-5.5374,-5.5131,-5.3237,0.0,0.0,0.0,0.0,0.0,0.0,0.0,0.0,0.0,0.0,0.0,0.0,0.0,0.0,0.0,0.0,0.0,0.0,0.0,0.0,0.0,0.0,0.0,0.0,0.0,0.0,0.0,0.0,0.0,0.0,0.0,0.0,0.0,0.0,0.0,0.0,0.0,0.0,0.0,0.0,0.0,0.0,0.0,0.0,0.0,0.0,0.0,0.0,0.0,0.0,0.0,0.0,0.0,0.0,0.0,0.0,0.0,0.0,0.0,0.0,0.0,0.0,0.0,0.0,0.0,0.0,0.0,0.0,0.0,0.0,0.0,0.0,0.0,0.0,0.0,0.0,0.0,0.0,0.0,0.0,0.0,0.0,0.0,0.0,0.0,0.0,0.0,0.0,0.0,0.0,0.0,0.0,0.0,0.0,0.0,0.0,0.0,0.0,0.0,0.0,0.0,0.0,0.0,0.0,0.0,0.0,0.0,0.0,0.0,-6.201,-6.4756,-6.4153,-5.9851,-5.7272,-5.4871,0.0,0.0,0.0,0.0,0.0,0.0,0.0,0.0,0.0,0.0,0.0,0.0,0.0,0.0,0.0,0.0,0.0,0.0,0.0,0.0,0.0,0.0,0.0,0.0,0.0,0.0,0.0,0.0,0.0,0.0,0.0,0.0,0.0,0.0,0.0,0.0,0.0,0.0,0.0,0.0,0.0,0.0,0.0,0.0,0.0,0.0,0.0,0.0,0.0,0.0,0.0,0.0,0.0,0.0,0.0,0.0,0.0,0.0,0.0,0.0,0.0,0.0,0.0,0.0,0.0,0.0,0.0,0.0,0.0,0.0,0.0,0.0,0.0,0.0,0.0,0.0,0.0,0.0,0.0,0.0,0.0,0.0,0.0,0.0,0.0,0.0,0.0,0.0,0.0,0.0,0.0,0.0,0.0,0.0,0.0,0.0,0.0,0.0,0.0,0.0,0.0,0.0,0.0,0.0,0.0,0.0,0.0,0.0,-6.2429,-6.48,-6.9707,-7.0562,-6.7035,-6.1698,-5.7583,0.0,0.0,0.0,0.0,0.0,0.0,0.0,0.0,0.0,0.0,0.0,0.0,0.0,0.0,0.0,0.0,0.0,0.0,0.0,0.0,0.0,0.0,0.0,0.0,0.0,0.0,0.0,0.0,0.0,0.0,0.0,0.0,0.0,0.0,0.0,0.0,0.0,0.0,0.0,0.0,0.0,0.0,0.0,0.0,0.0,0.0,0.0,0.0,0.0,0.0,0.0,0.0,0.0,0.0,0.0,0.0,0.0,0.0,0.0,0.0,0.0,0.0,0.0,0.0,0.0,0.0,0.0,0.0,0.0,0.0,0.0,0.0,0.0,0.0,0.0,0.0,0.0,0.0,0.0,0.0,0.0,0.0,0.0,0.0,0.0,0.0,0.0,0.0,0.0,0.0,0.0,0.0,0.0,0.0,0.0,0.0,0.0,0.0,0.0,0.0,0.0,0.0,0.0,0.0,0.0,0.0,0.0,0.0,-6.5132,-6.676,-7.2878,-7.5729,-7.4673,-6.6834,-6.0741,0.0,0.0,0.0,0.0,0.0,0.0,0.0,0.0,0.0,0.0,0.0,0.0,0.0,0.0,0.0,0.0,0.0,0.0,0.0,0.0,0.0,0.0,0.0,0.0,0.0,0.0,0.0,0.0,0.0,0.0,0.0,0.0,0.0,0.0,0.0,0.0,0.0,0.0,0.0,0.0,0.0,0.0,0.0,0.0,0.0,0.0,0.0,0.0,0.0,0.0,0.0,0.0,0.0,0.0,0.0,0.0,0.0,0.0,0.0,0.0,0.0,0.0,0.0,0.0,0.0,0.0,0.0,0.0,0.0,0.0,0.0,0.0,0.0,0.0,0.0,0.0,0.0,0.0,0.0,0.0,0.0,0.0,0.0,0.0,0.0,0.0,0.0,0.0,0.0,0.0,0.0,0.0,0.0,0.0,0.0,0.0,0.0,0.0,0.0,0.0,0.0,0.0,0.0,0.0,0.0,0.0,0.0,0.0,-6.7703,-7.0871,-7.5615,-7.759,-7.6557,-6.7986,-6.2317,0.0,0.0,0.0,0.0,0.0,0.0,0.0,0.0,0.0,0.0,0.0,0.0,0.0,0.0,0.0,0.0,0.0,0.0,0.0,0.0,0.0,0.0,0.0,0.0,0.0,0.0,0.0,0.0,0.0,0.0,0.0,0.0,0.0,0.0,0.0,0.0,0.0,0.0,0.0,0.0,0.0,0.0,0.0,0.0,0.0,0.0,0.0,0.0,-4.2231,0.0,0.0,0.0,0.0,0.0,0.0,0.0,0.0,0.0,0.0,0.0,0.0,0.0,0.0,0.0,0.0,0.0,0.0,0.0,0.0,0.0,0.0,0.0,0.0,0.0,0.0,0.0,0.0,0.0,0.0,0.0,0.0,0.0,0.0,0.0,0.0,0.0,0.0,0.0,0.0,0.0,0.0,0.0,0.0,0.0,0.0,0.0,0.0,0.0,0.0,0.0,0.0,0.0,0.0,0.0,0.0,0.0,0.0,0.0,-6.9514,-7.2895,-7.6726,-7.8203,-7.6929,-7.0549,-6.5385,0.0,0.0,0.0,0.0,0.0,0.0,0.0,0.0,0.0,0.0,0.0,0.0,0.0,0.0,0.0,0.0,0.0,0.0,0.0,0.0,0.0,0.0,0.0,0.0,0.0,0.0,0.0,0.0,0.0,0.0,0.0,0.0,0.0,0.0,0.0,0.0,0.0,0.0,0.0,0.0,0.0,0.0,0.0,0.0,0.0,0.0,0.0,0.0,0.0,0.0,0.0,0.0,0.0,0.0,0.0,0.0,0.0,0.0,0.0,0.0,0.0,0.0,0.0,0.0,0.0,0.0,0.0,0.0,0.0,0.0,0.0,0.0,0.0,0.0,0.0,0.0,0.0,0.0,0.0,0.0,0.0,0.0,0.0,0.0,0.0,0.0,0.0,0.0,0.0,0.0,0.0,0.0,0.0,0.0,0.0,0.0,0.0,0.0,0.0,0.0,0.0,0.0,0.0,0.0,0.0,0.0,0.0,-6.6548,-7.0879,-7.4474,-7.734,-7.8368,-7.7449,-7.3335,-6.8431,-6.2784,0.0,0.0,0.0,0.0,0.0,0.0,0.0,0.0,0.0,0.0,0.0,0.0,0.0,0.0,0.0,0.0,0.0,0.0,0.0,0.0,0.0,0.0,0.0,0.0,0.0,0.0,0.0,0.0,0.0,0.0,0.0,0.0,0.0,0.0,0.0,0.0,0.0,0.0,-3.9753,-4.0967,0.0,0.0,0.0,0.0,0.0,0.0,0.0,0.0,-4.5249,0.0,0.0,0.0,0.0,0.0,0.0,0.0,0.0,0.0,0.0,0.0,0.0,0.0,0.0,0.0,0.0,0.0,0.0,0.0,0.0,0.0,0.0,0.0,0.0,0.0,0.0,0.0,0.0,0.0,0.0,0.0,0.0,0.0,0.0,0.0,0.0,0.0,0.0,0.0,0.0,0.0,0.0,0.0,0.0,0.0,0.0,0.0,0.0,0.0,0.0,0.0,0.0,0.0,0.0,0.0,0.0,-6.4898,-6.7331,-7.1582,-7.77,-7.8641,-7.9074,-7.8973,-7.4487,-6.9286,-6.3639,0.0,0.0,0.0,0.0,0.0,0.0,0.0,0.0,0.0,0.0,0.0,0.0,0.0,0.0,0.0,0.0,0.0,0.0,0.0,0.0,0.0,0.0,0.0,0.0,0.0,0.0,0.0,0.0,0.0,0.0,0.0,0.0,0.0,0.0,0.0,0.0,0.0,0.0,0.0,-4.4714,-4.4856,0.0,0.0,0.0,0.0,0.0,0.0,0.0,0.0,-4.7105,0.0,0.0,0.0,0.0,0.0,0.0,0.0,0.0,0.0,0.0,0.0,0.0,0.0,0.0,0.0,0.0,0.0,0.0,0.0,0.0,0.0,0.0,0.0,0.0,0.0,0.0,0.0,0.0,0.0,0.0,0.0,0.0,0.0,0.0,0.0,0.0,0.0,0.0,0.0,0.0,0.0,0.0,0.0,0.0,0.0,0.0,0.0,0.0,0.0,0.0,0.0,0.0,0.0,0.0,0.0,-6.6428,-6.9762,-7.4064,-7.9252,-7.8728,-7.8671,-7.9382,-7.4773,-6.9472,0.0,0.0,0.0,0.0,0.0,0.0,0.0,0.0,0.0,0.0,0.0,0.0,0.0,0.0,0.0,0.0,0.0,0.0,0.0,0.0,0.0,0.0,0.0,0.0,0.0,0.0,0.0,0.0,0.0,0.0,0.0,0.0,0.0,0.0,0.0,0.0,0.0,0.0,0.0,0.0,-4.6676,-4.7319,-4.9698,0.0,0.0,0.0,0.0,0.0,0.0,-4.9603,-4.827,0.0,0.0,0.0,0.0,0.0,0.0,0.0,0.0,0.0,0.0,0.0,0.0,0.0,0.0,0.0,0.0,0.0,0.0,0.0,0.0,0.0,0.0,0.0,0.0,0.0,0.0,0.0,0.0,0.0,0.0,0.0,0.0,0.0,0.0,0.0,0.0,0.0,0.0,0.0,0.0,0.0,0.0,0.0,0.0,0.0,0.0,0.0,0.0,0.0,0.0,0.0,0.0,0.0,0.0,0.0,-6.7297,-7.1718,-7.6122,-8.0179,-7.8663,-7.8389,-7.9605,-7.4524,-6.9211,0.0,0.0,0.0,0.0,0.0,0.0,0.0,0.0,0.0,0.0,0.0,0.0,0.0,0.0,0.0,0.0,0.0,0.0,0.0,0.0,0.0,0.0,0.0,0.0,0.0,0.0,0.0,0.0,0.0,0.0,0.0,0.0,0.0,0.0,0.0,0.0,0.0,0.0,0.0,0.0,0.0,-4.952,-5.1815,-5.2957,0.0,0.0,0.0,0.0,-5.2386,-5.1101,0.0,0.0,0.0,0.0,0.0,0.0,0.0,0.0,0.0,0.0,0.0,0.0,0.0,0.0,0.0,0.0,0.0,0.0,0.0,0.0,0.0,0.0,0.0,0.0,0.0,0.0,0.0,0.0,0.0,0.0,0.0,0.0,0.0,0.0,0.0,0.0,0.0,0.0,0.0,0.0,0.0,0.0,0.0,0.0,0.0,0.0,0.0,0.0,0.0,0.0,0.0,0.0,0.0,0.0,0.0,0.0,-6.7011,-7.1233,-7.5906,-8.0656,-7.9381,-7.921,-8.0422,-7.3707,-6.8296,0.0,0.0,0.0,0.0,0.0,0.0,0.0,0.0,0.0,0.0,0.0,0.0,0.0,0.0,0.0,0.0,0.0,0.0,0.0,0.0,0.0,0.0,0.0,0.0,0.0,0.0,0.0,0.0,0.0,0.0,0.0,0.0,0.0,0.0,0.0,0.0,0.0,0.0,0.0,0.0,0.0,-5.1101,-5.3395,-5.5027,-5.5633,0.0,0.0,-5.9594,-5.7996,-5.7604,0.0,0.0,0.0,0.0,0.0,0.0,0.0,0.0,0.0,0.0,0.0,0.0,0.0,0.0,0.0,0.0,0.0,0.0,0.0,0.0,0.0,0.0,0.0,0.0,0.0,0.0,0.0,0.0,0.0,0.0,0.0,0.0,0.0,0.0,0.0,0.0,0.0,0.0,0.0,0.0,0.0,0.0,0.0,0.0,0.0,0.0,0.0,0.0,0.0,0.0,0.0,0.0,0.0,0.0,0.0,-6.3765,-6.6462,-7.2928,-7.7454,-7.9605,-7.8922,-7.8972,-7.9948,-7.3335,-6.837,0.0,0.0,0.0,0.0,0.0,0.0,0.0,0.0,0.0,0.0,0.0,0.0,0.0,0.0,0.0,0.0,0.0,0.0,0.0,0.0,0.0,0.0,0.0,0.0,0.0,0.0,0.0,0.0,0.0,0.0,0.0,0.0,0.0,0.0,0.0,0.0,0.0,0.0,0.0,0.0,0.0,0.0,-5.5027,-5.7096,0.0,0.0,0.0,-6.0237,-5.7774,0.0,0.0,0.0,0.0,0.0,0.0,0.0,0.0,0.0,0.0,0.0,0.0,0.0,0.0,0.0,0.0,0.0,0.0,0.0,0.0,0.0,0.0,0.0,0.0,0.0,0.0,0.0,0.0,0.0,0.0,0.0,0.0,0.0,0.0,0.0,0.0,0.0,0.0,0.0,0.0,0.0,0.0,0.0,0.0,0.0,0.0,0.0,0.0,0.0,0.0,0.0,0.0,0.0,0.0,0.0,0.0,0.0,-6.6156,-7.4584,-7.9178,-7.9498,-7.8907,-7.8982,-7.9651,-7.4041,0.0,0.0,0.0,0.0,0.0,0.0,0.0,0.0,0.0,0.0,0.0,0.0,0.0,0.0,0.0,0.0,0.0,0.0,0.0,0.0,0.0,0.0,0.0,0.0,0.0,0.0,0.0,-3.6073,0.0,0.0,0.0,0.0,0.0,0.0,0.0,0.0,0.0,0.0,0.0,0.0,0.0,0.0,-5.4527,-5.6668,-5.8988,-6.0415,0.0,0.0,-6.0986,-5.9059,-6.0879,-6.1165,0.0,0.0,0.0,0.0,0.0,0.0,0.0,0.0,0.0,0.0,0.0,0.0,0.0,0.0,0.0,0.0,0.0,0.0,0.0,0.0,0.0,0.0,0.0,0.0,0.0,0.0,0.0,0.0,0.0,0.0,0.0,0.0,0.0,0.0,0.0,0.0,0.0,0.0,0.0,0.0,0.0,0.0,0.0,0.0,0.0,0.0,0.0,0.0,0.0,0.0,0.0,0.0,0.0,0.0,-6.5908,-6.6807,-7.5309,-8.044,-8.1677,-8.0236,-7.9799,-8.0505,-7.6493,-7.1663,0.0,0.0,0.0,0.0,0.0,0.0,0.0,0.0,0.0,0.0,0.0,0.0,0.0,0.0,0.0,0.0,0.0,0.0,0.0,0.0,0.0,0.0,0.0,0.0,0.0,0.0,0.0,0.0,0.0,0.0,0.0,0.0,0.0,0.0,0.0,0.0,0.0,0.0,0.0,0.0,0.0,-5.674,-5.8317,-6.0594,-6.2628,0.0,-6.3663,-6.3663,-6.4947,-6.5911,-6.5019,-6.0344,0.0,0.0,0.0,0.0,0.0,0.0,0.0,0.0,0.0,0.0,0.0,0.0,0.0,0.0,0.0,0.0,0.0,0.0,0.0,0.0,0.0,0.0,0.0,0.0,0.0,0.0,0.0,0.0,0.0,0.0,0.0,0.0,0.0,0.0,0.0,0.0,0.0,0.0,0.0,0.0,0.0,0.0,0.0,0.0,0.0,0.0,0.0,0.0,0.0,0.0,0.0,0.0,0.0,-6.6345,-6.6711,-7.5693,-8.0433,-8.0459,-8.0282,-8.0394,-8.0691,-7.6716,-7.2592,0.0,0.0,0.0,0.0,0.0,0.0,0.0,0.0,0.0,0.0,0.0,0.0,0.0,0.0,0.0,0.0,0.0,0.0,0.0,0.0,0.0,0.0,0.0,0.0,0.0,0.0,0.0,0.0,-4.8333,-4.8951,-4.6189,0.0,0.0,0.0,0.0,0.0,0.0,0.0,0.0,0.0,0.0,-5.8203,-6.12,-6.2806,0.0,0.0,-6.509,-6.4912,-6.5054,-6.6161,-6.5697,-6.1985,-6.095,0.0,0.0,0.0,0.0,0.0,0.0,0.0,0.0,0.0,0.0,0.0,0.0,0.0,0.0,0.0,0.0,0.0,0.0,0.0,0.0,0.0,0.0,0.0,0.0,0.0,0.0,0.0,0.0,0.0,0.0,0.0,0.0,0.0,0.0,0.0,0.0,0.0,0.0,0.0,0.0,0.0,0.0,0.0,0.0,0.0,0.0,0.0,0.0,0.0,0.0,0.0,0.0,-6.746,-6.7744,-7.6744,-8.1174,-8.0617,-8.1397,-8.1434,-8.0654,-7.8165,-7.471,0.0,0.0,0.0,0.0,0.0,0.0,0.0,0.0,0.0,0.0,0.0,0.0,0.0,0.0,0.0,0.0,0.0,0.0,0.0,0.0,0.0,0.0,0.0,0.0,0.0,0.0,0.0,0.0,-5.0785,-5.1361,-4.8789,0.0,0.0,0.0,0.0,0.0,0.0,0.0,0.0,0.0,0.0,-6.0337,-6.302,-6.4305,-6.5268,-6.6053,-6.5732,-6.5482,-6.5625,-6.641,-6.6232,-6.4086,0.0,0.0,0.0,0.0,0.0,0.0,0.0,0.0,0.0,0.0,0.0,0.0,0.0,0.0,0.0,0.0,0.0,0.0,0.0,0.0,0.0,0.0,0.0,0.0,0.0,0.0,0.0,-4.4864,0.0,0.0,-4.3478,0.0,0.0,0.0,0.0,0.0,0.0,0.0,0.0,0.0,0.0,0.0,0.0,0.0,0.0,0.0,0.0,0.0,0.0,0.0,0.0,0.0,0.0,-6.9409,-7.0271,-7.8607,-8.3032,-8.3069,-8.3886,-8.3106,-8.0877,-8.1397,-7.8351,-7.1118,0.0,0.0,0.0,0.0,0.0,0.0,0.0,0.0,0.0,0.0,0.0,0.0,0.0,0.0,0.0,0.0,0.0,0.0,0.0,0.0,0.0,0.0,0.0,0.0,0.0,0.0,-4.2575,-4.6215,-4.9745,0.0,0.0,0.0,0.0,0.0,0.0,0.0,0.0,0.0,-5.6152,-6.0344,-6.327,-6.3413,-6.4769,-6.6089,-6.691,-6.5697,-6.5447,-6.7624,-6.741,-6.6946,0.0,0.0,0.0,0.0,0.0,0.0,0.0,0.0,0.0,0.0,0.0,0.0,0.0,0.0,0.0,0.0,0.0,0.0,0.0,0.0,0.0,0.0,0.0,0.0,0.0,0.0,0.0,-5.0727,-5.1108,0.0,0.0,0.0,0.0,0.0,0.0,0.0,0.0,0.0,0.0,0.0,-6.1967,-6.2227,0.0,0.0,0.0,0.0,0.0,0.0,0.0,0.0,0.0,0.0,0.0,0.0,-7.0526,-7.0462,-7.7659,-8.1806,-8.2363,-8.266,-8.292,-8.3143,-8.1323,-7.7905,-7.2741,0.0,0.0,0.0,0.0,0.0,0.0,0.0,0.0,0.0,0.0,0.0,0.0,0.0,0.0,0.0,0.0,0.0,0.0,0.0,0.0,0.0,0.0,0.0,0.0,0.0,-4.967,0.0,0.0,0.0,0.0,0.0,0.0,0.0,0.0,0.0,0.0,-5.4583,-5.659,-5.9909,-6.12,-6.2628,-6.4697,-6.5911,-6.7231,0.0,0.0,0.0,0.0,0.0,0.0,0.0,0.0,0.0,0.0,0.0,0.0,0.0,-6.4049,-6.1592,-5.8355,-5.8763,-5.9345,-5.872,0.0,0.0,0.0,0.0,0.0,0.0,0.0,0.0,0.0,0.0,0.0,0.0,0.0,0.0,-5.6662,-5.6104,-5.7024,0.0,0.0,0.0,0.0,0.0,0.0,0.0,0.0,-6.4159,-6.5868,-6.6611,-6.7131,-6.7391,-6.728,-6.5719,-6.233,0.0,0.0,0.0,0.0,0.0,0.0,0.0,0.0,-7.2005,-7.1637,-7.8052,-8.1843,-8.24,-8.2957,-8.3329,-8.3514,-8.0654,-7.809,-7.6,-7.2704,-6.967,0.0,0.0,0.0,0.0,0.0,0.0,0.0,0.0,0.0,0.0,0.0,0.0,0.0,0.0,0.0,0.0,0.0,0.0,0.0,0.0,0.0,0.0,0.0,-5.3683,0.0,0.0,0.0,0.0,0.0,0.0,0.0,0.0,0.0,-5.6612,-5.7503,-5.9309,-6.2301,-6.3163,-6.4198,-6.5982,0.0,0.0,0.0,0.0,0.0,0.0,0.0,-6.7766,-6.7517,-6.7731,-6.823,-6.9265,-6.9622,-6.9729,-6.9729,0.0,0.0,-6.4574,-6.448,-6.4878,-6.4218,-6.3311,-6.2857,-6.3478,-6.3505,-6.4045,0.0,0.0,0.0,0.0,-5.7655,0.0,0.0,0.0,-6.3981,-6.2473,0.0,-6.2699,0.0,0.0,0.0,0.0,-5.9213,-6.3779,0.0,0.0,-7.2604,-7.4524,-7.2469,-7.2395,-7.2432,-7.2246,-6.9249,-6.7391,-6.6611,-6.5978,-6.5008,0.0,0.0,0.0,0.0,0.0,-7.3728,-7.3927,-7.9837,-8.3106,-8.3143,-8.4629,-8.4332,-8.2028,-7.9688,-7.9094,-8.0208,-7.4598,-7.1155,-7.0821,-6.4248,0.0,0.0,0.0,0.0,0.0,0.0,0.0,0.0,0.0,0.0,0.0,0.0,0.0,0.0,0.0,0.0,0.0,0.0,0.0,0.0,-5.3088,0.0,0.0,0.0,0.0,0.0,0.0,0.0,0.0,0.0,-6.0295,-5.781,-5.979,-6.2076,-6.3331,0.0,0.0,0.0,0.0,-6.9979,-6.8551,-6.8302,-6.8373,-6.8444,-7.0264,-7.1906,-7.2655,0.0,0.0,-7.4368,-7.2405,-7.1156,-7.1014,-7.2442,-7.2585,-7.0807,-6.9808,-6.905,-6.8229,-6.8284,-6.8301,-6.7649,-6.8468,-6.9342,-6.8034,0.0,0.0,0.0,0.0,-6.2728,-6.4875,-6.8323,-6.8302,-6.7709,-6.6751,-6.7635,0.0,0.0,0.0,0.0,0.0,0.0,-6.8188,-7.0011,-7.3591,-7.568,-7.6567,-7.7125,-7.7385,-7.7375,-7.5861,-7.5936,-7.7347,-7.6621,-7.2361,-6.4924,0.0,0.0,0.0,0.0,-7.4809,-7.5437,-7.9307,-8.1694,-8.2326,-8.3329,-8.2994,-8.1137,-8.0988,-8.0051,-7.8202,-7.7942,-7.601,-7.2035,-7.092,0.0,0.0,0.0,0.0,0.0,0.0,0.0,0.0,0.0,0.0,0.0,0.0,0.0,0.0,0.0,0.0,0.0,0.0,0.0,-5.4723,-5.8438,-6.0258,0.0,0.0,0.0,0.0,0.0,0.0,0.0,0.0,0.0,-6.3466,-6.2544,-6.282,0.0,0.0,-6.5946,-6.6874,-6.9479,-7.1371,-7.1442,-7.1942,0.0,-7.3869,-7.3155,-7.2941,-7.4297,-7.6474,-7.7865,-7.7437,-7.865,-7.9721,-7.9614,-8.0234,-8.0349,-7.9094,-7.5446,-7.2976,-7.3142,-7.247,-7.1864,-7.2498,-7.3464,-7.4421,-7.497,-7.1824,-6.9399,-6.8186,-6.7883,-6.7819,-6.9907,-7.3339,-7.3293,-7.2322,-7.0809,-7.2406,-7.014,-6.5102,-6.6012,0.0,0.0,0.0,-7.0694,-7.3106,-7.4865,-7.6557,-7.8145,-7.8957,-7.963,-8.0067,-7.866,-7.9368,-8.1946,-7.9799,-7.6128,-7.1031,0.0,-7.1255,-7.0771,-7.4721,-7.6766,-7.6929,-8.0022,-8.1954,-8.2437,-8.2957,-8.2549,-8.1285,-8.136,-8.0394,-7.8128,-7.8833,-7.783,-7.4773,-7.3993,-7.1429,0.0,0.0,0.0,0.0,0.0,0.0,0.0,0.0,0.0,0.0,0.0,-4.8779,-4.6215,0.0,0.0,0.0,-5.7063,-5.8326,-6.0481,-6.245,0.0,0.0,0.0,0.0,0.0,0.0,0.0,-6.2914,-6.5616,-6.757,-6.7477,-6.6413,-6.6196,-6.7909,-6.8266,-6.8694,-6.9622,0.0,-7.3726,-7.4154,-7.4654,-7.5403,-7.6616,-7.6438,-7.6616,-7.8186,-7.9578,-8.0506,-8.0613,-8.2433,-8.3682,-8.3539,-8.3549,-8.3561,-8.3058,-7.9645,-7.7006,-7.7403,-7.6401,-7.5844,-7.6937,-7.7568,-7.8292,-8.0542,-8.0618,-7.3757,-7.1749,-7.3073,-7.3273,-7.5075,-7.7879,-7.8176,-7.6186,-7.2952,-7.6557,-7.445,-6.8184,-6.9136,0.0,-7.1829,-7.229,-7.3609,-7.5575,-7.6486,-7.7393,-7.8231,-7.8956,-8.006,-8.1418,-7.9173,-7.9593,-8.214,-7.8573,-7.7719,-7.9725,-7.9762,-7.7756,-7.4115,-7.7375,-7.8945,-7.8536,-8.1323,-8.2883,-8.318,-8.3106,-8.2734,-8.1991,-8.1137,-8.0282,-7.9391,-7.8053,-7.757,-7.8053,-7.4736,-7.2655,-7.2135,0.0,0.0,0.0,0.0,0.0,0.0,0.0,0.0,0.0,0.0,0.0,0.0,0.0,0.0,-6.2227,-6.4196,0.0,-6.7465,-6.5645,0.0,0.0,0.0,-6.5362,-6.837,-6.8147,-6.8198,-6.921,0.0,0.0,-7.0449,-7.0845,-7.1368,-7.2261,-7.3333,-7.4083,-7.4154,-7.5546,-7.6652,-7.6652,-7.6866,-7.7187,-7.8079,-7.9685,-8.1327,-8.2611,-8.3432,-8.3361,-8.3397,-8.4075,-8.4324,-8.3825,-8.3646,-8.3641,-8.357,-8.2489,-8.1599,-8.0552,-7.9911,-7.9753,-8.0189,-8.0603,-8.1017,-8.1906,-8.1944,-8.0163,-7.9253,-7.8966,-7.8225,-7.8233,-7.8791,-7.8648,-7.7601,-7.6037,-7.6939,-7.6409,-7.4795,-7.5252,-7.5469,-7.5505,-7.6989,-7.7042,-7.6029,-7.791,-7.9493,-8.0633,-8.0815,-8.2288,-8.4588,-8.3627,-8.3952,-8.5558,-8.4666,-8.3552,-8.2363,-8.2326,-8.0282,-7.6409,-7.653,-7.7793,-8.0097,-7.9688,-8.0691,-8.3069,-8.2586,-8.2177,-8.1991,-8.1137,-8.0022,-7.8648,-7.8796,-7.8462,-7.7486,-7.7635,-7.6371,-7.3287,-7.0437,0.0,0.0,0.0,0.0,0.0,0.0,0.0,0.0,0.0,-5.6915,-5.4611,0.0,-6.245,0.0,-6.728,-7.0326,-7.0078,-7.066,0.0,0.0,-6.9261,-6.9447,-7.0227,-7.1292,-7.1824,-7.1487,-7.2706,-7.3905,-7.4712,-7.5317,-7.6335,-7.8207,-7.5908,-7.444,-7.5653,-7.7723,-7.9079,-7.9186,-8.047,-8.1541,-8.1184,-8.204,-8.2968,-8.3325,-8.3896,-8.4324,-8.4324,-8.5002,-8.5431,-8.5288,-8.5716,-8.5662,-8.4798,-8.445,-8.3803,-8.2708,-8.1659,-8.0823,-8.0697,-8.1948,-8.3225,-8.4256,-8.456,-8.3802,-8.3422,-8.3172,-8.0975,-7.9731,-7.9263,-7.8864,-7.8181,-7.7276,-7.7142,-7.7301,-7.7617,-7.7533,-7.7139,-7.6642,-7.7771,-7.7653,-7.6653,-7.8566,-8.0154,-8.1346,-8.1635,-8.3121,-8.55,-8.4764,-8.5423,-8.7273,-8.6969,-8.6301,-8.5372,-8.4963,-8.3292,-8.0357,-7.8053,-7.7793,-7.9614,-7.9837,-8.1323,-8.4109,-8.3477,-8.2734,-8.1991,-8.0802,-7.9391,-7.783,-7.783,-7.7422,-7.6567,-7.7347,-7.6679,-7.4067,-7.2035,-7.0152,0.0,0.0,0.0,0.0,0.0,0.0,0.0,0.0,0.0,0.0,0.0,-6.6982,-6.728,-7.1589,-7.3744,-7.2146,-7.2518,-7.2741,-7.2444,-7.2481,-7.3112,-7.4561,-7.523,-7.5676,-7.5936,-7.6429,-7.7319,-7.8799,-7.9125,-7.9892,-8.1887,-7.9793,-7.8237,-7.8905,-8.0149,-8.1041,-8.147,-8.254,-8.3397,-8.3254,-8.3646,-8.4075,-8.4431,-8.4824,-8.5252,-8.5573,-8.6002,-8.618,-8.593,-8.6144,-8.6096,-8.5138,-8.4875,-8.4571,-8.3744,-8.305,-8.2531,-8.2026,-8.266,-8.3409,-8.6644,-8.7099,-8.5772,-8.5583,-8.5863,-8.2699,-8.0844,-7.9929,-7.9329,-7.8633,-7.7883,-7.7642,-7.7969,-7.8546,-7.819,-7.7577,-7.6958,-7.727,-7.7483,-7.7768,-7.9105,-8.0403,-8.1516,-8.2131,-8.3504,-8.5408,-8.4676,-8.5628,-8.8047,-8.7341,-8.7155,-8.7452,-8.6709,-8.5446,-8.3552,-8.0059,-7.8304,-7.8341,-8.0868,-8.3106,-8.5075,-8.4146,-8.2957,-8.1545,-8.0097,-7.8648,-7.7162,-7.6344,-7.5899,-7.5787,-7.5676,-7.5416,-7.4896,-7.2666,-7.1192,0.0,-6.7168,0.0,0.0,0.0,0.0,0.0,0.0,0.0,0.0,-6.9546,-7.1998,-7.3881,-7.5888,-7.6334,-7.4513,-7.367,-7.4142,-7.6121,-7.5787,-7.653,-7.9242,-7.9019,-7.9205,-8.0802,-8.0008,-8.021,-8.2355,-8.2341,-8.2591,-8.3835,-8.352,-8.2821,-8.2675,-8.2406,-8.2576,-8.3432,-8.3539,-8.3825,-8.436,-8.4646,-8.4931,-8.5466,-8.5645,-8.5966,-8.6358,-8.6465,-8.6358,-8.5787,-8.5609,-8.5395,-8.4717,-8.4604,-8.4486,-8.4074,-8.4026,-8.3926,-8.352,-8.3149,-8.3021,-8.6872,-8.6417,-8.6758,-8.6606,-8.6014,-8.5385,-8.4108,-8.2443,-8.1445,-8.0619,-8.0107,-8.0051,-8.0097,-8.0254,-8.0376,-8.0345,-8.0241,-8.0462,-8.067,-8.075,-8.1075,-8.2105,-8.3648,-8.3665,-8.4864,-8.6939,-8.6744,-8.7136,-8.8084,-8.7935,-8.6561,-8.4183,-8.396,-8.2363,-7.9605,0.0,0.0,0.0,-8.136,-8.2846,-8.2586,-8.0542,-7.9279,-7.8982,-7.8685,0.0,-7.7152,-7.6939,-7.653,-7.5824,-7.5156,0.0,0.0,0.0,0.0,0.0,0.0,0.0,0.0,0.0,0.0,0.0,-7.0611,-7.0512,-7.1057,-7.2221,-7.4153,-7.7013,-7.7226,-7.7746,-7.9168,-7.9168,-7.9279,-7.9688,-7.9614,-7.9799,-8.0431,-8.0357,-8.0877,-8.2474,-8.249,-8.2987,-8.4558,-8.4516,-8.4559,-8.5407,-8.5145,-8.4827,-8.484,-8.3865,-8.3508,-8.4182,-8.4289,-8.4396,-8.4574,-8.5109,-8.5252,-8.5109,-8.5395,-8.5573,-8.5252,-8.5109,-8.5074,-8.486,-8.486,-8.4824,-8.4646,-8.461,-8.4569,-8.4486,-8.4216,-8.3904,-8.3647,-8.3655,-8.377,-8.7971,-8.7971,-8.8388,-8.835,0.0,-8.7516,-8.6762,-8.5734,-8.3201,-8.158,-8.072,-8.0691,-8.0691,-8.0728,-8.0837,-8.0933,-8.094,-8.147,-8.1585,-8.1432,-8.2605,-8.347,-8.4101,-8.4827,-8.5951,-8.7297,-8.7279,-8.7497,-8.8084,-8.7638,-8.6598,-8.5,-8.4555,-8.3552,-8.1954,-8.188,-8.1323,-8.0162,-8.1768,-8.2957,-8.3663,-8.214,-8.11,-8.0691,-7.9911,0.0,0.0,0.0,0.0,0.0,0.0,0.0,0.0,-7.6297,-7.6037,-7.6419,-7.5294,-7.4561,-7.4635,-7.5368,-7.5665,-7.5267,-7.6371,-7.6159,-7.4153,-7.6223,-7.8313,-7.9976,-8.0097,-8.058,-8.1768,-8.1583,-8.1657,-8.2363,-8.2177,-8.2214,-8.2957,-8.3106,-8.344,-8.4146,-8.4369,-8.4852,-8.6041,-8.5967,-8.6148,-8.6856,-8.6538,-8.6096,-8.5844,-8.5057,-8.455,-8.462,-8.461,-8.461,-8.4646,-8.4895,-8.5324,-8.5216,-8.5216,-8.5216,-8.5216,-8.486,-8.461,-8.461,-8.461,-8.461,-8.461,-8.461,-8.461,-8.4569,-8.42,-8.3803,-8.3476,-8.3311,-8.3305,-8.9563,-9.0055,-9.0169,-9.0245,-9.0207,-8.9525,-8.897,-8.8291,-8.4757,0.0,0.0,-8.1137,-8.1137,-8.1137,-8.1137,-8.1137,-8.1174,-8.188,-8.2008,-8.1796,-8.3788,-8.4489,-8.416,-8.5509,-8.6412,-8.6789,-8.7037,-8.73,-8.7638,-8.7081,-8.6709,-8.6524,-8.5929,-8.5521,-8.5409,-8.5372,-8.4332,-8.2326,-8.2066,-8.2957,-8.4852,-8.3886,-8.2994,-8.2326,-8.0988,-7.9948,-7.9279,-7.8676,-7.8304,-7.8304,-7.8165,-7.7979,-7.7784,-7.7719,-7.731,-7.6446,-7.6307,-7.6307,-7.6344,-7.8351,-7.9651,-7.9762,-8.1806,-8.136,-7.7422,-8.0357,-8.2474,-8.2652,-8.3217,-8.3589,-8.3589,-8.3032,-8.3143,-8.448,-8.3997,-8.4146,-8.5372,-8.5595,-8.5521,-8.5743,-8.5781,-8.6115,-8.6895,-8.7007,-8.7267,-8.7836,-8.7591,-8.7093,-8.6427,-8.5652,-8.5028,-8.4692,-8.461,-8.461,-8.461,-8.4824,-8.5038,-8.5359,-8.5145,-8.5038,-8.5324,-8.5074,-8.4646,-8.461,-8.461,-8.461,-8.461,-8.461,-8.461,-8.461,-8.42,-8.3776,-8.3297,-8.2806,-8.2628,-9.142,-9.0965,-9.1647,-9.195,-9.1913,-9.1837,-9.0461,-8.8116,-8.5921,-8.4189,-8.2846,-8.2846,-8.2846,-8.2846,-8.2846,-8.2846,-8.2846,-8.2994,-8.3373,-8.3945,-8.4316,-8.4521,-8.4702,-8.5414,-8.5488,-8.5239,-8.6323,-8.6536,-8.6078,-8.6524,-8.6449,-8.5855,-8.5632,-8.5298,-8.4629,-8.4555,-8.4035,-8.3032,-8.2326,-8.214,-8.2437,-8.032,-7.9094,-7.8982,-7.8833,-7.8573,-7.849,-7.8388,-7.8304,-7.8304,-7.7672,-7.8128,-8.0059,-8.0245,-8.1025,-8.2809,-8.2994,-8.3032,-8.2994,-8.3997,-8.4852,-8.5558,-8.6635,-8.5781,-8.2549,-8.3292,-8.4332,-8.5,-8.5149,-8.5261,-8.5261,-8.5075,-8.5075,-8.5372,-8.5335,-8.5372,-8.5669,-8.5706,-8.5929,-8.6561,-8.6635,-8.6932,-8.7638,-8.7861,-8.7898,-8.8047,-8.7889,-8.753,-8.6499,-8.5381,-8.4773,-8.461,-8.461,-8.461,-8.4646,-8.5216,-8.5288,-8.4824,-8.5252,-8.5288,-8.4895,-8.4753,-8.461,-8.461,-8.461,-8.461,-8.461,-8.461,-8.461,-8.4569,-8.4278,-8.3889,-8.3402,-8.2911,-8.2477,-9.1986,-9.2015,-9.2239,-9.2292,-9.2292,-9.2292,-9.0966,-8.882,-8.7738,-8.5844,-8.3516,-8.3268,-8.318,-8.318,-8.318,-8.318,-8.318,-8.318,-8.3403,-8.3775,-8.4183,-8.4471,-8.4657,-8.5281,-8.5473,-8.5286,-8.5844,-8.6189,-8.6264,-8.6635,-8.6858,-8.6932,-8.6932,-8.6784,-8.6412,-8.6375,-8.5966,-8.5112,-8.3477,-8.2623,-8.2623,-8.1545,-8.0951,-8.0951,-8.0951,-8.0951,-8.0951,-8.0951,-8.1174,-8.1583,-8.1248,-8.1954,-8.3849,-8.3997,-8.4518,-8.5632,-8.6152,-8.6004,-8.5112,-8.5372,-8.5966,-8.6709,-8.6747,-8.6338,-8.5261,-8.5483,-8.5855,-8.6189,-8.5855,-8.5595,-8.5595,-8.5595,-8.5781,-8.6226,-8.6264,-8.6449,-8.6858,-8.6932,-8.7118,-8.7452,-8.749,-8.7638,-8.8047,-8.8084,-8.8084,-8.8084,-8.7858,-8.7398,-8.6815,-8.584,-8.498,-8.4692,-8.461,-8.461,-8.4646,-8.4895,-8.4967,-8.4646,-8.4895,-8.4967,-8.4646,-8.461,-8.4646,-8.461,-8.461,-8.461,-8.4646,-8.461,-8.461,-8.4604,-8.4878,-8.4634,-8.4018,-8.3531,-8.3235,-9.257,-9.3069,-9.2827,-9.2746,-9.286,-9.2671,-9.1622,-9.003,-8.9334,-8.7304,-8.4695,-8.3988,-8.3737,-8.3737,-8.3737,-8.3737,-8.3737,-8.3737,-8.3737,-8.3812,-8.4369,-8.4666,-8.474,-8.5335,-8.5595,-8.5669,-8.5966,-8.6486,-8.7081,-8.7452,-8.7973,-8.8567,-8.8641,-8.8567,-8.8381,-8.8344,-8.7935,-8.7044,-8.5223,-8.4035,-8.3477,-8.3626,-8.3663,-8.3477,-8.3626,-8.3737,-8.3737,-8.3737,-8.3997,-8.4629,-8.4666,-8.5223,-8.6412,-8.6709,-8.6858,-8.7118,-8.7712,-8.7638,-8.6598,-8.6412,-8.6784,-8.7564,-8.7081,-8.6969,-8.7527,-8.7452,-8.7267,-8.7044,-8.6561,-8.6189,-8.6226,-8.6226,-8.6412,-8.7007,-8.7081,-8.7341,-8.7935,-8.8084,-8.8195,-8.8307,-8.8233,-8.8121,-8.827,-8.8195,-8.8084,-8.8021,-8.7697,-8.7398,-8.7127,-8.632,-8.5495,-8.498,-8.4692,-8.461,-8.461,-8.461,-8.4646,-8.461,-8.4824,-8.4967,-8.4967,-8.5002,-8.5145,-8.5252,-8.5181,-8.5252,-8.5181,-8.5181,-8.5216,-8.5324,-8.5674,-8.5664,-8.4792,-8.4216,-8.3963,-9.4101,-9.3968,-9.39,-9.4206,-9.4402,-9.377,-9.2898,-9.1774,-8.9905,-8.8418,-8.7117,-8.5938,-8.5335,-8.5372,-8.5335,-8.5298,-8.5298,-8.5372,-8.5335,-8.5298,-8.5446,-8.5483,-8.5446,-8.5558,-8.5595,-8.5781,-8.7044,-8.7712,-8.7973,-8.9384,-9.0164,-9.0276,-9.0276,-8.9942,-8.931,-8.9198,-8.879,-8.801,-8.775,-8.6561,-8.448,-8.5,-8.5,-8.4332,-8.5,-8.5372,-8.5335,-8.5372,-8.5409,-8.5483,-8.5483,-8.5558,-8.5818,-8.6412,-8.7155,-8.7935,-8.8084,-8.8307,-8.8827,-8.8976,-8.9198,-9.0053,-8.9867,-8.9793,-8.9904,-8.9384,-8.8716,-8.8084,-8.7861,-8.775,-8.7861,-8.7787,-8.775,-8.7824,-8.7898,-8.801,-8.8084,-8.8084,-8.8381,-8.9124,-8.8604,-8.8344,-8.8901,-8.853,-8.8121,-8.8084,-8.8021,-8.7762,-8.7295,-8.6531,-8.5881,-8.5423,-8.498,-8.4651,-8.461,-8.461,-8.4646,-8.4681,-8.5252,-8.5609,-8.5752,-8.6144,-8.6644,-8.6251,-8.6501,-8.6465,-8.6537,-8.668,-8.6573,-8.6352,-8.6488,-8.6446,-8.5566,-8.4772,-8.4288,-9.4484,-9.5019,-9.4379,-9.4382,-9.4705,-9.4414,-9.3542,-9.2203,-9.0997,-8.9733,-8.8448,-8.7496,-8.6561,-8.5632,-8.5595,-8.5595,-8.5595,-8.5595,-8.5595,-8.5595,-8.5595,-8.5595,-8.5595,-8.5595,-8.5595,-8.5669,-8.6784,-8.7601,-8.8381,-9.0202,-9.1465,-9.191,-9.1985,-9.1799,-9.1465,-9.0982,-9.0536,-9.0239,-8.9756,-8.8753,-8.749,-8.7155,-8.6895,-8.6672,-8.6895,-8.6784,-8.6375,-8.6301,-8.6301,-8.6301,-8.6301,-8.6784,-8.7712,-8.8084,-8.8641,-8.9421,-8.9533,-8.9459,-8.931,-8.9273,-8.9236,-8.9087,-8.905,-8.9087,-8.9087,-8.8753,-8.8418,-8.8158,-8.8084,-8.8084,-8.8084,-8.8084,-8.8084,-8.8084,-8.8084,-8.8121,-8.8084,-8.853,-8.8976,-8.9273,-8.9459,-8.9384,-8.9198,-8.8604,-8.8158,-8.8084,-8.8084,-8.799,-8.766,-8.6552,-8.5663,-8.5299,-8.4898,-8.4656,-8.461,-8.461,-8.4824,-8.5288,-8.5966,-8.643,-8.6501,-8.6644,-8.6894,-8.6929,-8.7001,-8.7001,-8.6822,-8.6894,-8.6894,-8.6952,-8.6824,-8.6672,-8.6801,-8.6059,-8.5511,-9.4516,-9.5246,-9.4563,-9.4361,-9.4478,-9.4452,-9.377,-9.2582,-9.1682,-9.0531,-8.9311,-8.8556,-8.7508,-8.6375,-8.6264,-8.6264,-8.6264,-8.6301,-8.6264,-8.6301,-8.6301,-8.6264,-8.6301,-8.6264,-8.6375,-8.6709,-8.749,-8.8307,-8.9198,-9.0722,-9.2022,-9.2542,-9.2431,-9.2431,-9.2542,-9.1799,-9.1353,-9.1316,-9.0759,-9.0313,-8.9867,-8.9384,-8.8864,-8.8493,-8.8641,-8.8455,-8.7861,-8.7601,-8.749,-8.749,-8.7267,-8.7712,-8.8864,-8.8976,-8.9236,-8.9793,-9.0053,-8.9793,-8.9013,-8.8976,-8.8827,-8.8493,-8.8418,-8.853,-8.8678,-8.8753,-8.8641,-8.8455,-8.8418,-8.8381,-8.8121,-8.8084,-8.8084,-8.8084,-8.8233,-8.8418,-8.8493,-8.9124,-8.9719,-8.9942,-9.0239,-9.0202,-8.9384,-8.8604,-8.8084,-8.8084,-8.8084,-8.7935,-8.7656,-8.6417,-8.5401,-8.5188,-8.4665,-8.4358,-8.4544,-8.5145,-8.5466,-8.5966,-8.6715,-8.7215,-8.7286,-8.7358,-8.7572,-8.8,-8.7679,-8.7643,-8.7857,-8.7714,-8.7536,-8.7472,-8.7391,-8.7266,-8.7734,-8.7122,-8.6657,-9.4359,-9.4574,-9.4686,-9.4351,-9.3656,-9.3732,-9.3618,-9.3214,-9.1605,-9.0508,-8.993,-8.8949,-8.8286,-8.7898,-8.7824,-8.7935,-8.7935,-8.7861,-8.7824,-8.7824,-8.7861,-8.7935,-8.7973,-8.801,-8.8307,-8.8753,-8.957,-9.0462,-9.1316,-9.1576,-9.1725,-9.1725,-9.1093,-9.1056,-9.1539,-9.0945,-9.0573,-9.0685,-9.0499,-9.0796,-9.139,-9.1465,-9.0647,-8.9533,-8.9979,-9.035,-9.0164,-8.957,-8.9161,-8.9161,-8.8381,-8.8084,-8.8158,-8.8195,-8.8233,-8.8344,-8.8938,-8.9013,-8.8307,-8.827,-8.853,-8.9087,-8.9198,-8.9533,-9.0053,-9.0164,-8.983,-8.9273,-8.9161,-8.8864,-8.8195,-8.8084,-8.8084,-8.8121,-8.879,-8.9124,-8.9198,-8.9904,-9.0759,-9.1167,-9.087,-9.0239,-8.9421,-8.8604,-8.8158,-8.8084,-8.8084,-8.7824,-8.7093,-8.6348,-8.5744,-8.4969,-8.4244,-8.3567,-8.4482,-8.5431,-8.6323,-8.6894,-8.7286,-8.8036,-8.8321,-8.8571,-8.8856,-8.907,-8.8892,-8.8856,-8.9106,-8.9106,-8.8963,-8.8754,-8.8384,-8.8381,-8.8245,-8.762,-8.7082,-9.355,-9.3749,-9.394,-9.4149,-9.4376,-9.4376,-9.377,-9.2721,-9.1858,-9.0658,-8.948,-8.8791,-8.8354,-8.8084,-8.8084,-8.8084,-8.8084,-8.8084,-8.8084,-8.8084,-8.8084,-8.8084,-8.8158,-8.8604,-8.8678,-8.8716,-8.9867,-9.0647,-9.087,-9.0945,-9.0945,-9.0907,-9.0647,-9.0647,-9.0759,-9.0127,-9.0202,-9.1056,-9.0313,-9.0387,-9.1465,-9.1205,-9.087,-9.0907,-9.165,-9.1836,-9.1279,-9.0499,-8.983,-8.931,-8.853,-8.8084,-8.8084,-8.8084,-8.8084,-8.8121,-8.8381,-8.8381,-8.8195,-8.8567,-8.8976,-8.9273,-8.9793,-9.0164,-9.0424,-9.0462,-9.0164,-8.9496,-8.931,-8.8938,-8.8307,-8.8084,-8.8084,-8.8195,-8.879,-8.9347,-8.9533,-9.0424,-9.139,-9.1502,-9.0982,-9.035,-8.9756,-8.8901,-8.8121,-8.8084,-8.8084,-8.7675,-8.6982,-8.6343,-8.5594,-8.4713,-8.4498,-8.4613,-8.4442,-8.5431,-8.6358,-8.7108,-8.775,-8.8535,-8.8999,-8.8999,-8.9178,-8.9178,-8.9285,-8.9392,-8.9356,-8.9427,-8.9463,-8.9447,-8.9068,-8.8996,-8.8506,-8.7983,-8.7475,-9.3119,-9.2926,-9.3206,-9.344,-9.3618,-9.3883,-9.3201,-9.1963,-9.1709,-9.0653,-8.917,-8.8766,-8.8473,-8.8146,-8.8084,-8.8084,-8.8084,-8.8084,-8.8084,-8.8084,-8.8084,-8.8233,-8.8493,-8.879,-8.8901,-8.9013,-8.9942,-9.0387,-9.0127,-9.0127,-9.009,-9.009,-8.9867,-8.9867,-8.9942,-8.931,-8.9496,-9.0164,-8.9459,-8.957,-9.0685,-9.0424,-9.0499,-9.1242,-9.191,-9.2208,-9.2059,-9.0833,-9.0016,-8.9607,-8.8678,-8.8084,-8.8084,-8.8084,-8.8084,-8.8084,-8.8084,-8.8233,-8.8493,-8.9013,-8.9496,-9.0053,-9.0536,-9.0982,-9.1242,-9.1056,-9.0499,-8.9867,-8.9384,-8.8976,-8.8381,-8.8307,-8.8455,-8.8567,-8.9198,-8.9793,-9.009,-9.1056,-9.1316,-9.0796,-8.9793,-8.9347,-8.9198,-8.8307,-8.775,-8.7675,-8.7675,-8.7341,-8.6536,-8.5899,-8.5227,-8.4238,-8.4535,-8.4685,-8.4886,-8.5609,-8.6644,-8.7429,-8.8178,-8.8963,-8.932,-8.932,-8.932,-8.932,-8.9392,-8.9463,-8.957,-8.9677,-8.9784,-8.9883,-9.0045,-9.0081,-8.9321,-8.8416,-8.8146,-9.3077,-9.2219,-9.2558,-9.2275,-9.1722,-9.2304,-9.1938,-9.1268,-9.113,-9.037,-8.9095,-8.8964,-8.8621,-8.8177,-8.8084,-8.8084,-8.8084,-8.8084,-8.8084,-8.8084,-8.8158,-8.8567,-8.9161,-8.8716,-8.9087,-9.009,-9.035,-9.0016,-8.931,-8.931,-8.9273,-8.9161,-8.8641,-8.8716,-8.9273,-8.8604,-8.8195,-8.8418,-8.8344,-8.8604,-8.9198,-8.9347,-8.9681,-9.0387,-9.0499,-9.1167,-9.2653,-9.0573,-8.9681,-9.009,-8.8901,-8.8121,-8.8084,-8.8084,-8.8084,-8.8195,-8.8158,-8.853,-8.9198,-8.9421,-9.0202,-9.113,-9.165,-9.2022,-9.2431,-9.2096,-9.1353,-9.0424,-8.9756,-8.905,-8.8418,-8.8641,-8.905,-8.931,-8.9793,-9.061,-9.1167,-9.1539,-9.1056,-8.957,-8.8158,-8.6969,-8.6895,-8.6895,-8.6821,-8.6821,-8.6784,-8.6561,-8.5936,-8.5519,-8.4746,-8.4238,-8.45,-8.4915,-8.5303,-8.5859,-8.6894,-8.7857,-8.8607,-8.932,-8.932,-8.932,-8.932,-8.932,-8.9641,-8.9784,-9.0391,-9.0498,-9.0712,-9.0846,-9.1016,-9.0971,-9.0302,-8.9573,-8.9073,-9.2682,-9.2328,-9.2256,-9.2291,-9.2284,-9.2527,-9.2067,-9.1141,-9.1079,-9.032,-8.9187,-8.8992,-8.865,-8.8208,-8.8084,-8.8084,-8.8084,-8.8084,-8.8084,-8.8195,-8.8641,-8.9013,-8.9273,-8.9607,-8.9719,-8.957,-8.9087,-8.8716,-8.853,-8.8493,-8.8455,-8.8381,-8.8233,-8.8233,-8.8455,-8.8233,-8.8344,-8.879,-8.8381,-8.8493,-8.9161,-8.8753,-8.8864,-8.9496,-8.9161,-8.9607,-9.1056,-8.9979,-8.9459,-8.9681,-8.8678,-8.8084,-8.8084,-8.8084,-8.8344,-8.8827,-8.8938,-8.9273,-9.0053,-9.061,-9.1093,-9.1725,-9.2245,-9.2653,-9.2951,-9.2691,-9.1873,-9.0759,-9.0239,-8.9607,-8.8493,-8.8307,-8.853,-8.8455,-8.9644,-9.0313,-9.009,-9.0016,-8.957,-8.8604,-8.749,-8.6858,-8.6672,-8.6412,-8.6004,-8.6041,-8.6004,-8.5781,-8.5676,-8.5751,-8.5738,-8.5001,-8.5228,-8.514,-8.5195,-8.5716,-8.6822,-8.7821,-8.8714,-8.9499,-8.9499,-8.9641,-8.9606,-8.9641,-8.9927,-9.0355,-9.0997,-9.1354,-9.1533,-9.1604,-9.1595,-9.1444,-9.1185,-9.0672,-9.0023,-9.2123,-9.2006,-9.1792,-9.1737,-9.1893,-9.1871,-9.14,-9.0686,-9.0624,-9.0032,-8.9249,-8.9157,-8.8823,-8.8323,-8.8232,-8.8208,-8.8115,-8.8084,-8.8084,-8.8233,-8.8938,-8.9273,-8.9347,-8.9793,-8.9644,-8.8901,-8.8344,-8.8084,-8.8084,-8.8084,-8.8084,-8.8084,-8.8084,-8.8121,-8.8084,-8.8121,-8.8381,-8.8716,-8.8344,-8.8307,-8.8641,-8.8344,-8.8344,-8.8716,-8.8344,-8.8641,-8.9496,-8.9087,-8.9013,-8.9087,-8.853,-8.8121,-8.8084,-8.8121,-8.8455,-8.9087,-8.9347,-8.9756,-9.0796,-9.1353,-9.1873,-9.2208,-9.2691,-9.2802,-9.2542,-9.2319,-9.1428,-9.035,-8.9719,-8.9198,-8.8344,-8.8418,-8.8381,-8.8121,-8.9236,-8.9607,-8.8976,-8.827,-8.7564,-8.6709,-8.5855,-8.5706,-8.5669,-8.5558,-8.5298,-8.5483,-8.5335,-8.5372,-8.5429,-8.5556,-8.5334,-8.5188,-8.5185,-8.5006,-8.4809,-8.5609,-8.6715,-8.7714,-8.8678,-8.9463,-8.9927,-9.0355,-9.0534,-9.0569,-9.0783,-9.1212,-9.1783,-9.1997,-9.2175,-9.2175,-9.2282,-9.2309,-9.2183,-9.1245,-9.0594,-9.1546,-9.1264,-9.1248,-9.0989,-9.0572,-9.0508,-9.0327,-8.9963,-8.9866,-8.9692,-8.9423,-8.9333,-8.9037,-8.8583,-8.8473,-8.8323,-8.8146,-8.8084,-8.8084,-8.8307,-8.8901,-8.9273,-8.9347,-8.9421,-8.9013,-8.8307,-8.8121,-8.8084,-8.8084,-8.8084,-8.8084,-8.8084,-8.8084,-8.8084,-8.8084,-8.8084,-8.8121,-8.8195,-8.8121,-8.8121,-8.8158,-8.8121,-8.8121,-8.8158,-8.8121,-8.8158,-8.827,-8.827,-8.8493,-8.9013,-8.8455,-8.8084,-8.8084,-8.8121,-8.8604,-8.9384,-8.9421,-9.035,-9.139,-9.1873,-9.2133,-9.2802,-9.2876,-9.2616,-9.1948,-9.1353,-9.061,-8.957,-8.8864,-8.8344,-8.8307,-8.8604,-8.8641,-8.8195,-8.8567,-8.8604,-8.7861,-8.6486,-8.5595,-8.4666,-8.3775,-8.3552,-8.448,-8.4443,-8.4778,-8.4963,-8.4703,-8.474,-8.525,-8.5212,-8.4703,-8.4828,-8.5287,-8.5175,-8.5126,-8.5859,-8.7001,-8.8285,-8.9178,-8.9963,-9.0462,-9.0855,-9.139,-9.1497,-9.164,-9.2104,-9.2496,-9.2746,-9.3032,-9.321,-9.3353,-9.3424,-9.288,-9.1905,-9.1235,-9.1634,-9.1591,-9.1591,-9.1329,-9.0949,-9.0743,-9.0461,-9.0152,-8.9911,-8.9642,-8.9438,-8.9386,-8.9064,-8.8525,-8.8533,-8.8354,-8.8146,-8.8084,-8.8084,-8.8233,-8.8938,-8.9273,-8.9273,-8.9273,-8.8864,-8.8195,-8.8084,-8.8084,-8.8084,-8.8084,-8.8084,-8.8084,-8.8084,-8.8084,-8.8084,-8.8084,-8.8084,-8.8084,-8.8084,-8.8084,-8.8084,-8.8084,-8.8084,-8.8084,-8.8084,-8.8084,-8.8084,-8.8084,-8.8158,-8.8344,-8.8233,-8.8084,-8.8195,-8.8641,-8.931,-9.009,-9.0722,-9.1465,-9.2356,-9.2579,-9.2728,-9.2951,-9.2914,-9.2616,-9.1799,-9.1502,-9.0685,-8.9681,-8.905,-8.8678,-8.827,-8.827,-8.801,-8.7341,-8.7378,-8.6969,-8.5781,-8.5,-8.4406,-8.37,-8.3812,-8.3849,-8.3812,-8.3997,-8.4257,-8.4035,-8.3923,-8.4109,-8.496,-8.5,-8.4556,-8.5337,-8.5766,-8.5618,-8.5673,-8.6371,-8.7393,-8.8821,-8.9891,-9.0819,-9.1069,-9.1247,-9.1818,-9.2282,-9.2389,-9.2782,-9.3246,-9.3638,-9.3924,-9.3959,-9.3888,-9.37,-9.3191,-9.248,-9.1873,-9.1716,-9.1716,-9.1716,-9.1507,-9.1176,-9.0932,-9.0584,-9.0247,-8.9958,-8.9716,-8.9566,-8.9541,-8.9254,-8.8728,-8.8737,-8.8473,-8.8146,-8.8084,-8.8084,-8.8158,-8.8567,-8.8938,-8.9124,-8.9013,-8.853,-8.8158,-8.8084,-8.8084,-8.8084,-8.8084,-8.8084,-8.8084,-8.8084,-8.8084,-8.8084,-8.8084,-8.8084,-8.8084,-8.8084,-8.8084,-8.8084,-8.8084,-8.8084,-8.8084,-8.8084,-8.8084,-8.8121,-8.8418,-8.8455,-8.8195,-8.8121,-8.8233,-8.8604,-8.9013,-8.983,-9.087,-9.1465,-9.2059,-9.2691,-9.2691,-9.2653,-9.2802,-9.2728,-9.2022,-9.139,-9.1167,-9.0536,-8.905,-8.8827,-8.853,-8.8158,-8.7787,-8.7192,-8.6449,-8.6004,-8.5409,-8.4443,-8.4146,-8.3737,-8.344,-8.3552,-8.3923,-8.3626,-8.3849,-8.3812,-8.3737,-8.3514,-8.4257,-8.5126,-8.4788,-8.4843,-8.5663,-8.5761,-8.5414,-8.5989,-8.6757,-8.7964,-8.9356,-9.089,-9.1783,-9.1997,-9.2068,-9.2532,-9.3103,-9.321,-9.3388,-9.3745,-9.3995,-9.3959,-9.3959,-9.3995,-9.373,-9.3262,-9.2651,-9.216,-9.1716,-9.1716,-9.1716,-9.1522,-9.1248,-9.0951,-9.0625,-9.0351,-8.9982,-8.979,-8.9766,-8.9766,-8.9438,-8.8992,-8.8936,-8.865,-8.8115,-8.8084,-8.8084,-8.8121,-8.8233,-8.8493,-8.8938,-8.8493,-8.8195,-8.8084,-8.8084,-8.8084,-8.8084,-8.8084,-8.8084,-8.8084,-8.8084,-8.8084,-8.8084,-8.8084,-8.8084,-8.8084,-8.8084,-8.8084,-8.8084,-8.8084,-8.8084,-8.8084,-8.8084,-8.8195,-8.8418,-8.8827,-8.9013,-8.8418,-8.8344,-8.8753,-8.931,-8.9347,-9.0202,-9.1353,-9.1836,-9.2282,-9.2728,-9.2393,-9.2245,-9.2728,-9.2208,-9.1353,-9.0759,-9.0499,-8.9756,-8.8381,-8.8121,-8.8158,-8.7973,-8.7304,-8.6486,-8.5743,-8.4963,-8.4332,-8.4146,-8.3626,-8.3217,-8.3329,-8.3366,-8.37,-8.3923,-8.3849,-8.3514,-8.3663,-8.3626,-8.4369,-8.4978,-8.4919,-8.5284,-8.6027,-8.5757,-8.509,-8.6037,-8.7143,-8.8535,-8.9998,-9.1783,-9.2889,-9.321,-9.3388,-9.3638,-9.3852,-9.3674,-9.3674,-9.3852,-9.3995,-9.3995,-9.3949,-9.3868,-9.3544,-9.3167,-9.2505,-9.191,-9.1716,-9.1716,-9.1716,-9.1649,-9.1492,-9.1041,-9.0762,-9.0643,-9.0075,-8.979,-8.979,-8.979,-8.9489,-8.8992,-8.8964,-8.8679,-8.8146,-8.8084,-8.8084,-8.8084,-8.8084,-8.8158,-8.8381,-8.8158,-8.8121,-8.8084,-8.8084,-8.8084,-8.8084,-8.8084,-8.8084,-8.8084,-8.8084,-8.8084,-8.8084,-8.8084,-8.8084,-8.8084,-8.8084,-8.8084,-8.8084,-8.8084,-8.8084,-8.8084,-8.8121,-8.8455,-8.8938,-8.9198,-8.9496,-8.983,-8.9979,-8.9904,-8.9756,-9.0499,-9.1242,-9.1725,-9.2356,-9.2765,-9.2876,-9.2765,-9.2765,-9.2765,-9.2096,-9.1353,-9.0573,-8.9904,-8.9161,-8.8307,-8.8084,-8.8084,-8.7973,-8.6747,-8.6004,-8.5446,-8.4443,-8.3552,-8.344,-8.3292,-8.344,-8.3886,-8.4035,-8.4183,-8.4332,-8.4183,-8.3886,-8.3663,-8.3997,-8.4555,-8.4822,-8.504,-8.5579,-8.6246,-8.5685,-8.532,-8.6787,-8.8143,-8.9856,-9.0962,-9.2532,-9.3495,-9.3852,-9.3995,-9.3995,-9.3995,-9.3959,-9.3995,-9.3995,-9.3995,-9.3995,-9.3868,-9.3684,-9.3262,-9.2797,-9.2259,-9.1708,-9.1716,-9.1716,-9.1716,-9.1716,-9.1605,-9.1077,-9.08,-9.0645,-9.0083,-8.979,-8.979,-8.979,-8.9489,-8.9019,-8.8964,-8.865,-8.8208,-8.8084,-8.8084,-8.8084,-8.8084,-8.8084,-8.8084,-8.8084,-8.8084,-8.8084,-8.8084,-8.8084,-8.8084,-8.8084,-8.8084,-8.8084,-8.8084,-8.8084,-8.8084,-8.8084,-8.8084,-8.8084,-8.8084,-8.8084,-8.8084,-8.8084,-8.8084,-8.8233,-8.8418,-8.8901,-8.9236,-9.0127,-9.0387,-9.0685,-9.1205,-9.1279,-9.0647,-9.1205,-9.1836,-9.2356,-9.2653,-9.2988,-9.2951,-9.2616,-9.2356,-9.2393,-9.165,-9.0796,-9.0127,-8.9496,-8.8938,-8.8344,-8.8084,-8.8084,-8.801,-8.7044,-8.6152,-8.5446,-8.4518,-8.3663,-8.3292,-8.3217,-8.3514,-8.4072,-8.3997,-8.4109,-8.4183,-8.4146,-8.3812,-8.3403,-8.4072,-8.4666,-8.5287,-8.5484,-8.5756,-8.6028,-8.554,-8.5773,-8.7449,-8.9249,-9.1354,-9.2354,-9.3281,-9.3781,-9.3924,-9.3995,-9.3995,-9.3995,-9.3995,-9.3995,-9.3995,-9.3995,-9.3995,-9.3868,-9.3591,-9.3037,-9.2505,-9.201,-9.1504,-9.1716,-9.1716,-9.1716,-9.1716,-9.1605,-9.1059,-9.08,-9.0722,-9.0083,-8.979,-8.979,-8.979,-8.9527,-8.9102,-8.8992,-8.865,-8.8239,-8.8084,-8.8084,-8.8084,-8.8084,-8.8084,-8.8084,-8.8084,-8.8084,-8.8084,-8.8084,-8.8084,-8.8084,-8.8084,-8.8084,-8.8084,-8.8084,-8.8084,-8.8084,-8.8084,-8.8084,-8.8084,-8.8084,-8.8084,-8.8084,-8.8084,-8.8084,-8.8233,-8.879,-8.931,-8.9793,-9.0685,-9.139,-9.0982,-9.2245,-9.2431,-9.2133,-9.1948,-9.2171,-9.2951,-9.2951,-9.2988,-9.2914,-9.2468,-9.2059,-9.1873,-9.1019,-9.0313,-8.9719,-8.9236,-8.8716,-8.8455,-8.8233,-8.8381,-8.8233,-8.775,-8.7007,-8.6264,-8.5372,-8.4295,-8.37,-8.3403,-8.3589,-8.4109,-8.3856,-8.3641,-8.3819,-8.3856,-8.3477,-8.3329,-8.4072,-8.4747,-8.5405,-8.5936,-8.6255,-8.6064,-8.5616,-8.6424,-8.8056,-9.0141,-9.2282,-9.3103,-9.3924,-9.3959,-9.3995,-9.3995,-9.3995,-9.3995,-9.3995,-9.3995,-9.3995,-9.3995,-9.3949,-9.3868,-9.3404,-9.2748,-9.2259,-9.186,-9.135,-9.1716,-9.1716,-9.1716,-9.1716,-9.1605,-9.1059,-9.08,-9.0703,-9.0083,-8.979,-8.979,-8.9766,-8.9527,-8.9129,-8.8992,-8.865,-8.8208,-8.8084,-8.8084,-8.8084,-8.8084,-8.8084,-8.8084,-8.8084,-8.8084,-8.8084,-8.8084,-8.8084,-8.8084,-8.8084,-8.8084,-8.8084,-8.8084,-8.8084,-8.8084,-8.8084,-8.8084,-8.8084,-8.8084,-8.8084,-8.8084,-8.8084,-8.8158,-8.827,-8.9013,-8.9681,-9.035,-9.1205,-9.1948,-9.2505,-9.2839,-9.2876,-9.2728,-9.2691,-9.2802,-9.2914,-9.2988,-9.2988,-9.2914,-9.2839,-9.2765,-9.2468,-9.1353,-9.0536,-8.9979,-8.9124,-8.8493,-8.8455,-8.8678,-8.9013,-8.9087,-8.8641,-8.8753,-8.8121,-8.6709,-8.5298,-8.4889,-8.422,-8.3589,-8.4005,-8.3574,-8.3254,-8.3588,-8.3692,-8.3425,-8.3641,-8.4518,-8.5149,-8.572,-8.6301,-8.6728,-8.6354,-8.5803,-8.7128,-8.8692,-9.0935,-9.2924,-9.3424,-9.3959,-9.3959,-9.3995,-9.3995,-9.3995,-9.3995,-9.3995,-9.3995,-9.3995,-9.3995,-9.373,-9.3544,-9.2989,-9.2358,-9.196,-9.1555,-9.1196,-9.1716,-9.1716,-9.1716,-9.1716,-9.1591,-9.1059,-9.08,-9.0722,-9.0106,-8.979,-8.979,-8.9766,-8.9591,-8.9265,-8.9047,-8.865,-8.8239,-8.8084,-8.8084,-8.8084,-8.8084,-8.8084,-8.8084,-8.8084,-8.8084,-8.8084,-8.8084,-8.8084,-8.8084,-8.8084,-8.8084,-8.8084,-8.8084,-8.8084,-8.8084,-8.8084,-8.8084,-8.8084,-8.8084,-8.8084,-8.8084,-8.8084,-8.8233,-8.8827,-8.9496,-9.0313,-9.1093,-9.191,-9.2542,-9.2876,-9.2988,-9.2988,-9.2988,-9.2988,-9.2988,-9.2988,-9.2988,-9.2988,-9.2988,-9.2951,-9.2802,-9.2208,-9.1167,-9.035,-8.9756,-8.8901,-8.8307,-8.8604,-8.8455,-8.8864,-8.9161,-8.9013,-8.8716,-8.8418,-8.723,-8.6301,-8.5595,-8.4889,-8.4376,-8.3908,-8.3298,-8.32,-8.3695,-8.3682,-8.3409,-8.3915,-8.4859,-8.5521,-8.6041,-8.6688,-8.7261,-8.7012,-8.674,-8.8121,-8.9693,-9.1649,-9.321,-9.371,-9.3995,-9.3995,-9.3995,-9.3995,-9.3995,-9.3995,-9.3995,-9.3995,-9.3868,-9.3776,-9.3497,-9.3167,-9.2554,-9.196,-9.1606,-9.1247,-9.097,-9.1716,-9.1716,-9.1716,-9.1716,-9.1605,-9.1059,-9.08,-9.0645,-9.0083,-8.979,-8.979,-8.9766,-8.9679,-8.9371,-8.9019,-8.8592,-8.8115,-8.8084,-8.8084,-8.8084,-8.8084,-8.8084,-8.8084,-8.8084,-8.8084,-8.8084,-8.8084,-8.8084,-8.8084,-8.8084,-8.8084,-8.8084,-8.8084,-8.8084,-8.8084,-8.8084,-8.8084,-8.8084,-8.8084,-8.8084,-8.8084,-8.8121,-8.8381,-8.9124,-8.9979,-9.0759,-9.1279,-9.2356,-9.2802,-9.2988,-9.2988,-9.2988,-9.2988,-9.2988,-9.2988,-9.2988,-9.2988,-9.2988,-9.2988,-9.2988,-9.2765,-9.2282,-9.1093,-9.0276,-8.957,-8.8976,-8.8381,-8.8976,-8.8864,-8.8976,-8.9719,-8.9347,-8.9198,-8.9124,-8.8493,-8.7304,-8.6672,-8.5794,-8.4589,-8.3935,-8.317,-8.3109,-8.3528,-8.3485,-8.3176,-8.3996,-8.491,-8.5818,-8.6412,-8.7304,-8.7789,-8.7742,-8.7995,-8.924,-9.0712,-9.2327,-9.3424,-9.3852,-9.3995,-9.3995,-9.3995,-9.3995,-9.3995,-9.3995,-9.3995,-9.3995,-9.3776,-9.3497,-9.312,-9.2651,-9.206,-9.1606,-9.1247,-9.1092,-9.0865,-9.1716,-9.1716,-9.1716,-9.1716,-9.1605,-9.1059,-9.0781,-9.0684,-9.0106,-8.979,-8.979,-8.9766,-8.9642,-8.9307,-8.8814,-8.8414,-8.8177,-8.8084,-8.8084,-8.8084,-8.8084,-8.8084,-8.8084,-8.8084,-8.8084,-8.8084,-8.8084,-8.8084,-8.8084,-8.8084,-8.8084,-8.8084,-8.8084,-8.8084,-8.8084,-8.8084,-8.8084,-8.8084,-8.8084,-8.8084,-8.8121,-8.8121,-8.827,-8.879,-8.9756,-9.0759,-9.1205,-9.2319,-9.2951,-9.2988,-9.2988,-9.2988,-9.2988,-9.2988,-9.2988,-9.2988,-9.2988,-9.2988,-9.2988,-9.2988,-9.2876,-9.2319,-9.1316,-9.061,-8.9719,-8.8901,-8.8418,-8.9198,-8.9087,-8.9644,-9.061,-9.1056,-9.1539,-9.1205,-9.0313,-8.9459,-8.8678,-8.7124,-8.585,-8.4299,-8.3645,-8.3176,-8.315,-8.3065,-8.3084,-8.4052,-8.499,-8.5973,-8.6654,-8.7376,-8.8446,-8.8436,-8.8594,-8.975,-9.1319,-9.2996,-9.3603,-9.3959,-9.3995,-9.3995,-9.3995,-9.3995,-9.3995,-9.3995,-9.3995,-9.373,-9.3357,-9.3024,-9.2687,-9.221,-9.1708,-9.1299,-9.097,-9.0812,-9.0812,-9.1522,-9.1716,-9.1716,-9.1716,-9.1634,-9.1214,-9.0951,-9.0742,-9.0307,-8.9982,-8.9814,-8.979,-8.9566,-8.9184,-8.8879,-8.8533,-8.8177,-8.8084,-8.8084,-8.8084,-8.8084,-8.8084,-8.8084,-8.8084,-8.8084,-8.8084,-8.8084,-8.8084,-8.8084,-8.8084,-8.8084,-8.8084,-8.8084,-8.8084,-8.8084,-8.8084,-8.8084,-8.8084,-8.8084,-8.8084,-8.8195,-8.853,-8.8976,-8.9421,-9.0536,-9.1242,-9.191,-9.2431,-9.2988,-9.2988,-9.2988,-9.2988,-9.2988,-9.2988,-9.2988,-9.2988,-9.2988,-9.2988,-9.2988,-9.2988,-9.2765,-9.2171,-9.113,-9.0127,-8.931,-8.8641,-8.8418,-8.9198,-8.8827,-8.9459,-9.0499,-9.0573,-9.1205,-9.139,-9.1353,-9.0796,-8.9867,-8.8727,-8.7259,-8.563,-8.4188,-8.3977,-8.394,-8.44,-8.4537,-8.4854,-8.593,-8.6976,-8.7063,-8.6966,-8.8168,-8.9349,-8.9501,-8.9971,-9.1675,-9.3281,-9.3674,-9.3995,-9.3995,-9.3995,-9.3995,-9.3995,-9.3995,-9.3822,-9.3684,-9.3357,-9.2893,-9.2603,-9.2358,-9.186,-9.135,-9.104,-9.0812,-9.0812,-9.0812,-9.1377,-9.1702,-9.162,-9.162,-9.1687,-9.1345,-9.1038,-9.0781,-9.0457,-9.0106,-8.9863,-8.9766,-8.9489,-8.9102,-8.8936,-8.865,-8.8115,-8.8084,-8.8084,-8.8084,-8.8084,-8.8084,-8.8084,-8.8084,-8.8084,-8.8084,-8.8084,-8.8084,-8.8084,-8.8084,-8.8084,-8.8084,-8.8084,-8.8084,-8.8084,-8.8084,-8.8084,-8.8084,-8.8084,-8.8084,-8.8195,-8.8641,-8.931,-9.009,-9.0982,-9.1799,-9.2542,-9.2914,-9.2988,-9.2988,-9.2988,-9.2988,-9.2988,-9.2988,-9.2988,-9.2988,-9.2988,-9.2988,-9.2988,-9.2914,-9.2505,-9.1725,-9.0647,-8.9459,-8.8121,-8.7898,-8.8233,-8.8864,-8.853,-8.905,-8.9942,-9.0016,-9.0647,-9.1279,-9.1502,-9.113,-9.0578,-8.9331,-8.8345,-8.7152,-8.5927,-8.525,-8.543,-8.6074,-8.6209,-8.6015,-8.6799,-8.7873,-8.7702,-8.7169,-8.8325,-8.9709,-9.0069,-9.0613,-9.2354,-9.3603,-9.3888,-9.3949,-9.3949,-9.3995,-9.3914,-9.3995,-9.3995,-9.3776,-9.3451,-9.3085,-9.27,-9.2358,-9.206,-9.1504,-9.104,-9.097,-9.0812,-9.0812,-9.0812,-9.1415,-9.1663,-9.1361,-9.1392,-9.1663,-9.1329,-9.1038,-9.0781,-9.0419,-9.0106,-8.9814,-8.9766,-8.9489,-8.9129,-8.8964,-8.8679,-8.8115,-8.8084,-8.8084,-8.8084,-8.8084,-8.8084,-8.8084,-8.8084,-8.8084,-8.8084,-8.8084,-8.8084,-8.8084,-8.8084,-8.8084,-8.8084,-8.8084,-8.8084,-8.8084,-8.8084,-8.8084,-8.8084,-8.8084,-8.8084,-8.8158,-8.8418,-8.8864,-8.9533,-9.0239,-9.0982,-9.1799,-9.2579,-9.2988,-9.2988,-9.2839,-9.2951,-9.2951,-9.2839,-9.2802,-9.2951,-9.2988,-9.2988,-9.2988,-9.2914,-9.2505,-9.1576,-9.0164,-8.8604,-8.7341,-8.7712,-8.8084,-8.8195,-8.8047,-8.8864,-8.983,-9.0499,-9.0573,-9.1316,-9.1725,-9.1688,-9.1028,-8.9794,-8.8885,-8.831,-8.7479,-8.6504,-8.6801,-8.7449,-8.7468,-8.7271,-8.7317,-8.8355,-8.8104,-8.7823,-8.8911,-8.9989,-9.0402,-9.1415,-9.3291,-9.3949,-9.3776,-9.373,-9.373,-9.3822,-9.3868,-9.3914,-9.3822,-9.3591,-9.3262,-9.2845,-9.2456,-9.196,-9.1504,-9.104,-9.0812,-9.0812,-9.0812,-9.0812,-9.0812,-9.1147,-9.1345,-9.1095,-9.1231,-9.1649,-9.1345,-9.1038,-9.0781,-9.0457,-9.0106,-8.979,-8.9766,-8.9591,-8.9291,-8.9019,-8.8766,-8.8354,-8.8146,-8.8115,-8.8084,-8.8084,-8.8084,-8.8084,-8.8158,-8.8084,-8.8158,-8.8158,-8.8084,-8.8084,-8.827,-8.8121,-8.8084,-8.8158,-8.8084,-8.8084,-8.8084,-8.8084,-8.8084,-8.8084,-8.8084,-8.8307,-8.9161,-8.9719,-9.0053,-9.1465,-9.2059,-9.2542,-9.2802,-9.2951,-9.2839,-9.2468,-9.2505,-9.2691,-9.2431,-9.2505,-9.2876,-9.2914,-9.2988,-9.2951,-9.2876,-9.2393,-9.0796,-8.9087,-8.7527,-8.6821,-8.7155,-8.7267,-8.7415,-8.7824,-8.8678,-8.9421,-8.9793,-9.0127,-9.1279,-9.1873,-9.1948,-9.1404,-9.0202,-8.9259,-8.8605,-8.7958,-8.7129,-8.7865,-8.8817,-8.8656,-8.8457,-8.8576,-8.8557,-8.8302,-8.8451,-8.9459,-9.0453,-9.0929,-9.1764,-9.3521,-9.3659,-9.3544,-9.3544,-9.3544,-9.3591,-9.3637,-9.3497,-9.3404,-9.3215,-9.2893,-9.2358,-9.186,-9.1453,-9.1092,-9.0865,-9.0812,-9.0812,-9.0812,-9.0812,-9.0812,-9.0932,-9.1038,-9.0895,-9.1095,-9.1492,-9.1297,-9.0985,-9.0625,-9.0377,-9.0106,-8.979,-8.9766,-8.9642,-8.9397,-8.9129,-8.8823,-8.8473,-8.8239,-8.8115,-8.8084,-8.8084,-8.8233,-8.8381,-8.853,-8.8716,-8.8678,-8.879,-8.8901,-8.8976,-8.8827,-8.8753,-8.8604,-8.8418,-8.8418,-8.8084,-8.8084,-8.8084,-8.8084,-8.8084,-8.8307,-8.8604,-8.9384,-9.0499,-9.0647,-9.165,-9.2059,-9.2171,-9.2208,-9.2022,-9.191,-9.1725,-9.1688,-9.1873,-9.2022,-9.2096,-9.2468,-9.2839,-9.2988,-9.2914,-9.2319,-9.1762,-9.0499,-8.8307,-8.7192,-8.6784,-8.6784,-8.6932,-8.6969,-8.7601,-8.8344,-8.9013,-8.9198,-8.983,-9.0945,-9.165,-9.1799,-9.1474,-9.0601,-8.9695,-8.8897,-8.829,-8.7862,-8.8591,-8.9433,-8.9381,-8.8996,-8.8562,-8.853,-8.8465,-8.883,-8.9746,-9.0722,-9.1534,-9.2496,-9.3481,-9.3355,-9.331,-9.3357,-9.3357,-9.331,-9.331,-9.3167,-9.2977,-9.2797,-9.2407,-9.1809,-9.1453,-9.1247,-9.1022,-9.0812,-9.0812,-9.0812,-9.0812,-9.0812,-9.0812,-9.082,-9.0781,-9.08,-9.0969,-9.1159,-9.1193,-9.0875,-9.0419,-9.0307,-9.0083,-8.9814,-8.979,-8.9642,-8.9397,-8.9129,-8.8823,-8.8503,-8.8239,-8.8084,-8.8084,-8.8307,-8.8604,-8.8976,-8.9236,-8.9496,-9.0239,-9.0164,-9.0016,-9.0202,-9.0016,-8.9756,-8.9236,-8.8901,-8.8641,-8.8158,-8.8084,-8.8084,-8.8121,-8.8195,-8.8604,-8.9198,-8.957,-9.035,-9.0945,-9.1056,-9.1316,-9.1539,-9.1279,-9.1093,-9.0982,-9.0722,-9.0685,-9.087,-9.139,-9.1613,-9.1836,-9.2616,-9.2951,-9.2876,-9.1465,-9.0759,-9.0202,-8.8121,-8.6747,-8.6747,-8.6747,-8.6747,-8.6784,-8.7564,-8.8047,-8.8418,-8.879,-8.9607,-9.0499,-9.1205,-9.1428,-9.1103,-9.0856,-8.9876,-8.8823,-8.8656,-8.8738,-8.9356,-8.9827,-8.9917,-8.953,-8.8732,-8.8465,-8.8511,-8.9311,-9.0213,-9.099,-9.1864,-9.263,-9.332,-9.3109,-9.3037,-9.312,-9.3024,-9.288,-9.2832,-9.2832,-9.2603,-9.2407,-9.196,-9.1402,-9.1247,-9.1144,-9.097,-9.0812,-9.0812,-9.0812,-9.0812,-9.0812,-9.0812,-9.0683,-9.0478,-9.0478,-9.0503,-9.0645,-9.0838,-9.0781,-9.0582,-9.0197,-8.9911,-8.9814,-8.979,-8.9642,-8.9359,-8.9129,-8.8823,-8.8503,-8.8239,-8.8084,-8.8158,-8.8567,-8.8976,-8.9384,-8.9904,-9.0276,-9.0424,-9.0499,-9.061,-9.0424,-9.0685,-9.009,-8.9421,-8.9013,-8.8381,-8.8158,-8.8158,-8.827,-8.879,-8.8976,-8.9236,-8.9979,-9.009,-9.035,-9.0945,-9.061,-9.061,-9.0833,-9.0462,-9.0313,-9.0202,-8.9979,-8.9904,-9.0239,-9.0833,-9.1167,-9.1688,-9.2468,-9.2653,-9.2133,-9.113,-9.0573,-8.957,-8.7935,-8.6412,-8.6672,-8.6226,-8.6338,-8.6858,-8.7638,-8.801,-8.8233,-8.8307,-8.8976,-9.0202,-9.0833,-9.0833,-9.0652,-9.0485,-8.9839,-8.8675,-8.8139,-8.8803,-8.9461,-8.937,-8.9456,-8.9707,-8.9055,-8.8701,-8.8667,-8.9789,-9.0827,-9.1403,-9.212,-9.2713,-9.3097,-9.2713,-9.2456,-9.2358,-9.221,-9.201,-9.211,-9.2309,-9.211,-9.186,-9.1453,-9.1074,-9.1022,-9.097,-9.0917,-9.0812,-9.0812,-9.0812,-9.0812,-9.0812,-9.0812,-9.0561,-9.0152,-9.0263,-9.0307,-9.0351,-9.0523,-9.0582,-9.0415,-8.9968,-8.979,-8.979,-8.979,-8.9642,-8.9397,-8.9129,-8.8785,-8.8503,-8.8239,-8.8084,-8.8195,-8.8901,-8.9384,-8.9904,-9.0536,-9.1167,-9.1205,-9.1353,-9.1428,-9.1502,-9.1428,-9.0796,-8.9904,-8.9161,-8.8976,-8.8716,-8.8641,-8.8753,-8.9236,-8.9459,-8.9904,-9.0313,-9.0424,-9.0462,-9.0462,-9.0239,-9.0053,-9.0016,-8.9867,-8.9719,-8.9533,-8.9347,-8.9124,-8.9607,-9.0276,-9.0647,-9.139,-9.2282,-9.2393,-9.1799,-9.0982,-9.0313,-8.9384,-8.7007,-8.6189,-8.6449,-8.6115,-8.6524,-8.7081,-8.775,-8.7973,-8.8084,-8.8121,-8.8827,-9.0016,-9.0313,-9.0313,-9.043,-9.0263,-8.953,-8.8372,-8.7907,-8.8609,-8.9085,-8.8947,-8.8737,-8.9061,-8.9347,-8.9185,-8.9115,-9.0226,-9.1205,-9.1699,-9.2112,-9.2578,-9.2568,-9.2125,-9.186,-9.1657,-9.1555,-9.1504,-9.1657,-9.191,-9.1606,-9.1385,-9.1126,-9.0917,-9.0865,-9.0812,-9.0812,-9.0812,-9.0812,-9.0812,-9.0812,-9.0812,-9.0812,-9.0415,-8.9887,-9.0152,-9.0285,-9.0285,-9.0285,-9.0106,-8.9839,-8.979,-8.979,-8.979,-8.979,-8.9642,-8.9359,-8.9129,-8.8823,-8.8503,-8.8202,-8.8227,-8.8455,-8.9198,-8.9793,-9.061,-9.1353,-9.1948,-9.2579,-9.2728,-9.2431,-9.2839,-9.2096,-9.1316,-9.0647,-9.0016,-8.9459,-8.9087,-8.9198,-8.931,-8.9681,-9.0016,-9.0313,-9.0462,-9.035,-9.0239,-9.0053,-8.9681,-8.9347,-8.9124,-8.8827,-8.8493,-8.8307,-8.8233,-8.8195,-8.8641,-8.9644,-9.0164,-9.1019,-9.2245,-9.2245,-9.1576,-9.0722,-8.9384,-8.8195,-8.6598,-8.6264,-8.6375,-8.6301,-8.6709,-8.7341,-8.8047,-8.8047,-8.8084,-8.8493,-8.8901,-8.9459,-8.983,-9.0016,-9.0276,-8.984,-8.8997,-8.8238,-8.778,-8.7969,-8.8113,-8.8016,-8.8467,-8.9018,-8.9586,-9.0409,-9.0405,-9.0771,-9.1578,-9.1827,-9.2177,-9.2335,-9.211,-9.1657,-9.1453,-9.1299,-9.135,-9.1385,-9.1453,-9.1453,-9.1247,-9.1126,-9.0917,-9.0812,-9.0812,-9.0812,-9.0812,-9.0812,-9.0812,-9.0812,-9.0812,-9.0812,-9.0812,-9.0415,-8.9814,-8.9911,-8.9958,-8.9958,-8.992,-8.9887,-8.979,-8.979,-8.979,-8.979,-8.979,-8.9642,-8.9397,-8.9129,-8.8785,-8.8533,-8.8344,-8.8592,-8.9013,-8.9644,-9.0536,-9.1353,-9.2096,-9.2691,-9.2876,-9.2988,-9.2951,-9.2653,-9.2133,-9.139,-9.0499,-9.0313,-8.9533,-8.9384,-8.9607,-8.9904,-9.0127,-9.0387,-9.0387,-9.0239,-8.9979,-8.983,-8.9459,-8.8938,-8.8604,-8.8418,-8.8307,-8.8084,-8.8084,-8.8084,-8.8084,-8.8195,-8.9124,-8.9904,-9.1353,-9.2208,-9.2393,-9.1056,-9.0127,-8.8827,-8.7155,-8.5966,-8.6189,-8.6449,-8.6709,-8.6932,-8.7638,-8.8084,-8.8084,-8.827,-8.8641,-8.9236,-8.9756,-9.0016,-9.0053,-9.0164,-8.9607,-8.8732,-8.8122,-8.7697,-8.773,-8.7762,-8.7895,-8.8387,-8.905,-8.9855,-9.0895,-9.1509,-9.179,-9.2032,-9.225,-9.1921,-9.204,-9.1759,-9.1299,-9.1144,-9.1022,-9.1126,-9.1178,-9.1092,-9.104,-9.097,-9.0865,-9.0812,-9.0812,-9.0812,-9.0812,-9.0812,-9.0812,-9.0812,-9.0812,-9.0812,-9.0812,-9.0812,-9.0415,-8.9839,-8.979,-8.979,-8.979,-8.979,-8.979,-8.979,-8.979,-8.979,-8.979,-8.979,-8.9642,-8.9359,-8.9129,-8.8823,-8.8466,-8.8276,-8.8493,-8.9273,-9.0164,-9.087,-9.1725,-9.2505,-9.2876,-9.2988,-9.2988,-9.2988,-9.2691,-9.2208,-9.1502,-9.1019,-9.061,-9.0239,-9.0164,-9.0536,-9.0647,-9.0573,-9.0424,-9.0313,-8.9942,-8.9496,-8.9236,-8.8827,-8.8307,-8.8158,-8.8121,-8.8121,-8.8084,-8.8084,-8.8084,-8.8084,-8.8344,-8.9161,-9.0536,-9.1948,-9.2579,-9.2096,-9.0833,-8.983,-8.8158,-8.6747,-8.6041,-8.6338,-8.6561,-8.6784,-8.7304,-8.7861,-8.801,-8.8158,-8.8455,-8.879,-8.9607,-9.035,-9.0276,-9.0164,-8.9793,-8.9347,-8.8695,-8.808,-8.7831,-8.7826,-8.7889,-8.8021,-8.8493,-8.9347,-9.0518,-9.1811,-9.228,-9.233,-9.2592,-9.2794,-9.2119,-9.1606,-9.1299,-9.104,-9.0901,-9.0796,-9.0917,-9.0917,-9.0812,-9.0812,-9.0865,-9.0865,-9.0812,-9.0812,-9.0812,-9.0812,-9.0812,-9.0812,-9.0812,-9.0778,-9.0778,-9.0812,-9.0812,-9.0415,-8.979,-8.979,-8.979,-8.979,-8.979,-8.979,-8.979,-8.979,-8.979,-8.979,-8.979,-8.9667,-8.9438,-8.9157,-8.8879,-8.8637,-8.8449,-8.8827,-8.9459,-9.0387,-9.1205,-9.1985,-9.2579,-9.2914,-9.2988,-9.2988,-9.2988,-9.2951,-9.2468,-9.191,-9.1762,-9.2133,-9.1762,-9.1019,-9.1279,-9.1167,-9.0573,-9.035,-9.0164,-8.9421,-8.905,-8.8901,-8.8418,-8.8195,-8.8121,-8.8195,-8.8158,-8.8084,-8.8084,-8.8084,-8.8084,-8.8753,-8.957,-9.1167,-9.2208,-9.2765,-9.1985,-9.0833,-8.9756,-8.8455,-8.7341,-8.6784,-8.6709,-8.6747,-8.7081,-8.7638,-8.7935,-8.8084,-8.8084,-8.8307,-8.8864,-8.9607,-9.0016,-9.0053,-9.0127,-9.0127,-8.9421,-8.8461,-8.7958,-8.7958,-8.799,-8.8032,-8.8201,-8.8864,-8.9793,-9.0987,-9.2416,-9.3052,-9.3052,-9.2956,-9.3047,-9.2063,-9.1299,-9.1074,-9.0883,-9.0727,-9.0709,-9.0743,-9.0605,-9.0433,-9.0571,-9.0812,-9.0812,-9.0812,-9.0812,-9.0812,-9.0812,-9.0812,-9.0812,-9.0778,-9.0743,-9.0743,-9.0674,-9.0812,-9.0415,-8.979,-8.979,-8.979,-8.979,-8.979,-8.979,-8.979,-8.979,-8.979,-8.979,-8.979,-8.9766,-8.9616,-8.9238,-8.8973,-8.8944,-8.8987,-8.9522,-9.0239,-9.1019,-9.1688,-9.2468,-9.2802,-9.2988,-9.2988,-9.2988,-9.2988,-9.2914,-9.2468,-9.2022,-9.1799,-9.2171,-9.1873,-9.1279,-9.1502,-9.1316,-9.0685,-9.0424,-8.9867,-8.8938,-8.8604,-8.8381,-8.8567,-8.8678,-8.8604,-8.8567,-8.8418,-8.8233,-8.8084,-8.8084,-8.8418,-8.905,-8.9979,-9.0945,-9.191,-9.2691,-9.2059,-9.087,-8.9793,-8.8641,-8.749,-8.6821,-8.6821,-8.6969,-8.749,-8.7824,-8.801,-8.8084,-8.8084,-8.827,-8.8938,-8.9459,-8.9644,-8.9793,-9.009,-9.035,-8.931,-8.8164,-8.8084,-8.8084,-8.809,-8.8133,-8.8647,-8.9347,-9.0321,-9.1468,-9.2683,-9.3519,-9.3724,-9.3119,-9.2932,-9.1685,-9.1022,-9.0865,-9.0743,-9.064,-9.0536,-9.0536,-9.0329,-9.0123,-9.0295,-9.0571,-9.0743,-9.0812,-9.0812,-9.0812,-9.0812,-9.0812,-9.0812,-9.0605,-9.0467,-9.0329,-9.026,-9.0571,-9.0415,-8.9814,-8.979,-8.979,-8.979,-8.979,-8.979,-8.979,-8.979,-8.979,-8.979,-8.979,-8.979,-8.9741,-8.9333,-8.9375,-8.9424,-8.9474,-9.0137,-9.094,-9.1502,-9.2133,-9.2653,-9.2988,-9.2988,-9.2988,-9.2988,-9.2951,-9.2876,-9.2691,-9.2356,-9.2245,-9.2208,-9.2022,-9.1539,-9.1725,-9.1539,-9.1056,-9.0796,-9.0053,-8.9124,-8.9198,-8.931,-8.957,-8.9533,-8.9347,-8.9161,-8.9013,-8.8753,-8.8344,-8.8084,-8.8864,-8.9533,-9.0276,-9.113,-9.2171,-9.2802,-9.2616,-9.1056,-8.9904,-8.8976,-8.7861,-8.6895,-8.6858,-8.749,-8.7898,-8.7935,-8.8084,-8.8084,-8.8084,-8.8307,-8.8827,-8.9236,-8.9496,-8.9459,-8.9533,-8.9347,-8.8641,-8.8121,-8.8084,-8.8084,-8.8121,-8.8276,-8.8721,-8.9575,-9.0898,-9.2091,-9.3381,-9.4139,-9.3975,-9.3488,-9.2835,-9.1588,-9.0935,-9.0812,-9.0674,-9.0536,-9.0433,-9.026,-9.0433,-9.0398,-9.026,-9.0295,-9.0467,-9.064,-9.0812,-9.0812,-9.0778,-9.0778,-9.0812,-9.0502,-9.0157,-8.9985,-8.9709,-8.9778,-9.0398,-8.9839,-8.979,-8.979,-8.979,-8.979,-8.979,-8.979,-8.979,-8.979,-8.979,-8.979,-8.979,-8.9692,-8.9527,-8.983,-8.9986,-9.0012,-9.0746,-9.1381,-9.1836,-9.2393,-9.2765,-9.2988,-9.2988,-9.2988,-9.2988,-9.2988,-9.2951,-9.2839,-9.2839,-9.2951,-9.2988,-9.2951,-9.2765,-9.2393,-9.1873,-9.1762,-9.1465,-9.1019,-9.0759,-9.061,-9.0499,-9.0536,-9.0499,-9.0164,-9.0016,-8.9793,-8.957,-8.8864,-8.8307,-8.9198,-9.009,-9.0833,-9.2022,-9.2988,-9.3434,-9.2616,-9.1242,-9.0276,-8.931,-8.8307,-8.7415,-8.7304,-8.7898,-8.8047,-8.8084,-8.8084,-8.8084,-8.8158,-8.8381,-8.8678,-8.9087,-8.931,-8.9198,-8.8976,-8.853,-8.8158,-8.8121,-8.8084,-8.8084,-8.8084,-8.8381,-8.8864,-9.0068,-9.142,-9.2703,-9.4114,-9.4772,-9.3861,-9.3071,-9.2511,-9.1638,-9.1144,-9.0865,-9.0502,-9.026,-8.995,-8.9812,-9.0295,-9.0571,-9.0226,-9.0054,-9.0157,-9.0329,-9.0605,-9.0674,-9.064,-9.0709,-9.0605,-9.0295,-8.9812,-8.9122,-8.8881,-8.8708,-9.0415,-8.979,-8.979,-8.979,-8.979,-8.979,-8.979,-8.979,-8.979,-8.979,-8.979,-8.979,-8.979,-8.9766,-8.9515,-8.9754,-9.0353,-9.055,-9.1038,-9.1646,-9.2319,-9.2728,-9.2951,-9.2988,-9.2988,-9.2988,-9.2988,-9.2988,-9.2988,-9.2988,-9.2988,-9.2988,-9.2988,-9.2988,-9.2951,-9.2691,-9.2579,-9.2468,-9.2468,-9.2208,-9.191,-9.1576,-9.1056,-9.0945,-9.0833,-9.0945,-9.0982,-9.0722,-9.0016,-8.9198,-8.8716,-8.9644,-9.0685,-9.1613,-9.2653,-9.3582,-9.3991,-9.2691,-9.1465,-9.0387,-8.931,-8.8307,-8.7675,-8.7712,-8.8084,-8.8084,-8.8084,-8.8084,-8.8084,-8.8084,-8.8307,-8.8753,-8.9161,-8.9161,-8.9087,-8.8716,-8.8307,-8.8158,-8.8121,-8.8084,-8.8084,-8.8121,-8.8195,-8.9093,-9.037,-9.1626,-9.2611,-9.3928,-9.4634,-9.3761,-9.2765,-9.2203,-9.1537,-9.1161,-9.0778,-9.0157,-8.9847,-8.9502,-8.926,-8.9467,-8.9674,-8.9847,-8.9812,-8.9674,-9.0054,-9.0433,-9.0467,-9.0157,-9.0157,-8.9985,-8.9916,-8.9502,-8.8639,-8.8053,-8.7881]},{"header":{"parameterUnit":"m.s-1","parameterCategory":1,"la1":31.0,"la2":29.5877,"lo1":-88.7671,"lo2":-86.6584,"dx":0.0162,"dy":0.0185,"nx":115,"ny":88,"refTime":"2022-11-26T06:00:00:Z","depth":0,"parameterNumber":3,"parameterNumberName":"V-component_of_WINDS"},"data":[0.0,0.0,0.0,0.0,0.0,0.0,0.0,0.0,0.0,0.0,0.0,0.0,0.0,0.0,0.0,0.0,0.0,0.0,0.0,0.0,0.0,0.0,0.0,0.0,0.0,0.0,0.0,0.0,0.0,0.0,0.0,0.0,0.0,0.0,0.0,0.0,0.0,0.0,0.0,0.0,0.0,0.0,0.0,0.0,0.0,0.0,0.0,0.0,0.0,0.0,0.0,0.0,0.0,0.0,0.0,0.0,0.0,0.0,0.0,0.0,0.0,0.0,0.0,0.0,0.0,0.0,0.0,0.0,0.0,0.0,0.0,0.0,0.0,0.0,0.0,0.0,0.0,0.0,0.0,0.0,0.0,0.0,0.0,0.0,0.0,0.0,0.0,0.0,0.0,0.0,0.0,0.0,0.0,0.0,0.0,0.0,0.0,0.0,0.0,0.0,0.0,0.0,0.0,0.0,0.0,0.0,0.0,0.0,0.0,0.0,0.0,0.0,0.0,0.0,0.0,0.0,0.0,0.0,0.0,0.0,0.0,0.0,0.0,0.0,0.0,0.0,0.0,0.0,0.0,0.0,0.0,0.0,0.0,0.0,0.0,0.0,0.0,0.0,0.0,0.0,0.0,0.0,0.0,0.0,0.0,0.0,0.0,0.0,0.0,0.0,0.0,0.0,0.0,0.0,0.0,0.0,0.0,0.0,0.0,0.0,0.0,0.0,0.0,0.0,0.0,0.0,0.0,0.0,0.0,0.0,0.0,0.0,0.0,0.0,0.0,0.0,0.0,0.0,0.0,0.0,0.0,0.0,0.0,0.0,0.0,0.0,0.0,0.0,0.0,0.0,0.0,0.0,0.0,0.0,0.0,0.0,0.0,0.0,0.0,0.0,0.0,0.0,0.0,0.0,0.0,0.0,0.0,0.0,0.0,0.0,0.0,0.0,0.0,0.0,0.0,0.0,0.0,0.0,0.0,0.0,0.0,0.0,0.0,0.0,0.0,0.0,0.0,0.0,0.0,0.0,0.0,0.0,0.0,0.0,0.0,0.0,0.0,0.0,0.0,0.0,0.0,0.0,0.0,0.0,0.0,0.0,0.0,0.0,0.0,0.0,0.0,0.0,0.0,0.0,0.0,0.0,0.0,0.0,0.0,0.0,0.0,0.0,0.0,0.0,0.0,0.0,0.0,0.0,0.0,0.0,0.0,0.0,0.0,0.0,0.0,0.0,0.0,0.0,0.0,0.0,0.0,0.0,0.0,0.0,0.0,0.0,0.0,0.0,0.0,0.0,0.0,0.0,0.0,0.0,0.0,0.0,0.0,0.0,0.0,0.0,0.0,0.0,0.0,0.0,0.0,0.0,0.0,0.0,0.0,0.0,0.0,0.0,0.0,0.0,0.0,0.0,0.0,0.0,0.0,0.0,0.0,0.0,0.0,0.0,0.0,0.0,0.0,0.0,0.0,0.0,0.0,0.0,0.0,0.0,0.0,0.0,0.0,0.0,0.0,0.0,0.0,0.0,0.0,0.0,0.0,0.0,0.0,0.0,0.0,0.0,0.0,0.0,0.0,0.0,0.0,0.0,0.0,0.0,0.0,0.0,0.0,0.0,0.0,0.0,0.0,0.0,0.0,0.0,0.0,0.0,0.0,0.0,0.0,0.0,0.0,0.0,0.0,0.0,0.0,0.0,0.0,0.0,0.0,0.0,0.0,0.0,0.0,0.0,0.0,0.0,0.0,0.0,0.0,0.0,0.0,0.0,0.0,0.0,0.0,0.0,0.0,0.0,0.0,0.0,0.0,0.0,0.0,0.0,0.0,0.0,0.0,0.0,0.0,0.0,0.0,0.0,0.0,0.0,0.0,0.0,0.0,0.0,0.0,0.0,0.0,0.0,0.0,0.0,0.0,0.0,0.0,0.0,0.0,0.0,0.0,0.0,0.0,0.0,0.0,0.0,0.0,0.0,0.0,0.0,0.0,0.0,0.0,0.0,0.0,0.0,0.0,0.0,0.0,0.0,0.0,0.0,0.0,0.0,0.0,0.0,0.0,0.0,0.0,0.0,0.0,0.0,0.0,0.0,0.0,0.0,0.0,0.0,0.0,0.0,0.0,0.0,0.0,0.0,0.0,0.0,0.0,0.0,0.0,0.0,0.0,0.0,0.0,0.0,0.0,0.0,0.0,0.0,0.0,0.0,0.0,0.0,0.0,0.0,0.0,0.0,0.0,0.0,0.0,0.0,0.0,0.0,0.0,0.0,0.0,0.0,0.0,0.0,0.0,0.0,0.0,0.0,0.0,0.0,0.0,0.0,0.0,0.0,0.0,0.0,0.0,0.0,0.0,0.0,0.0,0.0,0.0,0.0,0.0,0.0,0.0,0.0,0.0,0.0,0.0,0.0,0.0,0.0,0.0,0.0,0.0,0.0,0.0,0.0,0.0,0.0,0.0,0.0,0.0,0.0,0.0,0.0,0.0,0.0,0.0,0.0,0.0,0.0,0.0,0.0,0.0,0.0,0.0,0.0,0.0,0.0,0.0,0.0,0.0,0.0,0.0,0.0,0.0,0.0,0.0,0.0,0.0,0.0,0.0,0.0,0.0,0.0,0.0,0.0,0.0,0.0,0.0,0.0,0.0,0.0,0.0,0.0,0.0,0.0,0.0,0.0,0.0,0.0,0.0,0.0,0.0,0.0,0.0,0.0,0.0,0.0,0.0,0.0,0.0,0.0,0.0,0.0,0.0,0.0,0.0,0.0,0.0,0.0,0.0,0.0,0.0,0.0,0.0,0.0,0.0,0.0,0.0,0.0,0.0,0.0,0.0,0.0,0.0,0.0,0.0,0.0,0.0,0.0,0.0,0.0,0.0,0.0,0.0,0.0,0.0,0.0,0.0,0.0,0.0,0.0,0.0,0.0,0.0,0.0,0.0,0.0,0.0,0.0,0.0,0.0,0.0,0.0,0.0,0.0,0.0,0.0,0.0,0.0,0.0,0.0,0.0,0.0,0.0,0.0,0.0,0.0,0.0,0.0,0.0,0.0,0.0,0.0,0.0,0.0,0.0,0.0,0.0,0.0,0.0,0.0,0.0,0.0,0.0,0.0,0.0,0.0,0.0,0.0,0.0,0.0,0.0,0.0,0.0,0.0,0.0,0.0,0.0,0.0,0.0,0.0,0.0,0.0,0.0,0.0,0.0,0.0,0.0,0.0,0.0,0.0,0.0,0.0,0.0,0.0,0.0,0.0,0.0,0.0,0.0,0.0,0.0,0.0,0.0,0.0,0.0,0.0,0.0,0.0,0.0,0.0,0.0,0.0,0.0,0.0,0.0,0.0,0.0,0.0,0.0,0.0,0.0,0.0,0.0,0.0,0.0,0.0,0.0,0.0,0.0,0.0,0.0,0.0,0.0,0.0,0.0,0.0,0.0,0.0,0.0,0.0,0.0,0.0,0.0,0.0,0.0,0.0,0.0,0.0,0.0,0.0,0.0,0.0,0.0,0.0,0.0,0.0,0.0,0.0,0.0,0.0,0.0,0.0,0.0,0.0,0.0,0.0,0.0,0.0,0.0,0.0,0.0,0.0,0.0,0.0,0.0,0.0,0.0,0.0,0.0,0.0,0.0,0.0,0.0,0.0,0.0,0.0,0.0,0.0,0.0,0.0,0.0,0.0,0.0,0.0,0.0,0.0,0.0,0.0,0.0,0.0,0.0,0.0,0.0,0.0,0.0,0.0,0.0,0.0,0.0,0.0,0.0,0.0,0.0,0.0,0.0,0.0,0.0,0.0,0.0,0.0,0.0,0.0,0.0,0.0,0.0,0.0,0.0,0.0,0.0,0.0,0.0,0.0,0.0,0.0,0.0,0.0,0.0,0.0,0.0,0.0,0.0,0.0,0.0,0.0,0.0,0.0,0.0,0.0,0.0,0.0,0.0,0.0,0.0,0.0,0.0,0.0,0.0,0.0,0.0,0.0,0.0,0.0,0.0,0.0,0.0,0.0,0.0,0.0,0.0,0.0,0.0,0.0,0.0,0.0,0.0,0.0,0.0,0.0,0.0,0.0,0.0,0.0,0.0,0.0,0.0,0.0,0.0,0.0,0.0,0.0,0.0,0.0,0.0,0.0,0.0,0.0,0.0,0.0,0.0,0.0,0.0,0.0,0.0,0.0,0.0,0.0,0.0,0.0,0.0,0.0,0.0,0.0,0.0,0.0,0.0,0.0,0.0,0.0,0.0,0.0,0.0,0.0,0.0,0.0,0.0,0.0,0.0,0.0,1.0213,0.0,0.0,0.0,1.0613,0.0,0.0,0.0,0.0,0.0,0.0,0.0,0.0,0.0,0.0,0.0,0.0,0.0,0.0,0.0,0.0,0.0,0.0,0.0,0.0,0.0,0.0,0.0,0.0,0.0,0.0,0.0,0.0,0.0,0.0,0.0,0.0,0.0,0.0,0.0,0.0,0.0,0.0,0.0,0.0,0.0,0.0,0.0,0.0,0.0,0.0,0.0,0.0,0.0,0.0,0.0,0.0,0.0,0.0,0.0,0.0,0.0,0.0,0.0,0.0,0.0,0.0,0.0,0.0,0.0,0.0,0.0,0.0,0.0,0.0,0.0,0.0,0.0,0.0,0.0,0.0,0.0,0.0,0.0,0.0,0.0,0.0,0.0,0.0,0.0,0.0,0.0,0.0,0.0,0.0,0.0,0.0,0.0,0.0,0.0,0.0,0.0,0.0,0.0,0.0,0.0,0.0,0.0,0.0,0.0,0.0,0.0,0.0,0.0,0.0,1.0213,1.0013,1.0791,1.1131,1.1013,0.0,0.0,0.0,0.0,0.0,0.0,0.0,0.0,0.0,0.0,0.0,0.0,0.0,0.0,0.0,0.0,0.0,0.0,0.0,0.0,0.0,0.0,0.0,0.0,0.0,0.0,0.0,0.0,0.0,0.0,0.0,0.0,0.0,0.0,0.0,0.0,0.0,0.0,0.0,0.0,0.0,0.0,0.0,0.0,0.0,0.0,0.0,0.0,0.0,0.0,0.0,0.0,0.0,0.0,0.0,0.0,0.0,0.0,0.0,0.0,0.0,0.0,0.0,0.0,0.0,0.0,0.0,0.0,0.0,0.0,0.0,0.0,0.0,0.0,0.0,0.0,0.0,0.0,0.0,0.0,0.0,0.0,0.0,0.0,0.0,0.0,0.0,0.0,0.0,0.0,0.0,0.0,0.0,0.0,0.0,0.0,0.0,0.0,0.0,0.0,0.0,0.0,0.0,0.0,0.0,0.0,0.0,0.0,0.0,0.0,0.0,0.0,1.1215,1.1662,1.1652,0.0,0.0,0.0,0.0,0.0,0.0,0.0,0.0,0.0,0.0,0.0,0.0,0.0,0.0,0.0,0.0,0.0,0.0,0.0,0.0,0.0,0.0,0.0,0.0,0.0,0.0,0.0,0.0,0.0,0.0,0.0,0.0,0.0,0.0,0.0,0.0,0.0,0.0,0.0,0.0,0.0,0.0,0.0,0.0,0.0,0.0,0.0,0.0,0.0,0.0,0.0,0.0,0.0,0.0,0.0,0.0,0.0,0.0,0.0,0.0,0.0,0.0,0.0,0.0,0.0,0.0,0.0,0.0,0.0,0.0,0.0,0.0,0.0,0.0,0.0,0.0,0.0,0.0,0.0,0.0,0.0,0.0,0.0,0.0,0.0,0.0,0.0,0.0,0.0,0.0,0.0,0.0,0.0,0.0,0.0,0.0,0.0,0.0,0.0,0.0,0.0,0.0,0.0,0.0,0.0,0.0,0.0,0.0,0.0,0.0,1.0619,1.1253,1.1562,0.0,1.2541,0.0,0.0,0.0,0.0,0.0,0.0,0.0,0.0,0.0,0.0,0.0,0.0,0.0,0.0,0.0,0.0,0.0,0.0,0.0,0.0,0.0,0.0,0.0,0.0,0.0,0.0,0.0,0.0,0.0,0.0,0.0,0.0,0.0,0.0,0.0,0.0,0.0,0.0,0.0,0.0,0.0,0.0,0.0,0.0,0.0,0.0,0.0,0.0,0.0,0.0,0.0,0.0,0.0,0.0,0.0,0.0,0.0,0.0,0.0,0.0,0.0,0.0,0.0,0.0,0.0,0.0,0.0,0.0,0.0,0.0,0.0,0.0,0.0,0.0,0.0,0.0,0.0,0.0,0.0,0.0,0.0,0.0,0.0,0.0,0.0,0.0,0.0,0.0,0.0,0.0,0.0,0.0,0.0,0.0,0.0,0.0,0.0,0.0,0.0,0.0,0.0,0.0,0.0,0.0,0.0,0.0,0.0,0.0,0.0,0.0,1.057,1.1083,1.1748,1.2296,0.0,0.0,0.0,0.0,0.0,0.0,0.0,0.0,0.0,0.0,0.0,0.0,0.0,0.0,0.0,0.0,0.0,0.0,0.0,0.0,0.0,0.0,0.0,0.0,0.0,0.0,0.0,0.0,0.0,0.0,0.0,0.0,0.0,0.0,0.0,0.0,0.0,0.0,0.0,0.0,0.0,0.0,0.0,0.0,0.0,0.0,0.0,0.0,0.0,0.0,0.0,0.0,0.0,0.0,0.0,0.0,0.0,0.0,0.0,0.0,0.0,0.0,0.0,0.0,0.0,0.0,0.0,0.0,0.0,0.0,0.0,0.0,0.0,0.0,0.0,0.0,0.0,0.0,0.0,0.0,0.0,0.0,0.0,0.0,0.0,0.0,0.0,0.0,0.0,0.0,0.0,0.0,0.0,0.0,0.0,0.0,0.0,0.0,0.0,0.0,0.0,0.0,0.0,0.0,0.0,0.0,0.0,0.0,0.0,0.0,1.0584,1.0858,1.1279,1.2272,1.2756,1.27,0.0,0.0,0.0,0.0,0.0,0.0,0.0,0.0,0.0,0.0,0.0,0.0,0.0,0.0,0.0,0.0,0.0,0.0,0.0,0.0,0.0,0.0,0.0,0.0,0.0,0.0,0.0,0.0,0.0,0.0,0.0,0.0,0.0,0.0,0.0,0.0,0.0,0.0,0.0,0.0,0.0,0.0,0.0,0.0,0.0,0.0,0.0,0.0,0.0,0.0,0.0,0.0,0.0,0.0,0.0,0.0,0.0,0.0,0.0,0.0,0.0,0.0,0.0,0.0,0.0,0.0,0.0,0.0,0.0,0.0,0.0,0.0,0.0,0.0,0.0,0.0,0.0,0.0,0.0,0.0,0.0,0.0,0.0,0.0,0.0,0.0,0.0,0.0,0.0,0.0,0.0,0.0,0.0,0.0,0.0,0.0,0.0,0.0,0.0,0.0,0.0,0.0,0.0,0.0,0.0,0.0,0.0,0.0,1.1142,1.135,1.1713,1.2214,1.322,1.3426,0.0,0.0,0.0,0.0,0.0,0.0,0.0,0.0,0.0,0.0,0.0,0.0,0.0,0.0,0.0,0.0,0.0,0.0,0.0,0.0,0.0,0.0,0.0,0.0,0.0,0.0,0.0,0.0,0.0,0.0,0.0,0.0,0.0,0.0,0.0,0.0,0.0,0.0,0.0,0.0,0.0,0.0,0.0,0.0,0.0,0.0,0.0,0.0,0.0,0.0,0.0,0.0,0.0,0.0,0.0,0.0,0.0,0.0,0.0,0.0,0.0,0.0,0.0,0.0,0.0,0.0,0.0,0.0,0.0,0.0,0.0,0.0,0.0,0.0,0.0,0.0,0.0,0.0,0.0,0.0,0.0,0.0,0.0,0.0,0.0,0.0,0.0,0.0,0.0,0.0,0.0,0.0,0.0,0.0,0.0,0.0,0.0,0.0,0.0,0.0,0.0,0.0,0.0,0.0,0.0,0.0,0.0,0.0,0.0,1.1397,1.1737,1.2109,1.2537,1.3188,1.343,0.0,0.0,0.0,0.0,0.0,0.0,0.0,0.0,0.0,0.0,0.0,0.0,0.0,0.0,0.0,0.0,0.0,0.0,0.0,0.0,0.0,0.0,0.0,0.0,0.0,0.0,0.0,0.0,0.0,0.0,0.0,0.0,0.0,0.0,0.0,0.0,0.0,0.0,0.0,0.0,0.0,0.0,0.0,0.0,0.0,0.0,0.0,0.0,0.0,0.0,0.0,0.0,0.0,0.0,0.0,0.0,0.0,0.0,0.0,0.0,0.0,0.0,0.0,0.0,0.0,0.0,0.0,0.0,0.0,0.0,0.0,0.0,0.0,0.0,0.0,0.0,0.0,0.0,0.0,0.0,0.0,0.0,0.0,0.0,0.0,0.0,0.0,0.0,0.0,0.0,0.0,0.0,0.0,0.0,0.0,0.0,0.0,0.0,0.0,0.0,0.0,0.0,0.0,0.0,0.0,0.0,0.0,0.0,0.0,1.2061,1.2631,1.2999,1.3091,1.3611,1.3812,0.0,0.0,0.0,0.0,0.0,0.0,0.0,0.0,0.0,0.0,0.0,0.0,0.0,0.0,0.0,0.0,0.0,0.0,0.0,0.0,0.0,0.0,0.0,0.0,0.0,0.0,0.0,0.0,0.0,0.0,0.0,0.0,0.0,0.0,0.0,0.0,0.0,0.0,0.0,0.0,0.0,0.0,0.0,0.0,0.0,0.0,0.0,0.0,0.0,0.0,0.0,0.0,0.0,0.0,0.0,0.0,0.0,0.0,0.0,0.0,0.0,0.0,0.0,0.0,0.0,0.0,0.0,0.0,0.0,0.0,0.0,0.0,0.0,0.0,0.0,0.0,0.0,0.0,0.0,0.0,0.0,0.0,0.0,0.0,0.0,0.0,0.0,0.0,0.0,0.0,0.0,0.0,0.0,0.0,0.0,0.0,0.0,0.0,0.0,0.0,0.0,0.0,0.0,0.0,0.0,0.0,0.0,0.0,1.2132,1.3221,1.4111,1.4277,1.3963,1.4574,1.4509,0.0,0.0,0.0,0.0,0.0,0.0,0.0,0.0,0.0,0.0,0.0,0.0,0.0,0.0,0.0,0.0,0.0,0.0,0.0,0.0,0.0,0.0,0.0,0.0,0.0,0.0,0.0,0.0,0.0,0.0,0.0,0.0,0.0,0.0,0.0,0.0,0.0,0.0,0.0,0.0,0.0,0.0,0.0,0.0,0.0,0.0,0.0,0.0,0.0,0.0,0.0,0.0,0.0,0.0,0.0,0.0,0.0,0.0,0.0,0.0,0.0,0.0,0.0,0.0,0.0,0.0,0.0,0.0,0.0,0.0,0.0,0.0,0.0,0.0,0.0,0.0,0.0,0.0,0.0,0.0,0.0,0.0,0.0,0.0,0.0,0.0,0.0,0.0,0.0,0.0,0.0,0.0,0.0,0.0,0.0,0.0,0.0,0.0,0.0,0.0,0.0,0.0,0.0,0.0,0.0,0.0,0.0,0.0,0.0,1.2718,1.3957,1.4429,1.4137,1.4674,1.489,0.0,0.0,0.0,0.0,0.0,0.0,0.0,0.0,0.0,0.0,0.0,0.0,0.0,0.0,0.0,0.0,0.0,0.0,0.0,0.0,0.0,0.0,0.0,0.0,0.0,0.0,0.0,0.0,0.0,0.0,0.0,0.0,0.0,0.0,0.0,0.0,0.0,0.0,0.0,0.0,0.0,0.0,0.0,0.0,0.0,0.0,0.0,0.0,0.0,0.0,0.0,0.0,0.0,0.0,0.0,0.0,0.0,0.0,0.0,0.0,0.0,0.0,0.0,0.0,0.0,0.0,0.0,0.0,0.0,0.0,0.0,0.0,0.0,0.0,0.0,0.0,0.0,0.0,0.0,0.0,0.0,0.0,0.0,0.0,0.0,0.0,0.0,0.0,0.0,0.0,0.0,0.0,0.0,0.0,0.0,0.0,0.0,0.0,0.0,0.0,0.0,0.0,0.0,0.0,0.0,0.0,0.0,0.0,0.0,1.4063,1.5279,1.5864,1.5569,1.5895,1.5865,1.5375,0.0,0.0,0.0,0.0,0.0,0.0,0.0,0.0,0.0,0.0,0.0,0.0,0.0,0.0,0.0,0.0,0.0,0.0,0.0,0.0,0.0,0.0,0.0,0.0,0.0,0.0,0.0,0.0,0.0,0.0,0.0,0.0,0.0,0.0,0.0,0.0,0.0,0.0,0.0,0.0,0.0,0.0,0.0,0.0,0.0,0.0,0.0,0.0,0.0,0.0,0.0,0.0,0.0,0.0,0.0,0.0,0.0,0.0,0.0,0.0,0.0,0.0,0.0,0.0,0.0,0.0,0.0,0.0,0.0,0.0,0.0,0.0,0.0,0.0,0.0,0.0,0.0,0.0,0.0,0.0,0.0,0.0,0.0,0.0,0.0,0.0,0.0,0.0,0.0,0.0,0.0,0.0,0.0,0.0,0.0,0.0,0.0,0.0,0.0,0.0,0.0,0.0,0.0,0.0,0.0,0.0,0.0,0.0,1.6743,1.7933,1.831,1.7925,1.7913,1.7298,0.0,0.0,0.0,0.0,0.0,0.0,0.0,0.0,0.0,0.0,0.0,0.0,0.0,0.0,0.0,0.0,0.0,0.0,0.0,0.0,0.0,0.0,0.0,0.0,0.0,0.0,0.0,0.0,0.0,0.0,0.0,0.0,0.0,0.0,0.0,0.0,0.0,0.0,0.0,0.0,0.0,0.0,0.0,0.0,0.0,0.0,0.0,0.0,0.0,0.0,0.0,0.0,0.0,0.0,0.0,0.0,0.0,0.0,0.0,0.0,0.0,0.0,0.0,0.0,0.0,0.0,0.0,0.0,0.0,0.0,0.0,0.0,0.0,0.0,0.0,0.0,0.0,0.0,0.0,0.0,0.0,0.0,0.0,0.0,0.0,0.0,0.0,0.0,0.0,0.0,0.0,0.0,0.0,0.0,0.0,0.0,0.0,0.0,0.0,0.0,0.0,0.0,0.0,0.0,0.0,0.0,0.0,0.0,0.0,1.8958,2.0651,2.0613,1.8799,1.8402,1.7829,0.0,0.0,0.0,0.0,0.0,0.0,0.0,0.0,0.0,0.0,0.0,0.0,0.0,0.0,0.0,0.0,0.0,0.0,0.0,0.0,0.0,0.0,0.0,0.0,0.0,0.0,0.0,0.0,0.0,0.0,0.0,0.0,0.0,0.0,0.0,0.0,0.0,0.0,0.0,0.0,0.0,0.0,0.0,0.0,0.0,0.0,0.0,0.0,0.0,0.0,0.0,0.0,0.0,0.0,0.0,0.0,0.0,0.0,0.0,0.0,0.0,0.0,0.0,0.0,0.0,0.0,0.0,0.0,0.0,0.0,0.0,0.0,0.0,0.0,0.0,0.0,0.0,0.0,0.0,0.0,0.0,0.0,0.0,0.0,0.0,0.0,0.0,0.0,0.0,0.0,0.0,0.0,0.0,0.0,0.0,0.0,0.0,0.0,0.0,0.0,0.0,0.0,0.0,0.0,0.0,0.0,0.0,0.0,1.8789,2.0509,2.2481,2.2757,2.1216,1.9824,1.871,0.0,0.0,0.0,0.0,0.0,0.0,0.0,0.0,0.0,0.0,0.0,0.0,0.0,0.0,0.0,0.0,0.0,0.0,0.0,0.0,0.0,0.0,0.0,0.0,0.0,0.0,0.0,0.0,0.0,0.0,0.0,0.0,0.0,0.0,0.0,0.0,0.0,0.0,0.0,0.0,0.0,0.0,0.0,0.0,0.0,0.0,0.0,0.0,0.0,0.0,0.0,0.0,0.0,0.0,0.0,0.0,0.0,0.0,0.0,0.0,0.0,0.0,0.0,0.0,0.0,0.0,0.0,0.0,0.0,0.0,0.0,0.0,0.0,0.0,0.0,0.0,0.0,0.0,0.0,0.0,0.0,0.0,0.0,0.0,0.0,0.0,0.0,0.0,0.0,0.0,0.0,0.0,0.0,0.0,0.0,0.0,0.0,0.0,0.0,0.0,0.0,0.0,0.0,0.0,0.0,0.0,0.0,0.0,1.9835,2.1691,2.3592,2.4423,2.4263,2.1716,1.9736,0.0,0.0,0.0,0.0,0.0,0.0,0.0,0.0,0.0,0.0,0.0,0.0,0.0,0.0,0.0,0.0,0.0,0.0,0.0,0.0,0.0,0.0,0.0,0.0,0.0,0.0,0.0,0.0,0.0,0.0,0.0,0.0,0.0,0.0,0.0,0.0,0.0,0.0,0.0,0.0,0.0,0.0,0.0,0.0,0.0,0.0,0.0,0.0,0.0,0.0,0.0,0.0,0.0,0.0,0.0,0.0,0.0,0.0,0.0,0.0,0.0,0.0,0.0,0.0,0.0,0.0,0.0,0.0,0.0,0.0,0.0,0.0,0.0,0.0,0.0,0.0,0.0,0.0,0.0,0.0,0.0,0.0,0.0,0.0,0.0,0.0,0.0,0.0,0.0,0.0,0.0,0.0,0.0,0.0,0.0,0.0,0.0,0.0,0.0,0.0,0.0,0.0,0.0,0.0,0.0,0.0,0.0,0.0,2.0376,2.2942,2.3751,2.4371,2.4783,2.209,2.0323,0.0,0.0,0.0,0.0,0.0,0.0,0.0,0.0,0.0,0.0,0.0,0.0,0.0,0.0,0.0,0.0,0.0,0.0,0.0,0.0,0.0,0.0,0.0,0.0,0.0,0.0,0.0,0.0,0.0,0.0,0.0,0.0,0.0,0.0,0.0,0.0,0.0,0.0,0.0,0.0,0.0,0.0,0.0,0.0,0.0,0.0,0.0,0.0,1.8858,0.0,0.0,0.0,0.0,0.0,0.0,0.0,0.0,0.0,0.0,0.0,0.0,0.0,0.0,0.0,0.0,0.0,0.0,0.0,0.0,0.0,0.0,0.0,0.0,0.0,0.0,0.0,0.0,0.0,0.0,0.0,0.0,0.0,0.0,0.0,0.0,0.0,0.0,0.0,0.0,0.0,0.0,0.0,0.0,0.0,0.0,0.0,0.0,0.0,0.0,0.0,0.0,0.0,0.0,0.0,0.0,0.0,0.0,0.0,2.0591,2.2896,2.3732,2.4376,2.4903,2.2923,2.1245,0.0,0.0,0.0,0.0,0.0,0.0,0.0,0.0,0.0,0.0,0.0,0.0,0.0,0.0,0.0,0.0,0.0,0.0,0.0,0.0,0.0,0.0,0.0,0.0,0.0,0.0,0.0,0.0,0.0,0.0,0.0,0.0,0.0,0.0,0.0,0.0,0.0,0.0,0.0,0.0,0.0,0.0,0.0,0.0,0.0,0.0,0.0,0.0,0.0,0.0,0.0,0.0,0.0,0.0,0.0,0.0,0.0,0.0,0.0,0.0,0.0,0.0,0.0,0.0,0.0,0.0,0.0,0.0,0.0,0.0,0.0,0.0,0.0,0.0,0.0,0.0,0.0,0.0,0.0,0.0,0.0,0.0,0.0,0.0,0.0,0.0,0.0,0.0,0.0,0.0,0.0,0.0,0.0,0.0,0.0,0.0,0.0,0.0,0.0,0.0,0.0,0.0,0.0,0.0,0.0,0.0,0.0,1.8612,2.0659,2.268,2.3461,2.424,2.5071,2.3828,2.2235,2.04,0.0,0.0,0.0,0.0,0.0,0.0,0.0,0.0,0.0,0.0,0.0,0.0,0.0,0.0,0.0,0.0,0.0,0.0,0.0,0.0,0.0,0.0,0.0,0.0,0.0,0.0,0.0,0.0,0.0,0.0,0.0,0.0,0.0,0.0,0.0,0.0,0.0,0.0,1.7699,1.824,0.0,0.0,0.0,0.0,0.0,0.0,0.0,0.0,2.0146,0.0,0.0,0.0,0.0,0.0,0.0,0.0,0.0,0.0,0.0,0.0,0.0,0.0,0.0,0.0,0.0,0.0,0.0,0.0,0.0,0.0,0.0,0.0,0.0,0.0,0.0,0.0,0.0,0.0,0.0,0.0,0.0,0.0,0.0,0.0,0.0,0.0,0.0,0.0,0.0,0.0,0.0,0.0,0.0,0.0,0.0,0.0,0.0,0.0,0.0,0.0,0.0,0.0,0.0,0.0,0.0,1.7541,1.812,2.0188,2.3755,2.3201,2.3799,2.5565,2.4202,2.2512,2.0678,0.0,0.0,0.0,0.0,0.0,0.0,0.0,0.0,0.0,0.0,0.0,0.0,0.0,0.0,0.0,0.0,0.0,0.0,0.0,0.0,0.0,0.0,0.0,0.0,0.0,0.0,0.0,0.0,0.0,0.0,0.0,0.0,0.0,0.0,0.0,0.0,0.0,0.0,0.0,1.9908,1.9971,0.0,0.0,0.0,0.0,0.0,0.0,0.0,0.0,2.0972,0.0,0.0,0.0,0.0,0.0,0.0,0.0,0.0,0.0,0.0,0.0,0.0,0.0,0.0,0.0,0.0,0.0,0.0,0.0,0.0,0.0,0.0,0.0,0.0,0.0,0.0,0.0,0.0,0.0,0.0,0.0,0.0,0.0,0.0,0.0,0.0,0.0,0.0,0.0,0.0,0.0,0.0,0.0,0.0,0.0,0.0,0.0,0.0,0.0,0.0,0.0,0.0,0.0,0.0,0.0,1.7257,1.8856,2.0888,2.3476,2.332,2.4052,2.5697,2.4205,2.2573,0.0,0.0,0.0,0.0,0.0,0.0,0.0,0.0,0.0,0.0,0.0,0.0,0.0,0.0,0.0,0.0,0.0,0.0,0.0,0.0,0.0,0.0,0.0,0.0,0.0,0.0,0.0,0.0,0.0,0.0,0.0,0.0,0.0,0.0,0.0,0.0,0.0,0.0,0.0,0.0,2.0782,2.1068,2.2062,0.0,0.0,0.0,0.0,0.0,0.0,2.2084,2.1428,0.0,0.0,0.0,0.0,0.0,0.0,0.0,0.0,0.0,0.0,0.0,0.0,0.0,0.0,0.0,0.0,0.0,0.0,0.0,0.0,0.0,0.0,0.0,0.0,0.0,0.0,0.0,0.0,0.0,0.0,0.0,0.0,0.0,0.0,0.0,0.0,0.0,0.0,0.0,0.0,0.0,0.0,0.0,0.0,0.0,0.0,0.0,0.0,0.0,0.0,0.0,0.0,0.0,0.0,0.0,1.7169,1.9553,2.1648,2.337,2.3675,2.4434,2.5769,2.4214,2.2488,0.0,0.0,0.0,0.0,0.0,0.0,0.0,0.0,0.0,0.0,0.0,0.0,0.0,0.0,0.0,0.0,0.0,0.0,0.0,0.0,0.0,0.0,0.0,0.0,0.0,0.0,0.0,0.0,0.0,0.0,0.0,0.0,0.0,0.0,0.0,0.0,0.0,0.0,0.0,0.0,0.0,2.1983,2.307,2.3578,0.0,0.0,0.0,0.0,2.3324,2.2752,0.0,0.0,0.0,0.0,0.0,0.0,0.0,0.0,0.0,0.0,0.0,0.0,0.0,0.0,0.0,0.0,0.0,0.0,0.0,0.0,0.0,0.0,0.0,0.0,0.0,0.0,0.0,0.0,0.0,0.0,0.0,0.0,0.0,0.0,0.0,0.0,0.0,0.0,0.0,0.0,0.0,0.0,0.0,0.0,0.0,0.0,0.0,0.0,0.0,0.0,0.0,0.0,0.0,0.0,0.0,0.0,1.7956,1.9253,2.1408,2.4371,2.4269,2.469,2.6034,2.3949,2.2273,0.0,0.0,0.0,0.0,0.0,0.0,0.0,0.0,0.0,0.0,0.0,0.0,0.0,0.0,0.0,0.0,0.0,0.0,0.0,0.0,0.0,0.0,0.0,0.0,0.0,0.0,0.0,0.0,0.0,0.0,0.0,0.0,0.0,0.0,0.0,0.0,0.0,0.0,0.0,0.0,0.0,2.2752,2.3843,2.4499,2.477,0.0,0.0,2.6533,2.5897,2.5722,0.0,0.0,0.0,0.0,0.0,0.0,0.0,0.0,0.0,0.0,0.0,0.0,0.0,0.0,0.0,0.0,0.0,0.0,0.0,0.0,0.0,0.0,0.0,0.0,0.0,0.0,0.0,0.0,0.0,0.0,0.0,0.0,0.0,0.0,0.0,0.0,0.0,0.0,0.0,0.0,0.0,0.0,0.0,0.0,0.0,0.0,0.0,0.0,0.0,0.0,0.0,0.0,0.0,0.0,0.0,1.6937,1.8042,2.074,2.2943,2.4338,2.4695,2.5184,2.5977,2.3828,2.2297,0.0,0.0,0.0,0.0,0.0,0.0,0.0,0.0,0.0,0.0,0.0,0.0,0.0,0.0,0.0,0.0,0.0,0.0,0.0,0.0,0.0,0.0,0.0,0.0,0.0,0.0,0.0,0.0,0.0,0.0,0.0,0.0,0.0,0.0,0.0,0.0,0.0,0.0,0.0,0.0,0.0,0.0,2.4499,2.5421,0.0,0.0,0.0,2.6819,2.5723,0.0,0.0,0.0,0.0,0.0,0.0,0.0,0.0,0.0,0.0,0.0,0.0,0.0,0.0,0.0,0.0,0.0,0.0,0.0,0.0,0.0,0.0,0.0,0.0,0.0,0.0,0.0,0.0,0.0,0.0,0.0,0.0,0.0,0.0,0.0,0.0,0.0,0.0,0.0,0.0,0.0,0.0,0.0,0.0,0.0,0.0,0.0,0.0,0.0,0.0,0.0,0.0,0.0,0.0,0.0,0.0,0.0,1.8269,2.2181,2.4396,2.4685,2.5258,2.5663,2.588,2.4057,0.0,0.0,0.0,0.0,0.0,0.0,0.0,0.0,0.0,0.0,0.0,0.0,0.0,0.0,0.0,0.0,0.0,0.0,0.0,0.0,0.0,0.0,0.0,0.0,0.0,0.0,0.0,1.1721,0.0,0.0,0.0,0.0,0.0,0.0,0.0,0.0,0.0,0.0,0.0,0.0,0.0,0.0,2.4277,2.523,2.6263,2.6899,0.0,0.0,2.7153,2.6295,2.7105,2.7232,0.0,0.0,0.0,0.0,0.0,0.0,0.0,0.0,0.0,0.0,0.0,0.0,0.0,0.0,0.0,0.0,0.0,0.0,0.0,0.0,0.0,0.0,0.0,0.0,0.0,0.0,0.0,0.0,0.0,0.0,0.0,0.0,0.0,0.0,0.0,0.0,0.0,0.0,0.0,0.0,0.0,0.0,0.0,0.0,0.0,0.0,0.0,0.0,0.0,0.0,0.0,0.0,0.0,0.0,1.8433,1.9552,2.2755,2.5074,2.6342,2.5974,2.5928,2.6158,2.4854,2.3285,0.0,0.0,0.0,0.0,0.0,0.0,0.0,0.0,0.0,0.0,0.0,0.0,0.0,0.0,0.0,0.0,0.0,0.0,0.0,0.0,0.0,0.0,0.0,0.0,0.0,0.0,0.0,0.0,0.0,0.0,0.0,0.0,0.0,0.0,0.0,0.0,0.0,0.0,0.0,0.0,0.0,2.5262,2.6041,2.6978,2.7884,0.0,2.8344,2.8344,2.8916,2.9345,2.8948,2.6867,0.0,0.0,0.0,0.0,0.0,0.0,0.0,0.0,0.0,0.0,0.0,0.0,0.0,0.0,0.0,0.0,0.0,0.0,0.0,0.0,0.0,0.0,0.0,0.0,0.0,0.0,0.0,0.0,0.0,0.0,0.0,0.0,0.0,0.0,0.0,0.0,0.0,0.0,0.0,0.0,0.0,0.0,0.0,0.0,0.0,0.0,0.0,0.0,0.0,0.0,0.0,0.0,0.0,1.9181,1.9602,2.3503,2.5747,2.6046,2.6085,2.6122,2.6218,2.4927,2.3587,0.0,0.0,0.0,0.0,0.0,0.0,0.0,0.0,0.0,0.0,0.0,0.0,0.0,0.0,0.0,0.0,0.0,0.0,0.0,0.0,0.0,0.0,0.0,0.0,0.0,0.0,0.0,0.0,1.5704,1.6201,1.6074,0.0,0.0,0.0,0.0,0.0,0.0,0.0,0.0,0.0,0.0,2.5914,2.7248,2.7963,0.0,0.0,2.898,2.89,2.8964,2.9457,2.925,2.7598,2.7137,0.0,0.0,0.0,0.0,0.0,0.0,0.0,0.0,0.0,0.0,0.0,0.0,0.0,0.0,0.0,0.0,0.0,0.0,0.0,0.0,0.0,0.0,0.0,0.0,0.0,0.0,0.0,0.0,0.0,0.0,0.0,0.0,0.0,0.0,0.0,0.0,0.0,0.0,0.0,0.0,0.0,0.0,0.0,0.0,0.0,0.0,0.0,0.0,0.0,0.0,0.0,0.0,1.9823,1.9826,2.4197,2.6375,2.6194,2.6447,2.646,2.6206,2.5397,2.4275,0.0,0.0,0.0,0.0,0.0,0.0,0.0,0.0,0.0,0.0,0.0,0.0,0.0,0.0,0.0,0.0,0.0,0.0,0.0,0.0,0.0,0.0,0.0,0.0,0.0,0.0,0.0,0.0,1.6501,1.6874,1.6562,0.0,0.0,0.0,0.0,0.0,0.0,0.0,0.0,0.0,0.0,2.6785,2.8058,2.863,2.9059,2.9409,2.9266,2.9155,2.9218,2.9568,2.9488,2.8449,0.0,0.0,0.0,0.0,0.0,0.0,0.0,0.0,0.0,0.0,0.0,0.0,0.0,0.0,0.0,0.0,0.0,0.0,0.0,0.0,0.0,0.0,0.0,0.0,0.0,0.0,0.0,1.1238,0.0,0.0,1.1904,0.0,0.0,0.0,0.0,0.0,0.0,0.0,0.0,0.0,0.0,0.0,0.0,0.0,0.0,0.0,0.0,0.0,0.0,0.0,0.0,0.0,0.0,2.0395,2.0649,2.4785,2.6979,2.6991,2.7256,2.7003,2.6278,2.6447,2.5458,2.3193,0.0,0.0,0.0,0.0,0.0,0.0,0.0,0.0,0.0,0.0,0.0,0.0,0.0,0.0,0.0,0.0,0.0,0.0,0.0,0.0,0.0,0.0,0.0,0.0,0.0,0.0,1.3833,1.5016,1.6163,0.0,0.0,0.0,0.0,0.0,0.0,0.0,0.0,0.0,2.4854,2.6867,2.817,2.8233,2.8837,2.9425,2.979,2.925,2.9139,3.0108,3.0013,2.9806,0.0,0.0,0.0,0.0,0.0,0.0,0.0,0.0,0.0,0.0,0.0,0.0,0.0,0.0,0.0,0.0,0.0,0.0,0.0,0.0,0.0,0.0,0.0,0.0,0.0,0.0,0.0,1.383,1.4354,0.0,0.0,0.0,0.0,0.0,0.0,0.0,0.0,0.0,0.0,0.0,2.0134,2.0219,0.0,0.0,0.0,0.0,0.0,0.0,0.0,0.0,0.0,0.0,0.0,0.0,2.0891,2.1374,2.4672,2.658,2.6761,2.6858,2.6942,2.7015,2.6423,2.5313,2.3635,0.0,0.0,0.0,0.0,0.0,0.0,0.0,0.0,0.0,0.0,0.0,0.0,0.0,0.0,0.0,0.0,0.0,0.0,0.0,0.0,0.0,0.0,0.0,0.0,0.0,1.6139,0.0,0.0,0.0,0.0,0.0,0.0,0.0,0.0,0.0,0.0,2.3169,2.4827,2.6595,2.7248,2.7884,2.8805,2.9345,2.9933,0.0,0.0,0.0,0.0,0.0,0.0,0.0,0.0,0.0,0.0,0.0,0.0,0.0,2.9104,2.8557,2.7366,2.7323,2.7831,2.9037,0.0,0.0,0.0,0.0,0.0,0.0,0.0,0.0,0.0,0.0,0.0,0.0,0.0,0.0,1.6247,1.6486,1.7366,0.0,0.0,0.0,0.0,0.0,0.0,0.0,0.0,2.0847,2.1402,2.1643,2.1812,2.1897,2.186,2.1354,2.0027,0.0,0.0,0.0,0.0,0.0,0.0,0.0,0.0,2.1671,2.2073,2.4985,2.6592,2.6773,2.6954,2.7075,2.7135,2.6206,2.5373,2.4602,2.3623,2.2721,0.0,0.0,0.0,0.0,0.0,0.0,0.0,0.0,0.0,0.0,0.0,0.0,0.0,0.0,0.0,0.0,0.0,0.0,0.0,0.0,0.0,0.0,0.0,1.7443,0.0,0.0,0.0,0.0,0.0,0.0,0.0,0.0,0.0,2.2443,2.4187,2.6019,2.7657,2.8122,2.8583,2.9377,0.0,0.0,0.0,0.0,0.0,0.0,0.0,3.0172,3.006,3.0156,3.0378,3.0839,3.0998,3.1045,3.1045,0.0,0.0,3.0111,3.0497,3.1294,3.1843,3.1998,3.2287,3.2957,3.3411,3.4143,0.0,0.0,0.0,0.0,1.4509,0.0,0.0,0.0,1.8497,1.8505,0.0,1.9244,0.0,0.0,0.0,0.0,1.9382,2.0877,0.0,0.0,2.3678,2.4214,2.3459,2.3435,2.3447,2.3387,2.25,2.1897,2.1643,2.0803,2.0108,0.0,0.0,0.0,0.0,0.0,2.2717,2.2867,2.5556,2.7003,2.7015,2.7498,2.7401,2.6653,2.5892,2.5699,2.6061,2.4238,2.3206,2.3097,2.0953,0.0,0.0,0.0,0.0,0.0,0.0,0.0,0.0,0.0,0.0,0.0,0.0,0.0,0.0,0.0,0.0,0.0,0.0,0.0,0.0,1.7249,0.0,0.0,0.0,0.0,0.0,0.0,0.0,0.0,0.0,2.3751,2.3651,2.4995,2.651,2.8032,0.0,0.0,0.0,0.0,3.1157,3.0521,3.041,3.0442,3.0473,3.1284,3.2015,3.2348,0.0,0.0,3.3208,3.2237,3.1681,3.1617,3.2348,3.2602,3.2642,3.339,3.4145,3.439,3.4886,3.5366,3.5686,3.6309,3.7161,1.6963,0.0,0.0,0.0,0.0,1.6735,1.8068,1.9511,2.0556,2.1024,2.1207,2.165,0.0,0.0,0.0,0.0,0.0,0.0,2.3812,2.4278,2.5519,2.569,2.4878,2.5059,2.5144,2.5047,2.4649,2.4673,2.5132,2.4711,2.2902,1.9849,0.0,0.0,0.0,0.0,2.3318,2.4057,2.5673,2.6544,2.6749,2.7075,2.6966,2.6363,2.6315,2.5914,2.5409,2.5325,2.4697,2.3406,2.3043,0.0,0.0,0.0,0.0,0.0,0.0,0.0,0.0,0.0,0.0,0.0,0.0,0.0,0.0,0.0,0.0,0.0,0.0,0.0,1.7781,1.8988,1.9579,0.0,0.0,0.0,0.0,0.0,0.0,0.0,0.0,0.0,2.508,2.6307,2.7642,0.0,0.0,2.9361,2.9774,3.0934,3.1776,3.1808,3.203,0.0,3.2888,3.2571,3.2475,3.3079,3.4048,3.4668,3.4477,3.5017,3.5494,3.5446,3.6354,3.7041,3.6777,3.6087,3.5988,3.6967,3.7424,3.791,3.8548,3.9061,3.9674,1.8692,1.7908,1.7303,1.7001,1.7083,1.841,1.9798,2.129,2.267,2.3151,2.3007,2.3526,2.279,2.1231,2.2087,0.0,0.0,0.0,2.608,2.6879,2.7527,2.7676,2.729,2.7573,2.7419,2.6984,2.651,2.6364,2.6527,2.5928,2.446,2.2311,0.0,2.2381,2.2229,2.347,2.4388,2.4903,2.6001,2.6629,2.6785,2.6954,2.6822,2.6411,2.6435,2.6122,2.5385,2.5615,2.5289,2.4205,2.3953,2.3122,0.0,0.0,0.0,0.0,0.0,0.0,0.0,0.0,0.0,0.0,0.0,1.5849,1.5016,0.0,0.0,0.0,1.8541,1.8951,1.9652,2.0291,0.0,0.0,0.0,0.0,0.0,0.0,0.0,2.1127,2.4044,2.6277,2.6835,2.8191,2.9472,3.0235,3.0394,3.0585,3.0998,0.0,3.2825,3.3015,3.3238,3.3572,3.4112,3.4032,3.4112,3.4811,3.543,3.5844,3.5891,3.6702,3.7258,3.7194,3.7746,3.8191,3.8071,3.7351,3.735,3.9014,3.9772,4.0327,4.1016,4.1244,4.1629,2.0081,2.01,1.839,1.7889,1.8389,2.0234,2.1616,2.2607,2.4461,2.4662,2.3616,2.4783,2.419,2.2237,2.4059,0.0,2.5701,2.7388,2.8532,2.9295,2.9648,2.9902,3.0226,3.0407,3.0033,2.8932,2.8134,2.7406,2.6689,2.553,2.5252,2.5904,2.5916,2.5264,2.4082,2.5047,2.5651,2.5518,2.6423,2.693,2.7027,2.7003,2.6882,2.6641,2.6363,2.6085,2.5796,2.5361,2.5204,2.5361,2.4193,2.3519,2.3351,0.0,0.0,0.0,0.0,0.0,0.0,0.0,0.0,0.0,0.0,0.0,0.0,0.0,0.0,2.0219,2.0859,0.0,2.1921,2.1329,0.0,0.0,0.0,2.1316,2.2297,2.2225,2.2571,2.4085,0.0,0.0,2.8553,3.0346,3.1589,3.1984,3.2554,3.2984,3.3112,3.3635,3.4128,3.4128,3.4223,3.4366,3.4763,3.5478,3.6209,3.6781,3.7146,3.7115,3.7131,3.7432,3.7544,3.7321,3.7242,3.7349,3.7317,3.781,3.8703,4.0491,4.1488,4.2294,4.2637,4.2858,4.3078,2.0422,2.0431,1.9987,1.976,1.978,2.0778,2.1788,2.2686,2.3858,2.4468,2.4614,2.4999,2.4735,2.4392,2.6095,2.7468,2.8606,3.0716,3.1421,3.1008,3.1775,3.1714,3.1053,3.1123,3.0766,3.0162,2.9717,2.8907,2.7799,2.751,2.7148,2.6761,2.6749,2.6085,2.4735,2.4866,2.5277,2.6025,2.5892,2.6218,2.6991,2.6834,2.6701,2.6641,2.6363,2.6001,2.5554,2.5602,2.5494,2.5083,2.5132,2.4723,2.3724,2.2887,0.0,0.0,0.0,0.0,0.0,0.0,0.0,0.0,0.0,1.8493,1.7744,0.0,2.0291,0.0,2.186,2.285,2.2854,2.2959,0.0,0.0,2.2588,2.2648,2.2903,2.3164,2.3424,2.3573,2.5212,2.6626,2.7378,2.9953,3.2108,3.2895,3.3006,3.3143,3.3683,3.4604,3.5208,3.5256,3.5828,3.6304,3.6145,3.6527,3.694,3.7099,3.7353,3.7544,3.7544,3.7845,3.8036,3.7973,3.8163,3.8476,3.8868,3.9156,3.9524,4.0451,4.1159,4.185,4.2682,4.3573,4.4251,2.1007,2.1083,2.0894,2.08,2.0834,2.1225,2.1644,2.2168,2.3548,2.4182,2.4458,2.4879,2.5023,2.5313,2.6791,2.7791,2.8465,3.0439,3.1473,3.1751,3.2543,3.3098,3.3487,3.3606,3.2952,3.1543,3.1166,3.0145,2.8462,2.8258,2.8041,2.7739,2.7606,2.7063,2.6109,2.5361,2.5277,2.5868,2.594,2.6423,2.7329,2.7123,2.6882,2.6641,2.6254,2.5796,2.5289,2.5289,2.5156,2.4878,2.5132,2.4914,2.3977,2.3406,2.2879,0.0,0.0,0.0,0.0,0.0,0.0,0.0,0.0,0.0,0.0,0.0,2.1764,2.186,2.3261,2.3961,2.3442,2.3562,2.3635,2.3538,2.355,2.3756,2.4226,2.4444,2.4589,2.4673,2.6037,2.7285,2.7904,3.0076,3.1874,3.267,3.3255,3.4018,3.4925,3.5685,3.6082,3.6273,3.6749,3.7131,3.7067,3.7242,3.7432,3.7591,3.7766,3.7957,3.81,3.829,3.837,3.8259,3.8354,3.8558,3.8687,3.8792,3.8988,3.9832,4.0731,4.1599,4.2586,4.3145,4.3651,2.1603,2.1716,2.1385,2.1338,2.1507,2.158,2.1568,2.151,2.3216,2.4041,2.409,2.4854,2.524,2.5616,2.6923,2.7376,2.7252,2.8794,3.0424,3.1915,3.2464,3.3819,3.5974,3.6032,3.4909,3.2785,3.2292,3.0849,2.8608,2.8379,2.8318,2.8415,2.8174,2.7763,2.7148,2.6013,2.5348,2.536,2.6178,2.7003,2.7642,2.7341,2.6954,2.6496,2.6025,2.5554,2.5071,2.4806,2.4661,2.4625,2.4589,2.4504,2.4335,2.3611,2.3218,0.0,2.1824,0.0,0.0,0.0,0.0,0.0,0.0,0.0,0.0,2.2597,2.3393,2.3916,2.4566,2.471,2.4121,2.3937,2.4001,2.4733,2.4625,2.4866,2.5747,2.5675,2.5735,2.6254,2.7159,2.8011,2.886,3.0173,3.1291,3.1867,3.311,3.4518,3.6055,3.6474,3.6765,3.7146,3.7194,3.7321,3.756,3.7687,3.7814,3.8052,3.8131,3.8274,3.8449,3.8497,3.8449,3.8195,3.8116,3.802,3.7718,3.7779,3.7947,3.8759,3.9966,4.1161,4.2326,4.271,4.2873,2.166,2.1546,2.1631,2.1593,2.1545,2.1487,2.1752,2.2091,2.3066,2.4359,2.5739,2.5914,2.6025,2.6173,2.7774,2.8452,2.8513,3.0184,3.1067,3.1402,3.1427,3.2757,3.4969,3.3591,3.3108,3.3373,3.1894,3.0216,2.862,2.8572,2.8125,2.7353,2.728,2.6761,2.5769,0.0,0.0,0.0,2.6435,2.6918,2.6834,2.617,2.5759,2.5663,2.5566,0.0,2.4975,2.4999,2.4866,2.4637,2.442,0.0,0.0,0.0,0.0,0.0,0.0,0.0,0.0,0.0,0.0,0.0,2.2858,2.2911,2.3002,2.3466,2.4094,2.5023,2.4999,2.5168,2.5723,2.5723,2.5759,2.5892,2.5868,2.5928,2.6134,2.6109,2.6278,2.6798,2.7002,2.7365,2.8088,2.9307,3.036,3.077,3.2046,3.3628,3.5359,3.6357,3.7071,3.748,3.7528,3.7575,3.7655,3.7893,3.7957,3.7893,3.802,3.81,3.7957,3.7893,3.7877,3.7782,3.7782,3.7766,3.7687,3.7671,3.7763,3.7947,3.8824,4.0132,4.2161,4.3432,4.4307,2.1934,2.1934,2.2038,2.2028,0.0,2.182,2.1934,2.2172,2.3171,2.4553,2.613,2.6218,2.6218,2.623,2.7146,2.7473,2.7574,2.855,2.9393,3.0042,3.0474,3.1728,3.3553,3.2881,3.2457,3.2314,3.1336,3.0128,2.862,2.8475,2.8137,2.7618,2.7473,2.7148,2.6629,2.6604,2.6423,2.595,2.6568,2.6954,2.7184,2.6689,2.6351,2.6218,2.5965,0.0,0.0,0.0,0.0,0.0,0.0,0.0,0.0,2.4698,2.4614,2.483,2.4374,2.4226,2.4251,2.4398,2.4494,2.4456,2.4723,2.4745,2.4094,2.4674,2.5446,2.5889,2.6025,2.6182,2.6568,2.6508,2.6532,2.6761,2.6701,2.6713,2.6954,2.7003,2.7111,2.7341,2.7413,2.757,2.7956,2.8556,2.9243,2.9589,3.0857,3.2404,3.4031,3.5449,3.6544,3.7454,3.7671,3.7671,3.7687,3.7798,3.7988,3.7941,3.7941,3.7941,3.7941,3.7782,3.7671,3.7671,3.7671,3.7671,3.7671,3.7671,3.7671,3.7763,3.8483,3.9524,4.1279,4.2564,4.3597,2.233,2.2453,2.2482,2.2501,2.2491,2.2321,2.2286,2.2423,2.3406,0.0,0.0,2.6363,2.6363,2.6363,2.6363,2.6363,2.6375,2.6604,2.734,2.8565,2.926,3.0439,3.178,3.2077,3.1665,3.0734,3.0501,2.974,2.8475,2.8294,2.8174,2.8113,2.792,2.7787,2.7751,2.7739,2.7401,2.6749,2.6665,2.6954,2.757,2.7256,2.6966,2.6749,2.6315,2.5977,2.5759,2.5468,2.5348,2.5348,2.5397,2.5337,2.518,2.5252,2.512,2.4747,2.4794,2.4794,2.4806,2.5458,2.588,2.5916,2.658,2.6435,2.5156,2.6109,2.6798,2.6756,2.7039,2.716,2.716,2.6979,2.7015,2.7449,2.7292,2.7341,2.7739,2.7811,2.7787,2.786,2.7872,2.798,2.8234,2.827,2.8355,2.8752,2.9733,3.1162,3.2852,3.4823,3.6421,3.7486,3.7671,3.7671,3.7671,3.7766,3.7861,3.8004,3.7909,3.7861,3.7988,3.7877,3.7687,3.7671,3.7671,3.7671,3.7671,3.7671,3.7671,3.7671,3.8483,3.9399,4.0402,4.1398,4.2442,2.2794,2.268,2.285,2.2926,2.2916,2.2897,2.3079,2.3405,2.403,2.5238,2.6918,2.6918,2.6918,2.6918,2.6918,2.6918,2.6918,2.6966,2.719,2.7579,2.7701,2.8691,3.0307,2.9098,2.9123,3.008,2.9093,2.8326,2.7968,2.8113,2.8089,2.7896,2.7824,2.7715,2.7498,2.7473,2.7304,2.6979,2.6749,2.6689,2.6785,2.6097,2.5699,2.5663,2.5615,2.553,2.5408,2.547,2.5348,2.5348,2.5144,2.5385,2.6013,2.6073,2.6327,2.6906,2.6966,2.6979,2.6966,2.7292,2.757,2.7799,2.8149,2.7872,2.6822,2.7063,2.7401,2.7618,2.7667,2.7703,2.7703,2.7642,2.7642,2.7739,2.7727,2.7739,2.7836,2.7848,2.792,2.8125,2.8149,2.8246,2.8475,2.8548,2.856,2.8608,2.9088,3.0032,3.2664,3.5584,3.7301,3.7671,3.7671,3.7671,3.7687,3.7941,3.7973,3.7766,3.7957,3.7973,3.7798,3.7734,3.7671,3.7671,3.7671,3.7671,3.7671,3.7671,3.7671,3.7763,3.8408,3.9341,4.0453,4.1451,4.2478,2.1448,2.1667,2.2571,2.3011,2.3011,2.3011,2.3314,2.3799,2.4641,2.5428,2.6232,2.6755,2.7027,2.7027,2.7027,2.7027,2.7027,2.7027,2.7099,2.722,2.7353,2.7854,2.8531,2.8018,2.8185,2.8743,2.8307,2.8005,2.8029,2.8149,2.8222,2.8246,2.8246,2.8198,2.8077,2.8065,2.7932,2.7655,2.7123,2.6846,2.6846,2.6496,2.6303,2.6303,2.6303,2.6303,2.6303,2.6303,2.6375,2.6508,2.6399,2.6629,2.7244,2.7292,2.7461,2.7824,2.7993,2.7944,2.7655,2.7739,2.7932,2.8174,2.8186,2.8053,2.7703,2.7775,2.7896,2.8005,2.7896,2.7811,2.7811,2.7811,2.7872,2.8017,2.8029,2.8089,2.8222,2.8246,2.8306,2.8415,2.8427,2.8475,2.8608,2.862,2.862,2.862,2.9184,3.0414,3.1813,3.4464,3.673,3.7486,3.7671,3.7671,3.7687,3.7798,3.783,3.7687,3.7798,3.783,3.7687,3.7671,3.7687,3.7671,3.7671,3.7671,3.7687,3.7671,3.7671,3.7779,3.8123,3.9129,4.0526,4.2217,4.3561,2.0099,2.0739,2.1965,2.2802,2.3153,2.3105,2.3269,2.3808,2.488,2.5447,2.5591,2.6683,2.7208,2.7208,2.7208,2.7208,2.7208,2.7208,2.7208,2.7232,2.7413,2.751,2.7534,2.7727,2.7811,2.7836,2.7932,2.8101,2.8294,2.8415,2.8584,2.8777,2.8801,2.8777,2.8717,2.8705,2.8572,2.8282,2.7691,2.7304,2.7123,2.7172,2.7184,2.7123,2.7172,2.7208,2.7208,2.7208,2.7292,2.7498,2.751,2.7691,2.8077,2.8174,2.8222,2.8306,2.85,2.8475,2.8137,2.8077,2.8198,2.8451,2.8294,2.8258,2.8439,2.8415,2.8355,2.8282,2.8125,2.8005,2.8017,2.8017,2.8077,2.827,2.8294,2.8379,2.8572,2.862,2.8656,2.8693,2.8669,2.8632,2.8681,2.8656,2.862,2.8812,2.9663,3.0414,3.1067,3.3243,3.5413,3.673,3.7486,3.7671,3.7671,3.7671,3.7687,3.7671,3.7766,3.783,3.783,3.7845,3.7909,3.7957,3.7925,3.7957,3.7925,3.7925,3.7941,3.7988,3.8257,3.9039,4.0899,4.3026,4.4526,1.9466,2.0832,2.114,2.2074,2.3428,2.3379,2.3162,2.3308,2.4722,2.5249,2.5392,2.6993,2.7727,2.7739,2.7727,2.7715,2.7715,2.7739,2.7727,2.7715,2.7763,2.7775,2.7763,2.7799,2.7811,2.7872,2.8282,2.85,2.8584,2.9043,2.9296,2.9332,2.9332,2.9224,2.9019,2.8982,2.885,2.8596,2.8512,2.8125,2.7449,2.7618,2.7618,2.7401,2.7618,2.7739,2.7727,2.7739,2.7751,2.7775,2.7775,2.7799,2.7884,2.8077,2.8318,2.8572,2.862,2.8693,2.8862,2.891,2.8982,2.926,2.92,2.9175,2.9212,2.9043,2.8825,2.862,2.8548,2.8512,2.8548,2.8524,2.8512,2.8536,2.856,2.8596,2.862,2.862,2.8717,2.8958,2.8789,2.8705,2.8886,2.8765,2.8632,2.862,2.8812,2.9471,3.0592,3.2245,3.3938,3.5383,3.673,3.7578,3.7671,3.7671,3.7687,3.7702,3.7957,3.8116,3.8179,3.8354,3.8576,3.8402,3.8513,3.8497,3.8529,3.8592,3.8545,3.8559,3.8733,3.9396,4.1272,4.331,4.4581,1.7938,1.9656,2.06,2.2007,2.3503,2.354,2.3323,2.3203,2.5022,2.5625,2.5571,2.7378,2.8125,2.7824,2.7811,2.7811,2.7811,2.7811,2.7811,2.7811,2.7811,2.7811,2.7811,2.7811,2.7811,2.7836,2.8198,2.8463,2.8717,2.9308,2.9719,2.9864,2.9888,2.9827,2.9719,2.9562,2.9417,2.932,2.9163,2.8837,2.8427,2.8318,2.8234,2.8162,2.8234,2.8198,2.8065,2.8041,2.8041,2.8041,2.8041,2.8198,2.85,2.862,2.8801,2.9055,2.9091,2.9067,2.9019,2.9006,2.8994,2.8946,2.8934,2.8946,2.8946,2.8837,2.8729,2.8644,2.862,2.862,2.862,2.862,2.862,2.862,2.862,2.8632,2.862,2.8765,2.891,2.9006,2.9067,2.9043,2.8982,2.8789,2.8644,2.862,2.862,2.8908,2.965,3.1395,3.2883,3.3923,3.5928,3.747,3.7671,3.7671,3.7766,3.7973,3.8274,3.8481,3.8513,3.8576,3.8688,3.8703,3.8735,3.8735,3.8656,3.8688,3.8688,3.8941,4.0256,4.1224,4.2218,4.3968,4.5109,1.6453,1.873,2.0856,2.2437,2.3446,2.355,2.3379,2.3298,2.4888,2.5532,2.5821,2.7391,2.8117,2.8065,2.8029,2.8029,2.8029,2.8041,2.8029,2.8041,2.8041,2.8029,2.8041,2.8029,2.8065,2.8174,2.8427,2.8693,2.8982,2.9477,2.99,3.0069,3.0033,3.0033,3.0069,2.9827,2.9682,2.967,2.9489,2.9344,2.92,2.9043,2.8874,2.8753,2.8801,2.8741,2.8548,2.8463,2.8427,2.8427,2.8355,2.85,2.8874,2.891,2.8994,2.9175,2.926,2.9175,2.8922,2.891,2.8862,2.8753,2.8729,2.8765,2.8813,2.8837,2.8801,2.8741,2.8729,2.8717,2.8632,2.862,2.862,2.862,2.8669,2.8729,2.8753,2.8958,2.9151,2.9224,2.932,2.9308,2.9043,2.8789,2.862,2.862,2.862,2.8572,2.8799,3.0496,3.2143,3.2594,3.5069,3.6789,3.7531,3.7909,3.8052,3.8274,3.8608,3.8831,3.8862,3.8894,3.8989,3.918,3.9037,3.9021,3.9117,3.9053,3.8974,3.9403,4.0519,4.1975,4.2082,4.4032,4.5111,1.5262,1.8705,2.2078,2.3306,2.3351,2.337,2.3342,2.3349,2.4118,2.4887,2.5787,2.6771,2.7731,2.856,2.8536,2.8572,2.8572,2.8548,2.8536,2.8536,2.8548,2.8572,2.8584,2.8596,2.8693,2.8837,2.9103,2.9393,2.967,2.9755,2.9803,2.9803,2.9598,2.9586,2.9743,2.955,2.9429,2.9465,2.9405,2.9501,2.9695,2.9719,2.9453,2.9091,2.9236,2.9357,2.9296,2.9103,2.897,2.897,2.8717,2.862,2.8644,2.8656,2.8669,2.8705,2.8898,2.8922,2.8693,2.8681,2.8765,2.8946,2.8982,2.9091,2.926,2.9296,2.9188,2.9006,2.897,2.8874,2.8656,2.862,2.862,2.8632,2.885,2.8958,2.8982,2.9212,2.9489,2.9622,2.9526,2.932,2.9055,2.8789,2.8644,2.862,2.862,2.8536,2.8509,2.9627,3.1102,3.251,3.393,3.5365,3.7283,3.8036,3.8433,3.8688,3.8862,3.9196,3.9323,3.9434,3.9561,3.9657,3.9577,3.9561,3.9673,3.9673,3.9609,3.9981,4.0512,4.1448,4.1737,4.3209,4.437,1.5131,1.8648,2.2012,2.3474,2.3531,2.3531,2.3379,2.3225,2.4077,2.4929,2.5658,2.6618,2.7646,2.862,2.862,2.862,2.862,2.862,2.862,2.862,2.862,2.862,2.8644,2.8789,2.8813,2.8825,2.92,2.9453,2.9526,2.955,2.955,2.9538,2.9453,2.9453,2.9489,2.9284,2.9308,2.9586,2.9344,2.9369,2.9719,2.9634,2.9526,2.9538,2.9779,2.9839,2.9658,2.9405,2.9188,2.9019,2.8765,2.862,2.862,2.862,2.862,2.8632,2.8717,2.8717,2.8656,2.8777,2.891,2.9006,2.9175,2.9296,2.9381,2.9393,2.9296,2.9079,2.9019,2.8898,2.8693,2.862,2.862,2.8656,2.885,2.9031,2.9091,2.9381,2.9695,2.9731,2.9562,2.9357,2.9163,2.8886,2.8632,2.862,2.862,2.8487,2.8472,2.952,3.0942,3.2306,3.3925,3.5699,3.7375,3.8036,3.8449,3.8783,3.9069,3.9418,3.9625,3.9625,3.9704,3.9704,3.9752,3.98,3.9784,3.9816,3.9832,4.0059,4.0708,4.1145,4.1271,4.2912,4.3852,1.5583,1.8379,2.1197,2.2757,2.3342,2.3408,2.3238,2.3036,2.3718,2.4503,2.5464,2.6294,2.726,2.8428,2.862,2.862,2.862,2.862,2.862,2.862,2.862,2.8669,2.8753,2.885,2.8886,2.8922,2.9224,2.9369,2.9284,2.9284,2.9272,2.9272,2.92,2.92,2.9224,2.9019,2.9079,2.9296,2.9067,2.9103,2.9465,2.9381,2.9405,2.9646,2.9864,2.996,2.9912,2.9513,2.9248,2.9115,2.8813,2.862,2.862,2.862,2.862,2.862,2.862,2.8669,2.8753,2.8922,2.9079,2.926,2.9417,2.9562,2.9646,2.9586,2.9405,2.92,2.9043,2.891,2.8717,2.8693,2.8741,2.8777,2.8982,2.9175,2.9272,2.9586,2.967,2.9501,2.9175,2.9031,2.8982,2.8693,2.8512,2.8487,2.8487,2.8379,2.8326,2.9368,3.081,3.2125,3.394,3.5729,3.724,3.8116,3.8576,3.8926,3.926,3.9609,3.9768,3.9768,3.9768,3.9768,3.98,3.9832,3.9879,3.9927,3.9974,4.0136,4.0444,4.0934,4.1651,4.2647,4.3469,1.6517,1.7926,1.9779,2.1409,2.255,2.28,2.2816,2.2756,2.2827,2.3898,2.5442,2.5615,2.6777,2.8332,2.862,2.862,2.862,2.862,2.862,2.862,2.8644,2.8777,2.897,2.8825,2.8946,2.9272,2.9357,2.9248,2.9019,2.9019,2.9006,2.897,2.8801,2.8825,2.9006,2.8789,2.8656,2.8729,2.8705,2.8789,2.8982,2.9031,2.9139,2.9369,2.9405,2.9622,3.0105,2.9429,2.9139,2.9272,2.8886,2.8632,2.862,2.862,2.862,2.8656,2.8644,2.8765,2.8982,2.9055,2.9308,2.961,2.9779,2.99,3.0033,2.9924,2.9682,2.9381,2.9163,2.8934,2.8729,2.8801,2.8934,2.9019,2.9175,2.9441,2.9622,2.9743,2.9586,2.9103,2.8644,2.8258,2.8234,2.8234,2.821,2.821,2.8198,2.8125,2.8026,2.903,3.0531,3.2125,3.3712,3.5282,3.687,3.8227,3.8688,3.9117,3.945,3.9768,3.9768,3.9768,3.9768,3.9768,3.9911,3.9974,4.0245,4.0292,4.0388,4.0566,4.0761,4.086,4.1391,4.2126,4.3083,1.5822,1.6488,1.8142,1.9722,2.1199,2.1362,2.1785,2.2619,2.2708,2.3779,2.5259,2.5518,2.6681,2.8236,2.862,2.862,2.862,2.862,2.862,2.8656,2.8801,2.8922,2.9006,2.9115,2.9151,2.9103,2.8946,2.8825,2.8765,2.8753,2.8741,2.8717,2.8669,2.8669,2.8741,2.8669,2.8705,2.885,2.8717,2.8753,2.897,2.8837,2.8874,2.9079,2.897,2.9115,2.9586,2.9236,2.9067,2.9139,2.8813,2.862,2.862,2.862,2.8705,2.8862,2.8898,2.9006,2.926,2.9441,2.9598,2.9803,2.9972,3.0105,3.0202,3.0117,2.9851,2.9489,2.932,2.9115,2.8753,2.8693,2.8765,2.8741,2.9127,2.9344,2.9272,2.9248,2.9103,2.8789,2.8427,2.8222,2.8162,2.8077,2.7944,2.7956,2.7944,2.7872,2.7941,2.8588,2.9836,3.2098,3.3358,3.494,3.6823,3.8163,3.8656,3.9101,3.9498,3.9847,3.9847,3.9911,3.9895,3.9911,4.0038,4.0229,4.0515,4.0674,4.0753,4.0785,4.0901,4.0953,4.0956,4.18,4.318,1.49,1.5603,1.6599,1.8352,2.0267,2.0367,2.1206,2.2506,2.2595,2.3493,2.4751,2.4935,2.61,2.7742,2.8031,2.8236,2.8524,2.862,2.862,2.8669,2.8898,2.9006,2.9031,2.9175,2.9127,2.8886,2.8705,2.862,2.862,2.862,2.862,2.862,2.862,2.8632,2.862,2.8632,2.8717,2.8825,2.8705,2.8693,2.8801,2.8705,2.8705,2.8825,2.8705,2.8801,2.9079,2.8946,2.8922,2.8946,2.8765,2.8632,2.862,2.8632,2.8741,2.8946,2.9031,2.9163,2.9501,2.9682,2.9851,2.996,3.0117,3.0153,3.0069,2.9996,2.9707,2.9357,2.9151,2.8982,2.8705,2.8729,2.8717,2.8632,2.8994,2.9115,2.891,2.8681,2.8451,2.8174,2.7896,2.7848,2.7836,2.7799,2.7715,2.7775,2.7727,2.7739,2.8067,2.9042,3.0743,3.2594,3.4417,3.5974,3.7317,3.8116,3.8608,3.9053,3.9482,3.9832,4.0038,4.0229,4.0308,4.0324,4.0419,4.061,4.0864,4.096,4.1039,4.1039,4.1087,4.1219,4.1404,4.2791,4.4064,1.3784,1.5068,1.5167,1.6864,1.9355,1.9651,2.0646,2.2014,2.2406,2.3092,2.3961,2.4146,2.5216,2.6766,2.726,2.7742,2.8428,2.862,2.862,2.8693,2.8886,2.9006,2.9031,2.9055,2.8922,2.8693,2.8632,2.862,2.862,2.862,2.862,2.862,2.862,2.862,2.862,2.862,2.8632,2.8656,2.8632,2.8632,2.8644,2.8632,2.8632,2.8644,2.8632,2.8644,2.8681,2.8681,2.8753,2.8922,2.8741,2.862,2.862,2.8632,2.8789,2.9043,2.9055,2.9357,2.9695,2.9851,2.9936,3.0153,3.0177,3.0093,2.9876,2.9682,2.9441,2.9103,2.8874,2.8705,2.8693,2.8789,2.8801,2.8656,2.8777,2.8789,2.8548,2.8101,2.7811,2.751,2.722,2.7148,2.7449,2.7437,2.7546,2.7606,2.7522,2.7534,2.8111,2.9445,3.1669,3.3415,3.4892,3.6374,3.7567,3.8227,3.8735,3.9307,3.9704,4.0054,4.0276,4.0451,4.0689,4.0737,4.0801,4.1007,4.1182,4.1293,4.142,4.15,4.1563,4.1595,4.2328,4.3591,4.4622,1.3184,1.3484,1.3484,1.4669,1.6651,1.7741,1.9125,2.071,2.1897,2.2974,2.3756,2.3951,2.5119,2.6959,2.7067,2.7646,2.8428,2.862,2.862,2.8669,2.8898,2.9006,2.9006,2.9006,2.8874,2.8656,2.862,2.862,2.862,2.862,2.862,2.862,2.862,2.862,2.862,2.862,2.862,2.862,2.862,2.862,2.862,2.862,2.862,2.862,2.862,2.862,2.862,2.862,2.8644,2.8705,2.8669,2.862,2.8656,2.8801,2.9019,2.9272,2.9477,2.9719,3.0008,3.0081,3.0129,3.0202,3.0189,3.0093,2.9827,2.9731,2.9465,2.9139,2.8934,2.8813,2.8681,2.8681,2.8596,2.8379,2.8391,2.8258,2.7872,2.7618,2.7425,2.7196,2.7232,2.7244,2.7232,2.7292,2.7377,2.7304,2.7268,2.7329,2.8118,2.9579,3.1614,3.3078,3.4543,3.6232,3.7585,3.8229,3.891,3.9546,4.0022,4.0435,4.0546,4.0626,4.088,4.1087,4.1134,4.1309,4.1516,4.169,4.1818,4.1833,4.1802,4.184,4.2962,4.411,4.5182,1.289,1.289,1.289,1.3778,1.536,1.6956,1.8533,2.0111,2.1701,2.2681,2.3268,2.3365,2.4438,2.6282,2.639,2.726,2.8428,2.862,2.862,2.8644,2.8777,2.8898,2.8958,2.8922,2.8765,2.8644,2.862,2.862,2.862,2.862,2.862,2.862,2.862,2.862,2.862,2.862,2.862,2.862,2.862,2.862,2.862,2.862,2.862,2.862,2.862,2.862,2.8632,2.8729,2.8741,2.8656,2.8632,2.8669,2.8789,2.8922,2.9188,2.9526,2.9719,2.9912,3.0117,3.0117,3.0105,3.0153,3.0129,2.99,2.9695,2.9622,2.9417,2.8934,2.8862,2.8765,2.8644,2.8524,2.8331,2.8089,2.7944,2.7751,2.7437,2.7341,2.7208,2.7111,2.7148,2.7268,2.7172,2.7244,2.7232,2.7208,2.7135,2.7377,2.7864,2.9713,3.1405,3.2883,3.4867,3.6807,3.7836,3.8514,3.9164,3.9784,4.0467,4.0864,4.096,4.0991,4.1198,4.1452,4.15,4.1579,4.1738,4.1849,4.1833,4.1833,4.1849,4.2345,4.3365,4.4565,4.5573,1.289,1.289,1.289,1.3678,1.5167,1.6857,1.8335,1.9824,2.1603,2.2387,2.2485,2.2485,2.3756,2.5518,2.5712,2.6681,2.8524,2.862,2.862,2.8632,2.8669,2.8753,2.8898,2.8753,2.8656,2.862,2.862,2.862,2.862,2.862,2.862,2.862,2.862,2.862,2.862,2.862,2.862,2.862,2.862,2.862,2.862,2.862,2.862,2.862,2.862,2.8656,2.8729,2.8862,2.8922,2.8729,2.8705,2.8837,2.9019,2.9031,2.9308,2.9682,2.9839,2.9984,3.0129,3.002,2.9972,3.0129,2.996,2.9682,2.9489,2.9405,2.9163,2.8717,2.8632,2.8644,2.8584,2.8367,2.8101,2.786,2.7606,2.7401,2.7341,2.7172,2.7039,2.7075,2.7087,2.7196,2.7268,2.7244,2.7135,2.7184,2.7172,2.7413,2.8433,3.028,3.1675,3.2915,3.5084,3.7551,3.8306,3.8799,3.9418,4.007,4.0864,4.1357,4.15,4.1579,4.169,4.1786,4.1706,4.1706,4.1786,4.1849,4.1849,4.1952,4.2038,4.2754,4.3569,4.4868,4.6075,1.289,1.289,1.289,1.3084,1.3878,1.636,1.7848,1.8441,2.121,2.2387,2.2387,2.2387,2.3561,2.5518,2.5615,2.6584,2.8428,2.862,2.862,2.862,2.862,2.8644,2.8717,2.8644,2.8632,2.862,2.862,2.862,2.862,2.862,2.862,2.862,2.862,2.862,2.862,2.862,2.862,2.862,2.862,2.862,2.862,2.862,2.862,2.862,2.8632,2.8741,2.8898,2.8982,2.9079,2.9188,2.9236,2.9212,2.9163,2.9405,2.9646,2.9803,3.0008,3.0141,3.0177,3.0141,3.0141,3.0141,2.9924,2.9682,2.9429,2.9212,2.897,2.8693,2.862,2.862,2.8584,2.8186,2.7944,2.7763,2.7437,2.7148,2.7111,2.7063,2.7111,2.7256,2.7304,2.7353,2.7401,2.7353,2.7256,2.7184,2.7292,2.7473,2.8896,3.0637,3.189,3.2891,3.5054,3.732,3.864,3.9244,4.0006,4.0499,4.1198,4.1627,4.1786,4.1849,4.1849,4.1849,4.1833,4.1849,4.1849,4.1849,4.1849,4.2038,4.2447,4.3365,4.4262,4.5372,4.6476,1.289,1.289,1.289,1.289,1.3384,1.6162,1.765,1.8236,2.1005,2.2387,2.2387,2.2387,2.3561,2.5421,2.5615,2.6681,2.8236,2.862,2.862,2.862,2.862,2.862,2.862,2.862,2.862,2.862,2.862,2.862,2.862,2.862,2.862,2.862,2.862,2.862,2.862,2.862,2.862,2.862,2.862,2.862,2.862,2.862,2.862,2.8669,2.8729,2.8886,2.8994,2.9284,2.9369,2.9465,2.9634,2.9658,2.9453,2.9634,2.9839,3.0008,3.0105,3.0214,3.0202,3.0093,3.0008,3.002,2.9779,2.9501,2.9284,2.9079,2.8898,2.8705,2.862,2.862,2.8596,2.8282,2.7993,2.7763,2.7461,2.7184,2.7063,2.7039,2.7135,2.7317,2.7292,2.7329,2.7353,2.7341,2.7232,2.7099,2.7317,2.751,2.8124,2.9852,3.1637,3.3023,3.4995,3.6962,3.8592,3.9736,4.0674,4.1118,4.1532,4.1754,4.1818,4.1849,4.1849,4.1849,4.1849,4.1849,4.1849,4.1849,4.1849,4.2038,4.2652,4.3755,4.4868,4.5875,4.6876,1.289,1.289,1.289,1.289,1.3384,1.6261,1.765,1.8046,2.1005,2.2387,2.2387,2.2387,2.3571,2.5129,2.5518,2.6681,2.8139,2.862,2.862,2.862,2.862,2.862,2.862,2.862,2.862,2.862,2.862,2.862,2.862,2.862,2.862,2.862,2.862,2.862,2.862,2.862,2.862,2.862,2.862,2.862,2.862,2.862,2.862,2.8669,2.885,2.9019,2.9175,2.9465,2.9695,2.9562,2.9972,3.0033,2.9936,2.9876,2.9948,3.0202,3.0202,3.0214,3.0189,3.0045,2.9912,2.9851,2.9574,2.9344,2.9151,2.8994,2.8825,2.8741,2.8669,2.8717,2.8669,2.8512,2.827,2.8029,2.7739,2.7389,2.7196,2.7099,2.716,2.7329,2.7348,2.7378,2.7336,2.7348,2.7123,2.7075,2.7317,2.7638,2.8266,2.9381,3.1181,3.2929,3.4809,3.7131,3.886,4.0133,4.1087,4.1452,4.1818,4.1833,4.1849,4.1849,4.1849,4.1849,4.1849,4.1849,4.1849,4.1849,4.1952,4.2038,4.306,4.4363,4.5372,4.6175,4.7175,1.289,1.289,1.289,1.289,1.3384,1.6261,1.765,1.8145,2.1005,2.2387,2.2387,2.2485,2.3571,2.5032,2.5518,2.6681,2.8236,2.862,2.862,2.862,2.862,2.862,2.862,2.862,2.862,2.862,2.862,2.862,2.862,2.862,2.862,2.862,2.862,2.862,2.862,2.862,2.862,2.862,2.862,2.862,2.862,2.862,2.8644,2.8681,2.8922,2.9139,2.9357,2.9634,2.9876,3.0057,3.0165,3.0177,3.0129,3.0117,3.0153,3.0189,3.0214,3.0214,3.0189,3.0165,3.0141,3.0045,2.9682,2.9417,2.9236,2.8958,2.8753,2.8741,2.8813,2.8922,2.8946,2.8801,2.8837,2.8632,2.8174,2.7715,2.7582,2.7365,2.716,2.7396,2.7457,2.7554,2.7664,2.7597,2.7409,2.7378,2.7461,2.7667,2.8059,2.94,3.1138,3.2825,3.4449,3.6872,3.9257,4.0368,4.1373,4.1595,4.1833,4.1833,4.1849,4.1849,4.1849,4.1849,4.1849,4.1849,4.1849,4.1849,4.2345,4.2754,4.3856,4.5171,4.5975,4.6776,4.7473,1.289,1.289,1.289,1.289,1.3484,1.6261,1.765,1.8046,2.0906,2.2387,2.2387,2.2485,2.317,2.4546,2.5324,2.6681,2.8139,2.862,2.862,2.862,2.862,2.862,2.862,2.862,2.862,2.862,2.862,2.862,2.862,2.862,2.862,2.862,2.862,2.862,2.862,2.862,2.862,2.862,2.862,2.862,2.862,2.862,2.8669,2.8862,2.9079,2.9344,2.9598,2.9864,3.0069,3.0177,3.0214,3.0214,3.0214,3.0214,3.0214,3.0214,3.0214,3.0214,3.0214,3.0202,3.0153,2.996,2.9622,2.9357,2.9163,2.8886,2.8693,2.8789,2.8741,2.8874,2.897,2.8922,2.8825,2.8729,2.8343,2.8041,2.7811,2.7582,2.7517,2.7567,2.7669,2.7838,2.8207,2.8,2.7706,2.7671,2.7675,2.7787,2.7956,2.9111,3.0687,3.3292,3.5155,3.7632,3.9699,4.0685,4.15,4.1722,4.1849,4.1849,4.1849,4.1849,4.1849,4.1849,4.1849,4.1849,4.2038,4.2243,4.2856,4.3569,4.4767,4.5975,4.6676,4.7374,4.7988,1.289,1.289,1.289,1.289,1.3384,1.6261,1.765,1.8236,2.1005,2.2387,2.2387,2.2485,2.2984,2.4156,2.5421,2.6874,2.8524,2.862,2.862,2.862,2.862,2.862,2.862,2.862,2.862,2.862,2.862,2.862,2.862,2.862,2.862,2.862,2.862,2.862,2.862,2.862,2.862,2.862,2.862,2.862,2.862,2.8632,2.8717,2.8958,2.9236,2.9489,2.9658,3.0008,3.0153,3.0214,3.0214,3.0214,3.0214,3.0214,3.0214,3.0214,3.0214,3.0214,3.0214,3.0214,3.0141,2.9984,2.9598,2.9332,2.9103,2.891,2.8717,2.891,2.8874,2.891,2.9151,2.9031,2.8982,2.8958,2.8753,2.8367,2.8162,2.8083,2.7996,2.7982,2.7929,2.8111,2.8456,2.8339,2.8032,2.7799,2.7896,2.7884,2.8077,2.8367,3.0121,3.3462,3.6112,3.8687,4.0388,4.0986,4.1595,4.1786,4.1849,4.1849,4.1849,4.1849,4.1849,4.1849,4.1849,4.1849,4.2243,4.2856,4.367,4.4565,4.5774,4.6676,4.7374,4.7672,4.8187,1.289,1.289,1.289,1.289,1.3384,1.6261,1.7543,1.8038,2.0906,2.2387,2.2387,2.2485,2.2974,2.4243,2.5992,2.7453,2.8332,2.862,2.862,2.862,2.862,2.862,2.862,2.862,2.862,2.862,2.862,2.862,2.862,2.862,2.862,2.862,2.862,2.862,2.862,2.862,2.862,2.862,2.862,2.862,2.8632,2.8632,2.8681,2.885,2.9163,2.9489,2.9634,2.9996,3.0202,3.0214,3.0214,3.0214,3.0214,3.0214,3.0214,3.0214,3.0214,3.0214,3.0214,3.0214,3.0177,2.9996,2.967,2.9441,2.9151,2.8886,2.8729,2.8982,2.8946,2.9127,2.9441,2.9586,2.9743,2.9634,2.9344,2.9067,2.8813,2.8413,2.8413,2.8616,2.8597,2.864,2.8834,2.8602,2.8304,2.8124,2.8026,2.8038,2.8469,2.9024,3.0131,3.3616,3.681,3.9374,4.0658,4.1404,4.1675,4.1833,4.1849,4.1849,4.1849,4.1849,4.1849,4.1849,4.1849,4.2345,4.3162,4.3873,4.4582,4.5473,4.6476,4.7274,4.7988,4.8286,4.8286,1.3678,1.289,1.289,1.289,1.3184,1.5366,1.6857,1.7947,2.0021,2.1603,2.2289,2.2387,2.3268,2.4838,2.5906,2.7067,2.8332,2.862,2.862,2.862,2.862,2.862,2.862,2.862,2.862,2.862,2.862,2.862,2.862,2.862,2.862,2.862,2.862,2.862,2.862,2.862,2.862,2.862,2.862,2.862,2.8656,2.8765,2.891,2.9055,2.9417,2.9646,2.9864,3.0033,3.0214,3.0214,3.0214,3.0214,3.0214,3.0214,3.0214,3.0214,3.0214,3.0214,3.0214,3.0214,3.0141,2.9948,2.961,2.9284,2.9019,2.8801,2.8729,2.8982,2.8862,2.9067,2.9405,2.9429,2.9634,2.9695,2.9682,2.9501,2.92,2.9043,2.8879,2.9068,2.9297,2.9429,2.9416,2.9164,2.9005,2.8804,2.8543,2.8365,2.9342,3.0583,3.1982,3.3963,3.7072,3.994,4.0817,4.1532,4.1706,4.1849,4.1849,4.1849,4.1849,4.1849,4.1849,4.2141,4.2447,4.3162,4.4059,4.4666,4.5171,4.6175,4.7175,4.7772,4.8286,4.8286,4.8286,1.437,1.299,1.3284,1.3284,1.309,1.457,1.6155,1.7749,1.933,2.0906,2.2093,2.2485,2.3561,2.5129,2.5712,2.6681,2.8524,2.862,2.862,2.862,2.862,2.862,2.862,2.862,2.862,2.862,2.862,2.862,2.862,2.862,2.862,2.862,2.862,2.862,2.862,2.862,2.862,2.862,2.862,2.862,2.8656,2.8801,2.9019,2.9272,2.9562,2.9827,3.0069,3.0189,3.0214,3.0214,3.0214,3.0214,3.0214,3.0214,3.0214,3.0214,3.0214,3.0214,3.0214,3.0189,3.0057,2.9803,2.9453,2.9067,2.8632,2.856,2.8669,2.8874,2.8765,2.8934,2.9224,2.9248,2.9453,2.9658,2.9731,2.961,2.954,2.9457,2.9453,2.969,3.0007,3.0398,3.0357,3.0058,2.9789,2.9512,2.9148,2.8764,2.9771,3.1297,3.3023,3.4661,3.7538,4.0225,4.1118,4.1675,4.1802,4.1952,4.1952,4.1849,4.1936,4.1849,4.1849,4.2243,4.2958,4.3654,4.4464,4.5171,4.5774,4.6876,4.7772,4.7988,4.8286,4.8286,4.8286,1.4377,1.2984,1.447,1.4271,1.2984,1.4669,1.6155,1.7749,1.9322,2.0906,2.2289,2.2485,2.3561,2.5032,2.5615,2.6584,2.8524,2.862,2.862,2.862,2.862,2.862,2.862,2.862,2.862,2.862,2.862,2.862,2.862,2.862,2.862,2.862,2.862,2.862,2.862,2.862,2.862,2.862,2.862,2.862,2.8644,2.8729,2.8874,2.9091,2.932,2.9562,2.9827,3.0081,3.0214,3.0214,3.0165,3.0202,3.0202,3.0165,3.0153,3.0202,3.0214,3.0214,3.0214,3.0189,3.0057,2.9755,2.9296,2.8789,2.8379,2.85,2.862,2.8656,2.8608,2.8874,2.9188,2.9405,2.9429,2.967,2.9803,2.9791,2.9797,3.0045,3.0173,3.0407,3.0656,3.0952,3.1165,3.086,3.0331,2.9944,2.9322,2.8922,2.98,3.1208,3.3353,3.5447,3.8257,4.0343,4.1414,4.1952,4.2243,4.2345,4.2345,4.2141,4.2038,4.1936,4.2141,4.2652,4.3365,4.4161,4.4969,4.5975,4.6876,4.7772,4.8286,4.8286,4.8286,4.8286,4.8286,1.5764,1.457,1.6062,1.5267,1.3084,1.457,1.6155,1.7749,1.933,2.0906,2.2387,2.2485,2.317,2.4448,2.5421,2.6294,2.7646,2.8428,2.8524,2.862,2.862,2.862,2.862,2.8644,2.862,2.8644,2.8644,2.862,2.862,2.8681,2.8632,2.862,2.8644,2.862,2.862,2.862,2.862,2.862,2.862,2.862,2.8693,2.897,2.9151,2.926,2.9719,2.9912,3.0069,3.0153,3.0202,3.0165,3.0045,3.0057,3.0117,3.0033,3.0057,3.0177,3.0189,3.0214,3.0202,3.0177,3.002,2.9501,2.8946,2.8439,2.821,2.8318,2.8355,2.8403,2.8536,2.8813,2.9055,2.9175,2.9284,2.9658,2.9851,2.9876,3.003,3.0181,3.0408,3.0509,3.0824,3.1175,3.1439,3.1561,3.096,3.0458,2.9745,2.9309,3.0189,3.154,3.3781,3.5973,3.8714,4.0616,4.1761,4.2313,4.2754,4.2754,4.2754,4.2652,4.255,4.2856,4.306,4.3467,4.4059,4.5171,4.6175,4.6975,4.7672,4.8187,4.8286,4.8286,4.8286,4.8286,4.8286,1.6956,1.6155,1.7154,1.6062,1.3878,1.4869,1.6453,1.8335,1.952,2.0906,2.2387,2.2485,2.2974,2.4058,2.5032,2.61,2.726,2.8139,2.8524,2.862,2.862,2.8669,2.8717,2.8765,2.8825,2.8813,2.885,2.8886,2.891,2.8862,2.8837,2.8789,2.8729,2.8729,2.862,2.862,2.862,2.862,2.862,2.8693,2.8789,2.9043,2.9405,2.9453,2.9779,2.9912,2.9948,2.996,2.99,2.9864,2.9803,2.9791,2.9851,2.99,2.9924,3.0045,3.0165,3.0214,3.0189,2.9996,2.9815,2.9405,2.8693,2.8331,2.8198,2.8198,2.8246,2.8258,2.8463,2.8705,2.8922,2.8982,2.9188,2.955,2.9779,2.9827,2.9942,3.0095,3.0338,3.0501,3.094,3.133,3.1263,3.1341,3.0776,3.021,2.9418,2.9514,3.0677,3.2332,3.4563,3.6769,3.909,4.0699,4.2233,4.2791,4.3263,4.3162,4.3162,4.3263,4.3263,4.3569,4.3975,4.4262,4.507,4.6276,4.6975,4.7374,4.7889,4.8286,4.8286,4.8286,4.8286,4.8286,4.8286,1.7551,1.7543,1.765,1.6758,1.5459,1.526,1.7048,1.9322,2.0021,2.1005,2.2289,2.2387,2.2974,2.4058,2.5032,2.61,2.7164,2.8139,2.862,2.862,2.8693,2.8789,2.891,2.8994,2.9079,2.932,2.9296,2.9248,2.9308,2.9248,2.9163,2.8994,2.8886,2.8801,2.8644,2.862,2.862,2.8632,2.8656,2.8789,2.8982,2.9103,2.9357,2.955,2.9586,2.967,2.9743,2.9658,2.9598,2.9562,2.9477,2.9465,2.9526,2.9695,2.9767,2.9839,3.0093,3.0202,3.0177,2.9719,2.9489,2.9308,2.8632,2.8186,2.8186,2.8186,2.8186,2.8198,2.8451,2.8608,2.8729,2.885,2.9115,2.9405,2.9634,2.9707,2.9821,3.007,3.029,3.0476,3.096,3.1315,3.1205,3.104,3.0413,2.9848,2.9152,2.9707,3.1018,3.2949,3.5195,3.7457,3.9706,4.1362,4.2774,4.3417,4.3755,4.367,4.3873,4.4177,4.4279,4.4279,4.4666,4.507,4.5975,4.7075,4.7374,4.7573,4.7988,4.8286,4.8286,4.8286,4.8286,4.8286,4.8286,1.8244,1.9232,1.9232,1.8928,1.8236,1.7246,1.7543,1.8738,2.0513,2.1897,2.2289,2.2387,2.2974,2.4048,2.5032,2.61,2.7164,2.8139,2.862,2.8644,2.8777,2.891,2.9043,2.9212,2.9332,2.9381,2.9405,2.9441,2.9381,2.9465,2.9272,2.9055,2.8922,2.8717,2.8644,2.8644,2.8681,2.885,2.891,2.8994,2.9236,2.9272,2.9357,2.955,2.9441,2.9441,2.9513,2.9393,2.9344,2.9308,2.9236,2.9212,2.932,2.9513,2.9622,2.9791,3.0045,3.0105,2.9936,2.961,2.9429,2.9103,2.8572,2.8077,2.8162,2.8017,2.8053,2.8222,2.8475,2.8596,2.8669,2.8693,2.891,2.9308,2.9513,2.9513,2.9564,2.9947,3.0278,3.0425,3.078,3.1011,3.1022,3.0446,2.9823,2.9689,2.9043,3.011,3.1399,3.3459,3.5663,3.8094,4.0294,4.2129,4.3535,4.4346,4.4969,4.5171,4.5473,4.5875,4.5674,4.5271,4.5674,4.6175,4.6975,4.779,4.7889,4.7988,4.8088,4.8286,4.8286,4.8286,4.8286,4.8286,4.8286,1.8837,2.071,2.0218,2.0021,1.9824,1.8829,1.8738,1.9528,2.1496,2.2387,2.2387,2.2387,2.2974,2.4058,2.5032,2.6089,2.7164,2.8139,2.862,2.8656,2.8886,2.9043,2.9212,2.9417,2.9622,2.9634,2.9682,2.9707,2.9731,2.9707,2.9501,2.9212,2.897,2.891,2.8825,2.8801,2.8837,2.8994,2.9067,2.9212,2.9344,2.9381,2.9393,2.9393,2.932,2.926,2.9248,2.92,2.9151,2.9091,2.9031,2.8958,2.9115,2.9332,2.9453,2.9695,2.9984,3.002,2.9827,2.9562,2.9344,2.9043,2.827,2.8005,2.8089,2.798,2.8113,2.8294,2.8512,2.8584,2.862,2.8632,2.8862,2.9248,2.9344,2.9344,2.9491,2.9873,2.9848,3.0106,3.0376,3.0619,3.0675,2.9869,2.9261,2.9153,2.9031,3.0383,3.1886,3.4071,3.6618,3.9397,4.1372,4.317,4.4649,4.5556,4.6175,4.6576,4.6776,4.6876,4.6576,4.6075,4.6676,4.7193,4.769,4.8088,4.8187,4.8286,4.8286,4.8286,4.8286,4.8286,4.8286,4.8286,4.8286,1.9528,2.1995,2.071,2.0119,2.0119,2.0119,2.0906,2.2191,2.2387,2.2387,2.2387,2.2387,2.2974,2.4048,2.5032,2.61,2.7164,2.8128,2.856,2.8741,2.8982,2.9175,2.9441,2.9682,2.9876,3.0081,3.0129,3.0033,3.0165,2.9924,2.967,2.9453,2.9248,2.9067,2.8946,2.8982,2.9019,2.9139,2.9248,2.9344,2.9393,2.9357,2.932,2.926,2.9139,2.9031,2.8958,2.8862,2.8753,2.8693,2.8669,2.8656,2.8801,2.9127,2.9296,2.9574,2.9972,2.9972,2.9755,2.9477,2.9043,2.8656,2.8137,2.8029,2.8065,2.8041,2.8174,2.8379,2.8608,2.8608,2.862,2.8753,2.8886,2.9067,2.9188,2.9248,2.9332,2.9408,2.9347,2.9524,2.9904,3.0076,3.0018,2.945,2.8958,2.9031,2.9433,3.091,3.257,3.4617,3.7465,4.1244,4.3105,4.4413,4.5674,4.6576,4.6975,4.7274,4.7175,4.7193,4.6975,4.6975,4.7374,4.769,4.8088,4.8286,4.8286,4.8286,4.8286,4.8286,4.8286,4.8286,4.8286,4.8286,4.8286,1.9528,2.2289,2.1897,2.1701,2.1701,2.1692,2.1995,2.2387,2.2387,2.2387,2.2387,2.2387,2.2974,2.4058,2.5032,2.6089,2.7067,2.8067,2.8572,2.8922,2.9127,2.9417,2.9682,2.9924,3.0117,3.0177,3.0214,3.0202,3.0105,2.9936,2.9695,2.9405,2.9344,2.9091,2.9043,2.9115,2.9212,2.9284,2.9369,2.9369,2.932,2.9236,2.9188,2.9067,2.8898,2.8789,2.8729,2.8693,2.862,2.862,2.862,2.862,2.8656,2.8958,2.9212,2.9682,2.996,3.002,2.9586,2.9284,2.8862,2.8318,2.7932,2.8005,2.8089,2.8174,2.8246,2.8475,2.862,2.862,2.8681,2.8801,2.8994,2.9163,2.9248,2.926,2.9296,2.9115,2.9152,2.9378,2.9663,2.9567,2.9471,2.9196,2.8825,2.8934,2.9738,3.1298,3.3194,3.5235,3.8003,4.1919,4.4461,4.5639,4.6376,4.7274,4.7573,4.7889,4.769,4.7591,4.7672,4.7772,4.7988,4.8187,4.8286,4.8286,4.8286,4.8286,4.8286,4.8286,4.8286,4.8286,4.8286,4.8286,4.8286,1.9528,2.2191,2.2387,2.2387,2.2387,2.2387,2.2387,2.2387,2.2387,2.2387,2.2387,2.2387,2.2974,2.4048,2.5032,2.61,2.7152,2.8151,2.8753,2.9006,2.9296,2.9526,2.9803,3.0057,3.0177,3.0214,3.0214,3.0214,3.0117,2.996,2.9731,2.9574,2.9441,2.932,2.9296,2.9417,2.9453,2.9429,2.9381,2.9344,2.9224,2.9079,2.8994,2.8862,2.8693,2.8644,2.8632,2.8632,2.862,2.862,2.862,2.862,2.8705,2.897,2.9417,2.9876,3.0081,2.9924,2.9513,2.9188,2.8644,2.8186,2.7956,2.8053,2.8125,2.8198,2.8367,2.8548,2.8596,2.8644,2.8741,2.885,2.9115,2.9357,2.9332,2.9296,2.9175,2.9031,2.914,2.9258,2.9388,2.928,2.9088,2.8812,2.8753,2.9031,2.9848,3.1277,3.3359,3.5789,3.859,4.2044,4.4681,4.6676,4.7274,4.7772,4.7952,4.815,4.8088,4.8088,4.8286,4.8286,4.8187,4.8187,4.8286,4.8286,4.8286,4.8286,4.8286,4.8286,4.8286,4.8267,4.8267,4.8286,4.8286,1.9528,2.2387,2.2387,2.2387,2.2387,2.2387,2.2387,2.2387,2.2387,2.2387,2.2387,2.2387,2.2877,2.3756,2.4935,2.5906,2.6993,2.7994,2.8862,2.9067,2.9369,2.9634,2.9888,3.0081,3.0189,3.0214,3.0214,3.0214,3.0202,3.0045,2.9864,2.9815,2.9936,2.9815,2.9574,2.9658,2.9622,2.9429,2.9357,2.9296,2.9055,2.8934,2.8886,2.8729,2.8656,2.8632,2.8656,2.8644,2.862,2.862,2.862,2.862,2.8837,2.9103,2.9622,2.996,3.0141,2.9888,2.9513,2.9163,2.8741,2.8379,2.8198,2.8174,2.8186,2.8294,2.8475,2.8572,2.862,2.862,2.8693,2.8874,2.9115,2.9248,2.926,2.9284,2.9284,2.9055,2.885,2.9004,2.9004,2.8908,2.9029,2.8765,2.8874,2.9175,3.0665,3.216,3.3753,3.6303,3.9338,4.2526,4.5151,4.7274,4.779,4.8069,4.8113,4.8231,4.8249,4.8176,4.8084,4.8157,4.8286,4.8286,4.8286,4.8286,4.8286,4.8286,4.8286,4.8286,4.8267,4.8249,4.8249,4.8212,4.8286,1.9528,2.2387,2.2387,2.2387,2.2387,2.2387,2.2387,2.2387,2.2387,2.2387,2.2387,2.2387,2.2485,2.3072,2.4643,2.5723,2.6241,2.7844,2.8872,2.932,2.9574,2.9791,3.0045,3.0153,3.0214,3.0214,3.0214,3.0214,3.0189,3.0045,2.99,2.9827,2.9948,2.9851,2.9658,2.9731,2.967,2.9465,2.9381,2.92,2.8898,2.8789,2.8717,2.8777,2.8813,2.8789,2.8777,2.8729,2.8669,2.862,2.862,2.8729,2.8934,2.9236,2.955,2.9864,3.0117,2.9912,2.9526,2.9175,2.8801,2.8427,2.821,2.821,2.8258,2.8427,2.8536,2.8596,2.862,2.862,2.8681,2.8898,2.9067,2.9127,2.9175,2.9272,2.9357,2.9019,2.8753,2.862,2.862,2.8728,2.8849,2.891,2.9031,3.044,3.2615,3.4192,3.5082,3.7155,4.0248,4.3335,4.6088,4.7889,4.8187,4.8249,4.8194,4.8139,4.8139,4.8029,4.7919,4.8011,4.8157,4.8249,4.8286,4.8286,4.8286,4.8286,4.8286,4.8286,4.8176,4.8102,4.8029,4.7992,4.8157,1.9528,2.2289,2.2387,2.2387,2.2387,2.2387,2.2387,2.2387,2.2387,2.2387,2.2387,2.2387,2.2387,2.2583,2.4146,2.5312,2.5853,2.7462,2.8745,2.9438,2.9731,2.9936,3.0105,3.0214,3.0214,3.0214,3.0214,3.0202,3.0177,3.0117,3.0008,2.9972,2.996,2.99,2.9743,2.9803,2.9743,2.9586,2.9501,2.926,2.8958,2.8982,2.9019,2.9103,2.9091,2.9031,2.897,2.8922,2.8837,2.8705,2.862,2.8874,2.9091,2.9332,2.961,2.9948,3.0153,3.0093,2.9586,2.9212,2.891,2.8548,2.8234,2.8222,2.8427,2.856,2.8572,2.862,2.862,2.862,2.8693,2.8862,2.8994,2.9079,2.9067,2.9091,2.9031,2.8801,2.8632,2.862,2.862,2.8632,2.8789,2.8934,2.9213,3.0194,3.2611,3.4103,3.5431,3.8207,4.1258,4.3908,4.654,4.797,4.8286,4.8212,4.8139,4.8084,4.7992,4.8084,4.8066,4.7992,4.8011,4.8102,4.8194,4.8286,4.8286,4.8267,4.8267,4.8286,4.8121,4.7937,4.7846,4.7699,4.7736,1.9421,2.2191,2.2387,2.2387,2.2387,2.2387,2.2387,2.2387,2.2387,2.2387,2.2387,2.2387,2.2387,2.2779,2.3571,2.4701,2.6016,2.7305,2.8503,2.9471,2.9839,3.002,3.0141,3.0214,3.0214,3.0214,3.0214,3.0214,3.0202,3.0165,3.0165,3.0202,3.0214,3.0202,3.0141,3.002,2.9851,2.9815,2.9719,2.9574,2.9489,2.9441,2.9405,2.9417,2.9405,2.9296,2.9248,2.9175,2.9103,2.8874,2.8693,2.8982,2.9272,2.9513,2.99,3.0214,3.0358,3.0093,2.9646,2.9332,2.9019,2.8693,2.8403,2.8367,2.856,2.8608,2.862,2.862,2.862,2.8644,2.8717,2.8813,2.8946,2.9019,2.8982,2.891,2.8765,2.8644,2.8632,2.862,2.862,2.862,2.8717,2.8874,2.9591,3.0478,3.1807,3.2866,3.4963,3.8999,4.2661,4.4498,4.6441,4.7573,4.8187,4.8121,4.7992,4.7827,4.7754,4.8011,4.8157,4.7974,4.7882,4.7937,4.8029,4.8176,4.8212,4.8194,4.8231,4.8176,4.8011,4.7754,4.7387,4.7259,4.7167,1.9528,2.2387,2.2387,2.2387,2.2387,2.2387,2.2387,2.2387,2.2387,2.2387,2.2387,2.2387,2.2387,2.2485,2.3463,2.468,2.6015,2.7145,2.8486,2.9667,2.9996,3.0129,3.0202,3.0214,3.0214,3.0214,3.0214,3.0214,3.0214,3.0214,3.0214,3.0214,3.0214,3.0214,3.0202,3.0117,3.0081,3.0045,3.0045,2.996,2.9864,2.9755,2.9586,2.955,2.9513,2.955,2.9562,2.9477,2.9248,2.8982,2.8825,2.9127,2.9465,2.9767,3.0105,3.0407,3.0539,3.0117,2.9719,2.9369,2.9019,2.8693,2.8487,2.85,2.862,2.862,2.862,2.862,2.862,2.862,2.8693,2.8837,2.897,2.897,2.8946,2.8825,2.8693,2.8644,2.8632,2.862,2.862,2.8632,2.8656,2.9055,2.9799,3.1214,3.3593,3.4768,3.6327,4.0041,4.3874,4.522,4.664,4.7455,4.8267,4.7937,4.7772,4.7589,4.7461,4.7571,4.7681,4.7772,4.7754,4.7681,4.7882,4.8084,4.8102,4.7937,4.7937,4.7846,4.7809,4.7589,4.713,4.6819,4.6727]}]]